Darstellungsparameter: Aktuell verwendete Einstellungen:
Skalierung der Graphiken ... ?
xyx+y,   Skalierungsfaktor:      Skalierung: Modus: x, Faktor: 1
Darstellungszeitraum ... ?
Vom - - bis: - -   Zeitraum: 11.09.2019 - 01.10.2019
Min/Max/Avg-Anzeige ... ?
Zeige MMA aktuell
Zeige MMA Monat
Zeige MMA alles
Zeige --A aktuell
Zeige --A Monat
Zeige --A alles
Keine MMA-Anzeige
MMA:
Average (ber die Originaldaten)
MMA-Basis: 11.09.2019 - 01.10.2019
Quicknavigation für Darstellung... ?
Tage:      1T, 2T, 3T, 5T -1T -2T -3T -5T +1T +2T +3T +5T
Wochen: 1W, 2W, 3W -1W -2W -3W +1W +2W +3W
Monate: 1M, 3M, 6M -1M -3M -6M +1M +3M +6M
Jahre:    1J, 3J, 5J, 10J -1J -3J -5J -10J +1J +3J +5J +10J
Nutze für die Darstellung ... ?
Originaldaten oder Mittelwerte auf ...
Stundenbasis Tagesbasis Wochenbasis
Monatsbasis Jahresbasis      Datenbasis: Original-Daten
Darstellen als:
Statistik (Auto) Statistik J:M      Darstellung:
Zur Graphik,    zurück zur Übersicht aller Sensoren.
 
Tabellarische Datenbersicht: ?
 
Sensor: Nr:Datum:Temp:Feuchte:
Aussen-T/F 1 11-09-2019 00:04:17 8.9 C 20 %
2 11-09-2019 00:14:17 8.8 C 20 %
3 11-09-2019 00:24:17 8.8 C 20 %
4 11-09-2019 00:34:17 8.7 C 20 %
5 11-09-2019 00:44:17 8.5 C 20 %
6 11-09-2019 00:54:18 8.5 C 20 %
7 11-09-2019 01:04:17 8.4 C 20 %
8 11-09-2019 01:14:17 7.9 C 20 %
9 11-09-2019 01:24:18 7.8 C 20 %
10 11-09-2019 01:34:17 7.8 C 20 %
11 11-09-2019 01:44:17 7.5 C 20 %
12 11-09-2019 01:54:17 7.7 C 20 %
13 11-09-2019 02:04:17 7.6 C 20 %
14 11-09-2019 02:14:17 7.3 C 20 %
15 11-09-2019 02:24:17 7.3 C 20 %
16 11-09-2019 02:34:17 7.4 C 20 %
17 11-09-2019 02:44:17 7.2 C 20 %
18 11-09-2019 02:54:17 7.3 C 20 %
19 11-09-2019 03:04:17 7 C 20 %
20 11-09-2019 03:14:17 7 C 20 %
21 11-09-2019 03:24:17 7 C 20 %
22 11-09-2019 03:34:17 6.9 C 21 %
23 11-09-2019 03:44:17 7.1 C 21 %
24 11-09-2019 03:54:17 6.9 C 23 %
25 11-09-2019 04:04:17 6.7 C 21 %
Sensor: Nr:Datum:Temp:Feuchte:
Aussen-T/F 26 11-09-2019 04:14:17 6.6 C 23 %
27 11-09-2019 04:24:17 6.4 C 23 %
28 11-09-2019 04:34:17 6.4 C 23 %
29 11-09-2019 04:44:17 6.5 C 25 %
30 11-09-2019 04:54:18 6.4 C 25 %
31 11-09-2019 05:04:17 6.4 C 25 %
32 11-09-2019 05:14:17 6.3 C 25 %
33 11-09-2019 05:24:17 6.3 C 25 %
34 11-09-2019 05:34:17 6.4 C 25 %
35 11-09-2019 05:44:17 6.4 C 25 %
36 11-09-2019 05:54:18 6.3 C 25 %
37 11-09-2019 06:04:17 6.1 C 25 %
38 11-09-2019 06:14:17 6.1 C 25 %
39 11-09-2019 06:24:18 6 C 25 %
40 11-09-2019 06:34:17 6.1 C 25 %
41 11-09-2019 06:44:17 6.1 C 25 %
42 11-09-2019 06:54:18 5.8 C 25 %
43 11-09-2019 07:04:17 5.8 C 25 %
44 11-09-2019 07:14:17 5.9 C 25 %
45 11-09-2019 07:24:18 6 C 25 %
46 11-09-2019 07:34:17 6.3 C 26 %
47 11-09-2019 07:44:17 6.3 C 25 %
48 11-09-2019 07:54:17 6.3 C 25 %
49 11-09-2019 08:04:17 7.3 C 25 %
50 11-09-2019 08:14:17 7.9 C 21 %
Sensor: Nr:Datum:Temp:Feuchte:
Aussen-T/F 51 11-09-2019 08:24:18 8.2 C 20 %
52 11-09-2019 08:34:17 8.8 C 20 %
53 11-09-2019 08:44:17 9 C 20 %
54 11-09-2019 08:54:18 9.6 C 20 %
55 11-09-2019 09:04:17 9.8 C 20 %
56 11-09-2019 09:14:17 10.2 C 20 %
57 11-09-2019 09:24:17 10.1 C 20 %
58 11-09-2019 09:34:17 9.9 C 20 %
59 11-09-2019 09:44:17 9.6 C 20 %
60 11-09-2019 09:54:18 9.6 C 20 %
61 11-09-2019 10:04:17 9.7 C 20 %
62 11-09-2019 10:14:17 10.5 C 20 %
63 11-09-2019 10:24:17 11.1 C 20 %
64 11-09-2019 10:34:17 11.5 C 20 %
65 11-09-2019 10:44:17 11.6 C 20 %
66 11-09-2019 10:54:18 12.1 C 20 %
67 11-09-2019 11:04:17 12.5 C 20 %
68 11-09-2019 11:14:17 12.8 C 20 %
69 11-09-2019 11:24:17 13.5 C 20 %
70 11-09-2019 11:34:17 14.1 C 20 %
71 11-09-2019 11:44:17 15.1 C 20 %
72 11-09-2019 11:54:18 15.8 C 20 %
73 11-09-2019 12:04:17 16.4 C 20 %
74 11-09-2019 12:14:17 17.3 C 20 %
75 11-09-2019 12:24:18 18.1 C 20 %
Sensor: Nr:Datum:Temp:Feuchte:
Aussen-T/F 76 11-09-2019 12:34:17 18.4 C 20 %
77 11-09-2019 12:44:17 19 C 20 %
78 11-09-2019 12:54:18 18.9 C 20 %
79 11-09-2019 13:04:17 19.6 C 20 %
80 11-09-2019 13:14:17 20.1 C 20 %
81 11-09-2019 13:24:18 20.7 C 20 %
82 11-09-2019 13:34:17 20.9 C 20 %
83 11-09-2019 13:44:17 20.9 C 20 %
84 11-09-2019 13:54:17 20.6 C 20 %
85 11-09-2019 14:04:18 21.2 C 20 %
86 11-09-2019 14:14:18 21.4 C 20 %
87 11-09-2019 14:24:17 22.2 C 20 %
88 11-09-2019 14:34:18 22.8 C 20 %
89 11-09-2019 14:44:18 23.9 C 20 %
90 11-09-2019 14:54:17 22.9 C 20 %
91 11-09-2019 15:04:18 22.8 C 20 %
92 11-09-2019 15:14:18 21.3 C 20 %
93 11-09-2019 15:24:17 21.2 C 20 %
94 11-09-2019 15:34:17 21.1 C 20 %
95 11-09-2019 15:44:17 21 C 20 %
96 11-09-2019 15:54:17 21.2 C 20 %
97 11-09-2019 16:04:17 20.8 C 20 %
98 11-09-2019 16:14:17 20.6 C 20 %
99 11-09-2019 16:24:18 20.6 C 20 %
100 11-09-2019 16:34:17 19.1 C 20 %
Sensor: Nr:Datum:Temp:Feuchte:
Aussen-T/F 101 11-09-2019 16:44:17 19 C 20 %
102 11-09-2019 16:54:17 19.4 C 20 %
103 11-09-2019 17:04:17 19.6 C 20 %
104 11-09-2019 17:14:17 19.7 C 20 %
105 11-09-2019 17:24:17 19.6 C 20 %
106 11-09-2019 17:34:17 18.9 C 20 %
107 11-09-2019 17:44:18 18.8 C 20 %
108 11-09-2019 17:54:17 19 C 20 %
109 11-09-2019 18:04:17 19 C 20 %
110 11-09-2019 18:14:17 18.9 C 20 %
111 11-09-2019 18:24:17 18.2 C 20 %
112 11-09-2019 18:34:18 18.1 C 20 %
113 11-09-2019 18:44:18 17.5 C 20 %
114 11-09-2019 18:54:17 17.5 C 20 %
115 11-09-2019 19:04:18 17.6 C 20 %
116 11-09-2019 19:14:18 17.7 C 20 %
117 11-09-2019 19:24:17 17.7 C 20 %
118 11-09-2019 19:34:18 17.2 C 20 %
119 11-09-2019 19:44:18 17 C 20 %
120 11-09-2019 19:54:17 16.7 C 20 %
121 11-09-2019 20:04:17 16.5 C 20 %
122 11-09-2019 20:14:17 16 C 20 %
123 11-09-2019 20:24:17 16.5 C 20 %
124 11-09-2019 20:34:17 16.3 C 20 %
125 11-09-2019 20:44:17 16.6 C 20 %
Sensor: Nr:Datum:Temp:Feuchte:
Aussen-T/F 126 11-09-2019 20:54:17 16.4 C 20 %
127 11-09-2019 21:04:17 16.3 C 20 %
128 11-09-2019 21:14:17 16.2 C 20 %
129 11-09-2019 21:24:17 16.3 C 20 %
130 11-09-2019 21:34:17 16.3 C 20 %
131 11-09-2019 21:44:17 16.3 C 20 %
132 11-09-2019 21:54:17 16.7 C 20 %
133 11-09-2019 22:04:18 16.6 C 20 %
134 11-09-2019 22:14:18 17 C 20 %
135 11-09-2019 22:24:17 17.1 C 20 %
136 11-09-2019 22:34:18 15.6 C 20 %
137 11-09-2019 22:44:18 15.4 C 20 %
138 11-09-2019 22:54:17 15.5 C 20 %
139 11-09-2019 23:04:17 15.6 C 20 %
140 11-09-2019 23:14:17 15.6 C 20 %
141 11-09-2019 23:24:17 15.5 C 20 %
142 11-09-2019 23:34:17 15.2 C 20 %
143 11-09-2019 23:44:17 15 C 20 %
144 11-09-2019 23:54:17 15.1 C 20 %
145 12-09-2019 00:04:17 15.1 C 20 %
146 12-09-2019 00:14:17 15.4 C 20 %
147 12-09-2019 00:24:18 15.8 C 20 %
148 12-09-2019 00:34:17 16.1 C 20 %
149 12-09-2019 00:44:17 16.5 C 20 %
150 12-09-2019 00:54:17 16.9 C 20 %
Sensor: Nr:Datum:Temp:Feuchte:
Aussen-T/F 151 12-09-2019 01:04:17 16.6 C 20 %
152 12-09-2019 01:14:17 16 C 20 %
153 12-09-2019 01:24:17 15.9 C 20 %
154 12-09-2019 01:34:17 16.2 C 20 %
155 12-09-2019 01:44:17 16.5 C 20 %
156 12-09-2019 01:54:18 17.2 C 20 %
157 12-09-2019 02:04:17 17.6 C 20 %
158 12-09-2019 02:14:17 17.8 C 20 %
159 12-09-2019 02:24:18 17.9 C 20 %
160 12-09-2019 02:34:17 18 C 20 %
161 12-09-2019 02:44:17 17.7 C 20 %
162 12-09-2019 02:54:18 17.7 C 20 %
163 12-09-2019 03:04:17 17.5 C 20 %
164 12-09-2019 03:14:17 17.4 C 20 %
165 12-09-2019 03:24:18 17.5 C 20 %
166 12-09-2019 03:34:17 17.5 C 20 %
167 12-09-2019 03:44:17 17.6 C 20 %
168 12-09-2019 03:54:18 17.5 C 20 %
169 12-09-2019 04:04:17 17.4 C 20 %
170 12-09-2019 04:14:17 17.3 C 20 %
171 12-09-2019 04:24:18 17.2 C 20 %
172 12-09-2019 04:34:17 17.3 C 20 %
173 12-09-2019 04:44:17 17.1 C 20 %
174 12-09-2019 04:54:18 16.9 C 20 %
175 12-09-2019 05:04:17 17 C 20 %
Sensor: Nr:Datum:Temp:Feuchte:
Aussen-T/F 176 12-09-2019 05:14:17 17.1 C 20 %
177 12-09-2019 05:24:17 17.4 C 20 %
178 12-09-2019 05:34:17 17.2 C 20 %
179 12-09-2019 05:44:17 17.2 C 20 %
180 12-09-2019 05:54:18 17.2 C 20 %
181 12-09-2019 06:04:17 17.1 C 20 %
182 12-09-2019 06:14:17 17 C 20 %
183 12-09-2019 06:24:17 16.9 C 20 %
184 12-09-2019 06:34:17 16.7 C 20 %
185 12-09-2019 06:44:17 16.6 C 20 %
186 12-09-2019 06:54:17 15.8 C 20 %
187 12-09-2019 07:04:17 15.6 C 20 %
188 12-09-2019 07:14:17 16 C 20 %
189 12-09-2019 07:24:17 16.2 C 20 %
190 12-09-2019 07:34:18 16.2 C 20 %
191 12-09-2019 07:44:18 16.4 C 20 %
192 12-09-2019 07:54:17 16.6 C 20 %
193 12-09-2019 08:04:18 16.8 C 20 %
194 12-09-2019 08:14:18 16.7 C 20 %
195 12-09-2019 08:24:17 17.1 C 20 %
196 12-09-2019 08:34:18 17.2 C 20 %
197 12-09-2019 08:44:18 17.3 C 20 %
198 12-09-2019 08:54:17 17.4 C 20 %
199 12-09-2019 09:04:17 17.5 C 20 %
200 12-09-2019 09:14:17 17.4 C 20 %
Sensor: Nr:Datum:Temp:Feuchte:
Aussen-T/F 201 12-09-2019 09:24:17 17.3 C 20 %
202 12-09-2019 09:34:17 17.5 C 20 %
203 12-09-2019 09:44:17 17.9 C 20 %
204 12-09-2019 09:54:17 17.8 C 20 %
205 12-09-2019 10:04:18 18 C 20 %
206 12-09-2019 10:14:18 18.1 C 20 %
207 12-09-2019 10:24:17 18.6 C 20 %
208 12-09-2019 10:34:17 18.7 C 20 %
209 12-09-2019 10:44:17 18.5 C 20 %
210 12-09-2019 10:54:17 18.8 C 20 %
211 12-09-2019 11:04:18 19.2 C 20 %
212 12-09-2019 11:14:18 19.3 C 20 %
213 12-09-2019 11:24:17 19.3 C 20 %
214 12-09-2019 11:34:17 20.3 C 20 %
215 12-09-2019 11:44:17 21.2 C 20 %
216 12-09-2019 11:54:17 20.9 C 20 %
217 12-09-2019 12:04:18 21 C 20 %
218 12-09-2019 12:14:18 21.3 C 20 %
219 12-09-2019 12:24:17 20.8 C 20 %
220 12-09-2019 12:34:17 20.9 C 20 %
221 12-09-2019 12:44:17 20.5 C 20 %
222 12-09-2019 12:54:17 20.3 C 20 %
223 12-09-2019 13:04:17 21 C 20 %
224 12-09-2019 13:14:17 21.1 C 20 %
225 12-09-2019 13:24:17 21.6 C 20 %
Sensor: Nr:Datum:Temp:Feuchte:
Aussen-T/F 226 12-09-2019 13:34:17 21.6 C 20 %
227 12-09-2019 13:44:18 22.1 C 20 %
228 12-09-2019 13:54:17 22.1 C 20 %
229 12-09-2019 14:04:17 21.6 C 20 %
230 12-09-2019 14:14:17 21.6 C 20 %
231 12-09-2019 14:24:17 21.4 C 20 %
232 12-09-2019 14:34:17 21.1 C 20 %
233 12-09-2019 14:44:17 21.1 C 20 %
234 12-09-2019 14:54:18 20.9 C 20 %
235 12-09-2019 15:04:17 25.7 C 20 %
236 12-09-2019 15:14:17 28.7 C 20 %
237 12-09-2019 15:24:17 24.5 C 20 %
238 12-09-2019 15:34:17 23.4 C 20 %
239 12-09-2019 15:44:17 22.6 C 20 %
240 12-09-2019 15:54:17 22.4 C 20 %
241 12-09-2019 16:04:17 22.6 C 20 %
242 12-09-2019 16:14:17 24.8 C 20 %
243 12-09-2019 16:24:18 29.1 C 20 %
244 12-09-2019 16:34:17 24.3 C 20 %
245 12-09-2019 16:44:17 26.3 C 20 %
246 12-09-2019 16:54:17 25 C 20 %
247 12-09-2019 17:04:17 26.9 C 20 %
248 12-09-2019 17:14:17 26.7 C 20 %
249 12-09-2019 17:24:17 25.7 C 20 %
250 12-09-2019 17:34:17 26.9 C 20 %
Sensor: Nr:Datum:Temp:Feuchte:
Aussen-T/F 251 12-09-2019 17:44:17 27.1 C 20 %
252 12-09-2019 17:54:17 24.1 C 20 %
253 12-09-2019 18:04:18 24.3 C 20 %
254 12-09-2019 18:14:18 23.8 C 20 %
255 12-09-2019 18:24:18 23.7 C 20 %
256 12-09-2019 18:34:17 23.4 C 20 %
257 12-09-2019 18:44:17 23.1 C 20 %
258 12-09-2019 18:54:17 22.9 C 20 %
259 12-09-2019 19:04:17 22.1 C 20 %
260 12-09-2019 19:14:17 21.6 C 20 %
261 12-09-2019 19:24:17 21.3 C 20 %
262 12-09-2019 19:34:17 20.5 C 20 %
263 12-09-2019 19:44:17 19.9 C 20 %
264 12-09-2019 19:54:17 19.4 C 20 %
265 12-09-2019 20:04:17 18.9 C 20 %
266 12-09-2019 20:14:17 18.8 C 20 %
267 12-09-2019 20:24:17 18.5 C 20 %
268 12-09-2019 20:34:18 18.4 C 20 %
269 12-09-2019 20:44:18 18.3 C 20 %
270 12-09-2019 20:54:17 18.3 C 20 %
271 12-09-2019 21:04:18 18.2 C 20 %
272 12-09-2019 21:14:18 18.5 C 20 %
273 12-09-2019 21:24:17 18.5 C 20 %
274 12-09-2019 21:34:18 18.7 C 20 %
275 12-09-2019 21:44:18 19 C 20 %
Sensor: Nr:Datum:Temp:Feuchte:
Aussen-T/F 276 12-09-2019 21:54:17 18.9 C 20 %
277 12-09-2019 22:04:18 18.9 C 20 %
278 12-09-2019 22:14:18 18.6 C 20 %
279 12-09-2019 22:24:17 18.6 C 20 %
280 12-09-2019 22:34:18 18.3 C 20 %
281 12-09-2019 22:44:18 17.9 C 20 %
282 12-09-2019 22:54:17 17.2 C 20 %
283 12-09-2019 23:04:17 16.8 C 20 %
284 12-09-2019 23:14:17 16.5 C 20 %
285 12-09-2019 23:24:18 16.3 C 20 %
286 12-09-2019 23:34:17 16.1 C 20 %
287 12-09-2019 23:44:17 16 C 20 %
288 12-09-2019 23:54:18 15.7 C 20 %
289 13-09-2019 00:04:17 15.6 C 20 %
290 13-09-2019 00:14:17 15.4 C 20 %
291 13-09-2019 00:24:18 15.3 C 20 %
292 13-09-2019 00:34:17 15.1 C 20 %
293 13-09-2019 00:44:17 15.4 C 20 %
294 13-09-2019 00:54:17 15.4 C 20 %
295 13-09-2019 01:04:17 15.3 C 20 %
296 13-09-2019 01:14:17 15.5 C 20 %
297 13-09-2019 01:24:17 15.6 C 20 %
298 13-09-2019 01:34:17 15.4 C 20 %
299 13-09-2019 01:44:17 15.5 C 20 %
300 13-09-2019 01:54:18 15.1 C 20 %
Sensor: Nr:Datum:Temp:Feuchte:
Aussen-T/F 301 13-09-2019 02:04:17 15 C 20 %
302 13-09-2019 02:14:17 15.5 C 20 %
303 13-09-2019 02:24:17 15.1 C 20 %
304 13-09-2019 02:34:17 15 C 20 %
305 13-09-2019 02:44:18 14.9 C 20 %
306 13-09-2019 02:54:17 14.7 C 20 %
307 13-09-2019 03:04:17 14.7 C 20 %
308 13-09-2019 03:14:17 14.6 C 20 %
309 13-09-2019 03:24:17 15 C 20 %
310 13-09-2019 03:34:17 15.2 C 20 %
311 13-09-2019 03:44:17 15.4 C 20 %
312 13-09-2019 03:54:17 15.5 C 20 %
313 13-09-2019 04:04:17 15.6 C 20 %
314 13-09-2019 04:14:17 15.8 C 20 %
315 13-09-2019 04:24:17 15.6 C 20 %
316 13-09-2019 04:34:17 15.9 C 20 %
317 13-09-2019 04:44:17 15.9 C 20 %
318 13-09-2019 04:54:18 15.9 C 20 %
319 13-09-2019 05:04:17 16.3 C 20 %
320 13-09-2019 05:14:17 16.4 C 20 %
321 13-09-2019 05:24:17 16.4 C 20 %
322 13-09-2019 05:34:17 16.3 C 20 %
323 13-09-2019 05:44:17 16.1 C 20 %
324 13-09-2019 05:54:17 16.1 C 20 %
325 13-09-2019 06:04:17 16.1 C 20 %
Sensor: Nr:Datum:Temp:Feuchte:
Aussen-T/F 326 13-09-2019 06:14:17 16.1 C 20 %
327 13-09-2019 06:24:17 16.1 C 20 %
328 13-09-2019 06:34:17 16.3 C 20 %
329 13-09-2019 06:44:17 16.5 C 20 %
330 13-09-2019 06:54:18 16.6 C 20 %
331 13-09-2019 07:04:17 16.4 C 20 %
332 13-09-2019 07:14:17 16.4 C 20 %
333 13-09-2019 07:24:17 16.4 C 20 %
334 13-09-2019 07:34:17 16.6 C 20 %
335 13-09-2019 07:44:18 16.6 C 20 %
336 13-09-2019 07:54:17 16.7 C 20 %
337 13-09-2019 08:04:17 16.8 C 20 %
338 13-09-2019 08:14:17 16.9 C 20 %
339 13-09-2019 08:24:17 17.1 C 20 %
340 13-09-2019 08:34:17 17 C 20 %
341 13-09-2019 08:44:17 16.7 C 20 %
342 13-09-2019 08:54:18 17.2 C 20 %
343 13-09-2019 09:04:17 17.2 C 20 %
344 13-09-2019 09:14:17 17.5 C 20 %
345 13-09-2019 09:24:17 17.6 C 20 %
346 13-09-2019 09:34:17 18.5 C 20 %
347 13-09-2019 09:44:17 18.5 C 20 %
348 13-09-2019 09:54:17 18.9 C 20 %
349 13-09-2019 10:04:18 18.7 C 20 %
350 13-09-2019 10:14:18 19.2 C 20 %
Sensor: Nr:Datum:Temp:Feuchte:
Aussen-T/F 351 13-09-2019 10:24:17 19.5 C 20 %
352 13-09-2019 10:34:18 19.6 C 20 %
353 13-09-2019 10:44:18 20.1 C 20 %
354 13-09-2019 10:54:17 20.2 C 20 %
355 13-09-2019 11:04:17 20.5 C 20 %
356 13-09-2019 11:14:17 20.5 C 20 %
357 13-09-2019 11:24:17 20.4 C 20 %
358 13-09-2019 11:34:17 19.8 C 20 %
359 13-09-2019 11:44:17 20.1 C 20 %
360 13-09-2019 11:54:17 20.3 C 20 %
361 13-09-2019 12:04:17 22.1 C 20 %
362 13-09-2019 12:14:17 22.5 C 20 %
363 13-09-2019 12:24:17 22.5 C 20 %
364 13-09-2019 12:34:17 22.2 C 20 %
365 13-09-2019 12:44:17 22.3 C 20 %
366 13-09-2019 12:54:17 21.9 C 20 %
367 13-09-2019 13:04:17 21.2 C 20 %
368 13-09-2019 13:14:17 21.7 C 20 %
369 13-09-2019 13:24:17 21.5 C 20 %
370 13-09-2019 13:34:17 21.6 C 20 %
371 13-09-2019 13:44:17 21.4 C 20 %
372 13-09-2019 13:54:18 21.9 C 20 %
373 13-09-2019 14:04:17 22.6 C 20 %
374 13-09-2019 14:14:17 21.9 C 20 %
375 13-09-2019 14:24:17 21.8 C 20 %
Sensor: Nr:Datum:Temp:Feuchte:
Aussen-T/F 376 13-09-2019 14:34:17 21.8 C 20 %
377 13-09-2019 14:44:17 22.5 C 20 %
378 13-09-2019 14:54:17 21.5 C 20 %
379 13-09-2019 15:04:17 21.2 C 20 %
380 13-09-2019 15:14:17 22.3 C 20 %
381 13-09-2019 15:24:17 22.4 C 20 %
382 13-09-2019 15:34:17 21.7 C 20 %
383 13-09-2019 15:44:17 21.5 C 20 %
384 13-09-2019 15:54:17 20.6 C 20 %
385 13-09-2019 16:04:17 20.2 C 20 %
386 13-09-2019 16:14:17 18.9 C 20 %
387 13-09-2019 16:24:18 18.5 C 20 %
388 13-09-2019 16:34:17 19.1 C 20 %
389 13-09-2019 16:44:17 19.1 C 20 %
390 13-09-2019 16:54:18 19.1 C 20 %
391 13-09-2019 17:04:17 19.1 C 20 %
392 13-09-2019 17:14:17 19.2 C 20 %
393 13-09-2019 17:24:17 19.6 C 20 %
394 13-09-2019 17:34:17 19.6 C 20 %
395 13-09-2019 17:44:17 20.1 C 20 %
396 13-09-2019 17:54:17 19.9 C 20 %
397 13-09-2019 18:04:17 19.9 C 20 %
398 13-09-2019 18:14:17 19.9 C 20 %
399 13-09-2019 18:24:17 20 C 20 %
400 13-09-2019 18:34:17 20 C 20 %
Sensor: Nr:Datum:Temp:Feuchte:
Aussen-T/F 401 13-09-2019 18:44:17 19.8 C 20 %
402 13-09-2019 18:54:17 20 C 20 %
403 13-09-2019 19:04:17 19.2 C 20 %
404 13-09-2019 19:14:17 18.5 C 20 %
405 13-09-2019 19:24:17 17.9 C 20 %
406 13-09-2019 19:34:17 17.7 C 20 %
407 13-09-2019 19:44:17 17.5 C 20 %
408 13-09-2019 19:54:18 17.2 C 20 %
409 13-09-2019 20:04:17 17.2 C 20 %
410 13-09-2019 20:14:17 17.3 C 20 %
411 13-09-2019 20:24:17 17.5 C 20 %
412 13-09-2019 20:34:17 17.3 C 20 %
413 13-09-2019 20:44:17 16.9 C 20 %
414 13-09-2019 20:54:18 16.7 C 20 %
415 13-09-2019 21:04:17 16.6 C 20 %
416 13-09-2019 21:14:17 16.8 C 20 %
417 13-09-2019 21:24:17 16.7 C 20 %
418 13-09-2019 21:34:17 16.4 C 20 %
419 13-09-2019 21:44:17 16.3 C 20 %
420 13-09-2019 21:54:18 16.1 C 20 %
421 13-09-2019 22:04:17 16.2 C 20 %
422 13-09-2019 22:14:17 16 C 20 %
423 13-09-2019 22:24:18 15.8 C 20 %
424 13-09-2019 22:34:17 15.5 C 20 %
425 13-09-2019 22:44:17 15.3 C 21 %
Sensor: Nr:Datum:Temp:Feuchte:
Aussen-T/F 426 13-09-2019 22:54:17 15.2 C 21 %
427 13-09-2019 23:04:17 14.8 C 21 %
428 13-09-2019 23:14:17 14.8 C 22 %
429 13-09-2019 23:24:18 14.6 C 22 %
430 13-09-2019 23:34:17 14.8 C 23 %
431 13-09-2019 23:44:17 15.3 C 23 %
432 13-09-2019 23:54:17 15.2 C 23 %
433 14-09-2019 00:04:17 15.2 C 22 %
434 14-09-2019 00:14:17 15 C 22 %
435 14-09-2019 00:24:17 15 C 22 %
436 14-09-2019 00:34:17 14.7 C 23 %
437 14-09-2019 00:44:17 14.6 C 23 %
438 14-09-2019 00:54:17 14.5 C 23 %
439 14-09-2019 01:04:17 14.4 C 24 %
440 14-09-2019 01:14:17 14.1 C 23 %
441 14-09-2019 01:24:17 14 C 23 %
442 14-09-2019 01:34:17 13.7 C 24 %
443 14-09-2019 01:44:17 13.5 C 23 %
444 14-09-2019 01:54:18 13.4 C 25 %
445 14-09-2019 02:04:17 13 C 23 %
446 14-09-2019 02:14:17 12.9 C 25 %
447 14-09-2019 02:24:17 12.9 C 25 %
448 14-09-2019 02:34:18 12.6 C 25 %
449 14-09-2019 02:44:18 12.4 C 25 %
450 14-09-2019 02:54:17 12.2 C 25 %
Sensor: Nr:Datum:Temp:Feuchte:
Aussen-T/F 451 14-09-2019 03:04:17 12.2 C 25 %
452 14-09-2019 03:14:17 12.2 C 26 %
453 14-09-2019 03:24:18 12 C 25 %
454 14-09-2019 03:34:17 11.8 C 26 %
455 14-09-2019 03:44:17 11.7 C 26 %
456 14-09-2019 03:54:17 11.7 C 26 %
457 14-09-2019 04:04:17 11.3 C 26 %
458 14-09-2019 04:14:17 11.5 C 27 %
459 14-09-2019 04:24:17 11.3 C 26 %
460 14-09-2019 04:34:17 11.2 C 27 %
461 14-09-2019 04:44:17 11.1 C 26 %
462 14-09-2019 04:54:17 11 C 26 %
463 14-09-2019 05:04:17 10.7 C 26 %
464 14-09-2019 05:14:17 10.8 C 27 %
465 14-09-2019 05:24:17 10.6 C 27 %
466 14-09-2019 05:34:17 10.6 C 27 %
467 14-09-2019 05:44:17 10.4 C 26 %
468 14-09-2019 05:54:18 10.4 C 27 %
469 14-09-2019 06:04:17 10.4 C 27 %
470 14-09-2019 06:14:18 10.5 C 27 %
471 14-09-2019 06:24:17 10.3 C 26 %
472 14-09-2019 06:34:17 10.1 C 26 %
473 14-09-2019 06:44:17 9.8 C 26 %
474 14-09-2019 06:54:17 9.8 C 27 %
475 14-09-2019 07:04:18 9.7 C 27 %
Sensor: Nr:Datum:Temp:Feuchte:
Aussen-T/F 476 14-09-2019 07:14:18 9.7 C 28 %
477 14-09-2019 07:24:17 9.6 C 27 %
478 14-09-2019 07:34:18 9.7 C 28 %
479 14-09-2019 07:44:18 10.1 C 28 %
480 14-09-2019 07:54:17 9.9 C 28 %
481 14-09-2019 08:04:18 9.8 C 27 %
482 14-09-2019 08:14:18 9.8 C 27 %
483 14-09-2019 08:24:17 10.1 C 27 %
484 14-09-2019 08:34:18 10.1 C 26 %
485 14-09-2019 08:44:18 10.1 C 26 %
486 14-09-2019 08:54:17 10.3 C 27 %
487 14-09-2019 09:04:18 10.3 C 26 %
488 14-09-2019 09:14:18 10.6 C 26 %
489 14-09-2019 09:24:17 10.7 C 26 %
490 14-09-2019 09:34:18 10.9 C 26 %
491 14-09-2019 09:44:18 11.2 C 25 %
492 14-09-2019 09:54:17 11.6 C 25 %
493 14-09-2019 10:04:18 11.7 C 25 %
494 14-09-2019 10:14:18 12 C 25 %
495 14-09-2019 10:24:17 12.2 C 24 %
496 14-09-2019 10:34:18 12.6 C 21 %
497 14-09-2019 10:44:18 13 C 20 %
498 14-09-2019 10:54:17 13.3 C 20 %
499 14-09-2019 11:04:18 13.5 C 20 %
500 14-09-2019 11:14:18 13.8 C 20 %
Sensor: Nr:Datum:Temp:Feuchte:
Aussen-T/F 501 14-09-2019 11:24:17 14 C 20 %
502 14-09-2019 11:34:17 14.2 C 20 %
503 14-09-2019 11:44:17 14.6 C 20 %
504 14-09-2019 11:54:17 14.7 C 20 %
505 14-09-2019 12:04:17 15 C 20 %
506 14-09-2019 12:14:17 15.5 C 20 %
507 14-09-2019 12:24:17 16.2 C 20 %
508 14-09-2019 12:34:17 16.7 C 20 %
509 14-09-2019 12:44:17 16.6 C 20 %
510 14-09-2019 12:54:18 16.7 C 20 %
511 14-09-2019 13:04:17 17.1 C 20 %
512 14-09-2019 13:14:17 17.5 C 20 %
513 14-09-2019 13:24:17 17.9 C 20 %
514 14-09-2019 13:34:17 18.4 C 20 %
515 14-09-2019 13:44:17 18.7 C 20 %
516 14-09-2019 13:54:18 19.4 C 20 %
517 14-09-2019 14:04:17 19.7 C 20 %
518 14-09-2019 14:14:17 21.2 C 20 %
519 14-09-2019 14:24:17 22.3 C 20 %
520 14-09-2019 14:34:17 25 C 20 %
521 14-09-2019 14:44:17 25.7 C 20 %
522 14-09-2019 14:54:18 25 C 20 %
523 14-09-2019 15:04:17 26.5 C 20 %
524 14-09-2019 15:14:17 26.8 C 20 %
525 14-09-2019 15:24:17 28.6 C 20 %
Sensor: Nr:Datum:Temp:Feuchte:
Aussen-T/F 526 14-09-2019 15:34:17 30.8 C 20 %
527 14-09-2019 15:44:17 28.8 C 20 %
528 14-09-2019 15:54:17 29.8 C 20 %
529 14-09-2019 16:04:17 30 C 20 %
530 14-09-2019 16:14:17 29.2 C 20 %
531 14-09-2019 16:24:17 28.9 C 20 %
532 14-09-2019 16:34:17 28.4 C 20 %
533 14-09-2019 16:44:17 30.5 C 20 %
534 14-09-2019 16:54:17 30.5 C 20 %
535 14-09-2019 17:04:17 30.8 C 20 %
536 14-09-2019 17:14:17 29.5 C 20 %
537 14-09-2019 17:24:17 27.8 C 20 %
538 14-09-2019 17:34:17 27.6 C 20 %
539 14-09-2019 17:44:18 25.4 C 20 %
540 14-09-2019 17:54:17 24.2 C 20 %
541 14-09-2019 18:04:18 24 C 20 %
542 14-09-2019 18:14:18 23.1 C 20 %
543 14-09-2019 18:24:17 22.5 C 20 %
544 14-09-2019 18:34:17 21.8 C 20 %
545 14-09-2019 18:44:17 21.1 C 20 %
546 14-09-2019 18:54:17 20.5 C 20 %
547 14-09-2019 19:04:18 19.8 C 20 %
548 14-09-2019 19:14:18 19.3 C 20 %
549 14-09-2019 19:24:17 18.6 C 20 %
550 14-09-2019 19:34:17 17.8 C 20 %
Sensor: Nr:Datum:Temp:Feuchte:
Aussen-T/F 551 14-09-2019 19:44:17 17.6 C 20 %
552 14-09-2019 19:54:17 17.2 C 20 %
553 14-09-2019 20:04:18 16.6 C 20 %
554 14-09-2019 20:14:18 16.6 C 20 %
555 14-09-2019 20:24:17 16.5 C 20 %
556 14-09-2019 20:34:18 16.2 C 20 %
557 14-09-2019 20:44:18 16 C 20 %
558 14-09-2019 20:54:17 16 C 20 %
559 14-09-2019 21:04:18 15.9 C 20 %
560 14-09-2019 21:14:18 15.5 C 20 %
561 14-09-2019 21:24:17 15.3 C 20 %
562 14-09-2019 21:34:18 14.8 C 20 %
563 14-09-2019 21:44:18 14.4 C 20 %
564 14-09-2019 21:54:17 14 C 20 %
565 14-09-2019 22:04:17 13.5 C 20 %
566 14-09-2019 22:14:17 13.1 C 20 %
567 14-09-2019 22:24:18 13.1 C 20 %
568 14-09-2019 22:34:17 12.9 C 20 %
569 14-09-2019 22:44:17 12.9 C 20 %
570 14-09-2019 22:54:17 12.4 C 20 %
571 14-09-2019 23:04:17 12.1 C 20 %
572 14-09-2019 23:14:17 12.2 C 20 %
573 14-09-2019 23:24:17 12 C 20 %
574 14-09-2019 23:34:18 12 C 20 %
575 14-09-2019 23:44:18 11.7 C 20 %
Sensor: Nr:Datum:Temp:Feuchte:
Aussen-T/F 576 14-09-2019 23:54:17 11.4 C 20 %
577 15-09-2019 00:04:17 11.2 C 20 %
578 15-09-2019 00:14:17 11.1 C 20 %
579 15-09-2019 00:24:18 10.9 C 20 %
580 15-09-2019 00:34:17 11 C 20 %
581 15-09-2019 00:44:17 10.8 C 20 %
582 15-09-2019 00:54:17 10.6 C 20 %
583 15-09-2019 01:04:17 10.4 C 20 %
584 15-09-2019 01:14:17 10.2 C 20 %
585 15-09-2019 01:24:17 10.3 C 20 %
586 15-09-2019 01:34:17 10.3 C 20 %
587 15-09-2019 01:44:18 10 C 20 %
588 15-09-2019 01:54:17 9.8 C 20 %
589 15-09-2019 02:04:17 9.9 C 20 %
590 15-09-2019 02:14:17 10.1 C 20 %
591 15-09-2019 02:24:17 10.1 C 20 %
592 15-09-2019 02:34:17 10 C 20 %
593 15-09-2019 02:44:17 9.7 C 20 %
594 15-09-2019 02:54:18 9.6 C 20 %
595 15-09-2019 03:04:17 9.6 C 20 %
596 15-09-2019 03:14:17 9.9 C 20 %
597 15-09-2019 03:24:17 9.7 C 20 %
598 15-09-2019 03:34:17 9.4 C 20 %
599 15-09-2019 03:44:17 9.7 C 25 %
600 15-09-2019 03:54:17 9.4 C 20 %
Sensor: Nr:Datum:Temp:Feuchte:
Aussen-T/F 601 15-09-2019 04:04:17 9.5 C 21 %
602 15-09-2019 04:14:17 9.4 C 21 %
603 15-09-2019 04:24:17 9.4 C 21 %
604 15-09-2019 04:34:17 9.5 C 21 %
605 15-09-2019 04:44:17 9 C 21 %
606 15-09-2019 04:54:17 9 C 21 %
607 15-09-2019 05:04:17 8.9 C 23 %
608 15-09-2019 05:14:17 8.9 C 25 %
609 15-09-2019 05:24:17 8.7 C 25 %
610 15-09-2019 05:34:17 8.9 C 25 %
611 15-09-2019 05:44:18 8.7 C 25 %
612 15-09-2019 05:54:17 8.5 C 25 %
613 15-09-2019 06:04:17 8.8 C 25 %
614 15-09-2019 06:14:17 8.4 C 25 %
615 15-09-2019 06:24:17 8.1 C 25 %
616 15-09-2019 06:34:18 8 C 25 %
617 15-09-2019 06:44:18 8 C 26 %
618 15-09-2019 06:54:17 8.1 C 26 %
619 15-09-2019 07:04:17 8.1 C 26 %
620 15-09-2019 07:14:17 8.4 C 26 %
621 15-09-2019 07:24:18 8.4 C 26 %
622 15-09-2019 07:34:17 8.5 C 26 %
623 15-09-2019 07:44:17 8.5 C 26 %
624 15-09-2019 07:54:17 8.5 C 26 %
625 15-09-2019 08:04:17 8.6 C 26 %
Sensor: Nr:Datum:Temp:Feuchte:
Aussen-T/F 626 15-09-2019 08:14:17 8.9 C 26 %
627 15-09-2019 08:24:18 8.9 C 26 %
628 15-09-2019 08:34:17 9.1 C 25 %
629 15-09-2019 08:44:17 9.3 C 25 %
630 15-09-2019 08:54:17 9.3 C 25 %
631 15-09-2019 09:04:17 9.3 C 25 %
632 15-09-2019 09:14:17 9.8 C 25 %
633 15-09-2019 09:24:17 9.8 C 25 %
634 15-09-2019 09:34:17 10.1 C 23 %
635 15-09-2019 09:44:17 10.2 C 23 %
636 15-09-2019 09:54:17 10.3 C 25 %
637 15-09-2019 10:04:18 10.5 C 25 %
638 15-09-2019 10:14:18 10.7 C 25 %
639 15-09-2019 10:24:17 11.3 C 24 %
640 15-09-2019 10:34:18 11.8 C 23 %
641 15-09-2019 10:44:18 12 C 21 %
642 15-09-2019 10:54:17 12.9 C 20 %
643 15-09-2019 11:04:18 13.3 C 20 %
644 15-09-2019 11:14:18 13.9 C 20 %
645 15-09-2019 11:24:17 14.2 C 20 %
646 15-09-2019 11:34:18 14.5 C 20 %
647 15-09-2019 11:44:18 15 C 20 %
648 15-09-2019 11:54:17 15.4 C 20 %
649 15-09-2019 12:04:18 15.8 C 20 %
650 15-09-2019 12:14:18 16.3 C 20 %
Sensor: Nr:Datum:Temp:Feuchte:
Aussen-T/F 651 15-09-2019 12:24:17 16.8 C 20 %
652 15-09-2019 12:34:17 17.2 C 20 %
653 15-09-2019 12:44:17 18.3 C 20 %
654 15-09-2019 12:54:17 18.9 C 20 %
655 15-09-2019 13:04:17 19.7 C 20 %
656 15-09-2019 13:14:17 19.9 C 20 %
657 15-09-2019 13:24:18 20.4 C 20 %
658 15-09-2019 13:34:17 20.8 C 20 %
659 15-09-2019 13:44:17 21.3 C 20 %
660 15-09-2019 13:54:17 21.9 C 20 %
661 15-09-2019 14:04:17 22.4 C 20 %
662 15-09-2019 14:14:17 25 C 20 %
663 15-09-2019 14:24:17 24.6 C 20 %
664 15-09-2019 14:34:17 27 C 20 %
665 15-09-2019 14:44:17 27.8 C 20 %
666 15-09-2019 14:54:17 27.5 C 20 %
667 15-09-2019 15:04:17 29.2 C 20 %
668 15-09-2019 15:14:17 28.3 C 20 %
669 15-09-2019 15:24:17 31.4 C 20 %
670 15-09-2019 15:34:17 30.1 C 20 %
671 15-09-2019 15:44:17 31.6 C 20 %
672 15-09-2019 15:54:17 29.5 C 20 %
673 15-09-2019 16:04:18 31.8 C 20 %
674 15-09-2019 16:14:18 28.8 C 20 %
675 15-09-2019 16:24:17 28.1 C 20 %
Sensor: Nr:Datum:Temp:Feuchte:
Aussen-T/F 676 15-09-2019 16:34:17 28.7 C 20 %
677 15-09-2019 16:44:17 29.3 C 20 %
678 15-09-2019 16:54:17 29.4 C 20 %
679 15-09-2019 17:04:18 30.1 C 20 %
680 15-09-2019 17:14:18 30.1 C 20 %
681 15-09-2019 17:24:17 28.8 C 20 %
682 15-09-2019 17:34:18 29.3 C 20 %
683 15-09-2019 17:44:18 27 C 20 %
684 15-09-2019 17:54:17 26.2 C 20 %
685 15-09-2019 18:04:17 26.1 C 20 %
686 15-09-2019 18:14:17 25.5 C 20 %
687 15-09-2019 18:24:17 24.9 C 20 %
688 15-09-2019 18:34:17 24.8 C 20 %
689 15-09-2019 18:44:17 23.8 C 20 %
690 15-09-2019 18:54:18 23.3 C 20 %
691 15-09-2019 19:04:17 22.6 C 20 %
692 15-09-2019 19:14:17 21.3 C 20 %
693 15-09-2019 19:24:17 19.9 C 20 %
694 15-09-2019 19:34:17 19.1 C 20 %
695 15-09-2019 19:44:17 18.8 C 20 %
696 15-09-2019 19:54:18 18.6 C 20 %
697 15-09-2019 20:04:17 18.2 C 20 %
698 15-09-2019 20:14:17 17.7 C 20 %
699 15-09-2019 20:24:17 17.6 C 20 %
700 15-09-2019 20:34:18 17.4 C 20 %
Sensor: Nr:Datum:Temp:Feuchte:
Aussen-T/F 701 15-09-2019 20:44:18 17.2 C 20 %
702 15-09-2019 20:54:17 17.1 C 20 %
703 15-09-2019 21:04:17 16.8 C 20 %
704 15-09-2019 21:14:18 16.3 C 20 %
705 15-09-2019 21:24:17 16.2 C 20 %
706 15-09-2019 21:34:17 15.6 C 20 %
707 15-09-2019 21:44:17 15.4 C 20 %
708 15-09-2019 21:54:17 14.7 C 20 %
709 15-09-2019 22:04:18 14.4 C 20 %
710 15-09-2019 22:14:18 13.9 C 20 %
711 15-09-2019 22:24:17 13.7 C 20 %
712 15-09-2019 22:34:18 13.6 C 20 %
713 15-09-2019 22:44:18 13.4 C 20 %
714 15-09-2019 22:54:17 12.8 C 20 %
715 15-09-2019 23:04:18 12.5 C 20 %
716 15-09-2019 23:14:18 12.3 C 20 %
717 15-09-2019 23:24:17 12.4 C 20 %
718 15-09-2019 23:34:18 12.1 C 20 %
719 15-09-2019 23:44:18 12 C 20 %
720 15-09-2019 23:54:17 12.3 C 20 %
721 16-09-2019 00:04:18 12.4 C 20 %
722 16-09-2019 00:14:18 12.3 C 20 %
723 16-09-2019 00:24:17 12.2 C 20 %
724 16-09-2019 00:34:18 12.1 C 20 %
725 16-09-2019 00:44:18 11.9 C 20 %
Sensor: Nr:Datum:Temp:Feuchte:
Aussen-T/F 726 16-09-2019 00:54:17 12 C 20 %
727 16-09-2019 01:04:18 12.1 C 20 %
728 16-09-2019 01:14:18 12.2 C 20 %
729 16-09-2019 01:24:17 12 C 20 %
730 16-09-2019 01:34:18 11.8 C 20 %
731 16-09-2019 01:44:18 11.6 C 20 %
732 16-09-2019 01:54:17 11.3 C 20 %
733 16-09-2019 02:04:18 11.1 C 20 %
734 16-09-2019 02:14:18 11.2 C 20 %
735 16-09-2019 02:24:17 11.2 C 20 %
736 16-09-2019 02:34:17 10.9 C 20 %
737 16-09-2019 02:44:17 11 C 20 %
738 16-09-2019 02:54:17 11 C 20 %
739 16-09-2019 03:04:17 10.7 C 20 %
740 16-09-2019 03:14:17 10.4 C 20 %
741 16-09-2019 03:24:17 10.9 C 20 %
742 16-09-2019 03:34:17 10.8 C 20 %
743 16-09-2019 03:44:17 10.8 C 20 %
744 16-09-2019 03:54:17 11.3 C 20 %
745 16-09-2019 04:04:17 11.3 C 20 %
746 16-09-2019 04:14:17 11.4 C 20 %
747 16-09-2019 04:24:18 11.5 C 20 %
748 16-09-2019 04:34:17 11.6 C 20 %
749 16-09-2019 04:44:17 11.5 C 20 %
750 16-09-2019 04:54:17 11.6 C 20 %
Sensor: Nr:Datum:Temp:Feuchte:
Aussen-T/F 751 16-09-2019 05:04:18 11.5 C 20 %
752 16-09-2019 05:14:18 11.2 C 20 %
753 16-09-2019 05:24:17 11.1 C 20 %
754 16-09-2019 05:34:17 11.1 C 20 %
755 16-09-2019 05:44:17 10.9 C 20 %
756 16-09-2019 05:54:17 11.2 C 20 %
757 16-09-2019 06:04:17 11 C 20 %
758 16-09-2019 06:14:18 11.1 C 20 %
759 16-09-2019 06:24:18 11.1 C 20 %
760 16-09-2019 06:34:17 10.9 C 20 %
761 16-09-2019 06:44:17 10.9 C 20 %
762 16-09-2019 06:54:17 11.2 C 20 %
763 16-09-2019 07:04:17 11.1 C 20 %
764 16-09-2019 07:14:17 11.1 C 20 %
765 16-09-2019 07:24:17 11.3 C 20 %
766 16-09-2019 07:34:17 11.4 C 20 %
767 16-09-2019 07:44:17 11.5 C 20 %
768 16-09-2019 07:54:18 11.6 C 20 %
769 16-09-2019 08:04:17 11.8 C 20 %
770 16-09-2019 08:14:17 12.2 C 20 %
771 16-09-2019 08:24:17 12.4 C 20 %
772 16-09-2019 08:34:17 12.7 C 20 %
773 16-09-2019 08:44:17 13 C 20 %
774 16-09-2019 08:54:17 12.9 C 20 %
775 16-09-2019 09:04:17 13.2 C 20 %
Sensor: Nr:Datum:Temp:Feuchte:
Aussen-T/F 776 16-09-2019 09:14:17 13.2 C 20 %
777 16-09-2019 09:24:18 13.6 C 20 %
778 16-09-2019 09:34:17 14.5 C 20 %
779 16-09-2019 09:44:17 14.5 C 20 %
780 16-09-2019 09:54:18 15.2 C 20 %
781 16-09-2019 10:04:17 15 C 20 %
782 16-09-2019 10:14:17 15.4 C 20 %
783 16-09-2019 10:24:17 16 C 20 %
784 16-09-2019 10:34:17 16.6 C 20 %
785 16-09-2019 10:44:17 16.8 C 20 %
786 16-09-2019 10:54:18 16.9 C 20 %
787 16-09-2019 11:04:17 17.5 C 20 %
788 16-09-2019 11:14:17 18.3 C 20 %
789 16-09-2019 11:24:18 18.8 C 20 %
790 16-09-2019 11:34:17 19.1 C 20 %
791 16-09-2019 11:44:17 20.1 C 20 %
792 16-09-2019 11:54:17 20.2 C 20 %
793 16-09-2019 12:04:17 20.3 C 20 %
794 16-09-2019 12:14:17 20.8 C 20 %
795 16-09-2019 12:24:17 20.8 C 20 %
796 16-09-2019 12:34:17 20.7 C 20 %
797 16-09-2019 12:44:17 20.8 C 20 %
798 16-09-2019 12:54:17 21.6 C 20 %
799 16-09-2019 13:04:17 21.6 C 20 %
800 16-09-2019 13:14:17 21.8 C 20 %
Sensor: Nr:Datum:Temp:Feuchte:
Aussen-T/F 801 16-09-2019 13:24:17 22 C 20 %
802 16-09-2019 13:34:17 23.3 C 20 %
803 16-09-2019 13:44:17 22.5 C 20 %
804 16-09-2019 13:54:17 22.5 C 20 %
805 16-09-2019 14:04:17 23.1 C 20 %
806 16-09-2019 14:14:17 23.1 C 20 %
807 16-09-2019 14:24:17 22.9 C 20 %
808 16-09-2019 14:34:18 23.1 C 20 %
809 16-09-2019 14:44:18 22.5 C 20 %
810 16-09-2019 14:54:17 22.5 C 20 %
811 16-09-2019 15:04:17 22.9 C 20 %
812 16-09-2019 15:14:18 22.4 C 20 %
813 16-09-2019 15:24:17 22.5 C 20 %
814 16-09-2019 15:34:18 22.2 C 20 %
815 16-09-2019 15:44:18 22.3 C 20 %
816 16-09-2019 15:54:17 22.4 C 20 %
817 16-09-2019 16:04:18 22.5 C 20 %
818 16-09-2019 16:14:18 22.6 C 20 %
819 16-09-2019 16:24:17 22.5 C 20 %
820 16-09-2019 16:34:18 22.8 C 20 %
821 16-09-2019 16:44:18 22.8 C 20 %
822 16-09-2019 16:54:17 22.8 C 20 %
823 16-09-2019 17:04:17 22.6 C 20 %
824 16-09-2019 17:14:18 22.3 C 20 %
825 16-09-2019 17:24:17 22.2 C 20 %
Sensor: Nr:Datum:Temp:Feuchte:
Aussen-T/F 826 16-09-2019 17:34:17 21.8 C 20 %
827 16-09-2019 17:44:17 21.6 C 20 %
828 16-09-2019 17:54:17 21.1 C 20 %
829 16-09-2019 18:04:18 20.9 C 20 %
830 16-09-2019 18:14:18 20.8 C 20 %
831 16-09-2019 18:24:17 20.7 C 20 %
832 16-09-2019 18:34:18 20.4 C 20 %
833 16-09-2019 18:44:18 20.2 C 20 %
834 16-09-2019 18:54:17 20 C 20 %
835 16-09-2019 19:04:17 19.9 C 20 %
836 16-09-2019 19:14:17 20 C 20 %
837 16-09-2019 19:24:17 19.5 C 20 %
838 16-09-2019 19:34:18 19.1 C 20 %
839 16-09-2019 19:44:18 18.1 C 20 %
840 16-09-2019 19:54:17 17.6 C 20 %
841 16-09-2019 20:04:18 17.1 C 20 %
842 16-09-2019 20:14:18 16.5 C 20 %
843 16-09-2019 20:24:17 16.5 C 20 %
844 16-09-2019 20:34:17 16.5 C 20 %
845 16-09-2019 20:44:17 16.3 C 20 %
846 16-09-2019 20:54:17 16.3 C 20 %
847 16-09-2019 21:04:17 16.5 C 20 %
848 16-09-2019 21:14:17 16.4 C 20 %
849 16-09-2019 21:24:18 16.5 C 20 %
850 16-09-2019 21:34:17 16.5 C 20 %
Sensor: Nr:Datum:Temp:Feuchte:
Aussen-T/F 851 16-09-2019 21:44:17 16.5 C 20 %
852 16-09-2019 21:54:18 16.4 C 20 %
853 16-09-2019 22:04:17 16.4 C 20 %
854 16-09-2019 22:14:17 16.4 C 20 %
855 16-09-2019 22:24:18 16.3 C 20 %
856 16-09-2019 22:34:17 16.3 C 20 %
857 16-09-2019 22:44:17 16 C 20 %
858 16-09-2019 22:54:17 15.4 C 20 %
859 16-09-2019 23:04:18 15.1 C 20 %
860 16-09-2019 23:14:18 14.8 C 20 %
861 16-09-2019 23:24:17 14.9 C 20 %
862 16-09-2019 23:34:17 14.8 C 20 %
863 16-09-2019 23:44:17 14.9 C 20 %
864 16-09-2019 23:54:17 14.9 C 20 %
865 17-09-2019 00:04:18 14.7 C 20 %
866 17-09-2019 00:14:18 14.8 C 20 %
867 17-09-2019 00:24:17 14.9 C 20 %
868 17-09-2019 00:34:17 14.8 C 20 %
869 17-09-2019 00:44:17 14.8 C 20 %
870 17-09-2019 00:54:17 14.7 C 20 %
871 17-09-2019 01:04:18 14.5 C 20 %
872 17-09-2019 01:14:18 14.6 C 20 %
873 17-09-2019 01:24:17 14.6 C 20 %
874 17-09-2019 01:34:18 14.6 C 20 %
875 17-09-2019 01:44:18 14.6 C 20 %
Sensor: Nr:Datum:Temp:Feuchte:
Aussen-T/F 876 17-09-2019 01:54:17 14.6 C 20 %
877 17-09-2019 02:04:17 14.5 C 20 %
878 17-09-2019 02:14:17 14.5 C 20 %
879 17-09-2019 02:24:17 14.5 C 20 %
880 17-09-2019 02:34:18 14.4 C 20 %
881 17-09-2019 02:44:18 14.4 C 20 %
882 17-09-2019 02:54:17 14.4 C 20 %
883 17-09-2019 03:04:18 14.4 C 20 %
884 17-09-2019 03:14:18 14.4 C 20 %
885 17-09-2019 03:24:17 14.3 C 20 %
886 17-09-2019 03:34:17 14.3 C 20 %
887 17-09-2019 03:44:17 14.3 C 20 %
888 17-09-2019 03:54:17 14.3 C 20 %
889 17-09-2019 04:04:17 14.1 C 20 %
890 17-09-2019 04:14:17 14.1 C 20 %
891 17-09-2019 04:24:17 14.1 C 20 %
892 17-09-2019 04:34:17 14.1 C 20 %
893 17-09-2019 04:44:17 14.1 C 20 %
894 17-09-2019 04:54:17 14.1 C 20 %
895 17-09-2019 05:04:18 14 C 20 %
896 17-09-2019 05:14:18 14 C 20 %
897 17-09-2019 05:24:17 14 C 20 %
898 17-09-2019 05:34:18 14 C 20 %
899 17-09-2019 05:44:18 14 C 20 %
900 17-09-2019 05:54:17 14 C 20 %
Sensor: Nr:Datum:Temp:Feuchte:
Aussen-T/F 901 17-09-2019 06:04:17 14 C 20 %
902 17-09-2019 06:14:17 14 C 20 %
903 17-09-2019 06:24:17 14 C 20 %
904 17-09-2019 06:34:17 14 C 20 %
905 17-09-2019 06:44:17 13.9 C 20 %
906 17-09-2019 06:54:17 13.9 C 20 %
907 17-09-2019 07:04:17 13.8 C 20 %
908 17-09-2019 07:14:17 13.8 C 20 %
909 17-09-2019 07:24:18 13.8 C 20 %
910 17-09-2019 07:34:17 13.8 C 20 %
911 17-09-2019 07:44:17 13.9 C 20 %
912 17-09-2019 07:54:18 14 C 20 %
913 17-09-2019 08:04:17 14.1 C 20 %
914 17-09-2019 08:14:17 14 C 20 %
915 17-09-2019 08:24:17 13.7 C 20 %
916 17-09-2019 08:34:17 13.5 C 20 %
917 17-09-2019 08:44:17 13.5 C 20 %
918 17-09-2019 08:54:18 13.7 C 20 %
919 17-09-2019 09:04:17 13.9 C 20 %
920 17-09-2019 09:14:17 13.6 C 20 %
921 17-09-2019 09:24:18 13.3 C 20 %
922 17-09-2019 09:34:17 13.7 C 20 %
923 17-09-2019 09:44:17 14 C 20 %
924 17-09-2019 09:54:18 14.2 C 20 %
925 17-09-2019 10:04:17 14.2 C 20 %
Sensor: Nr:Datum:Temp:Feuchte:
Aussen-T/F 926 17-09-2019 10:14:17 15.3 C 20 %
927 17-09-2019 10:24:18 15.1 C 20 %
928 17-09-2019 10:34:17 15.2 C 20 %
929 17-09-2019 10:44:17 16 C 20 %
930 17-09-2019 10:54:18 15.9 C 20 %
931 17-09-2019 11:04:17 15.9 C 20 %
932 17-09-2019 11:14:17 16.3 C 20 %
933 17-09-2019 11:24:17 16.4 C 20 %
934 17-09-2019 11:34:18 15.7 C 20 %
935 17-09-2019 11:44:18 16.7 C 20 %
936 17-09-2019 11:54:17 16.5 C 20 %
937 17-09-2019 12:04:18 16.7 C 20 %
938 17-09-2019 12:14:18 16.3 C 20 %
939 17-09-2019 12:24:17 16.4 C 20 %
940 17-09-2019 12:34:18 16.4 C 20 %
941 17-09-2019 12:44:18 16.7 C 20 %
942 17-09-2019 12:54:17 16.9 C 20 %
943 17-09-2019 13:04:17 16.8 C 20 %
944 17-09-2019 13:14:17 17.2 C 20 %
945 17-09-2019 13:24:17 17 C 20 %
946 17-09-2019 13:34:18 17.1 C 20 %
947 17-09-2019 13:44:18 17 C 20 %
948 17-09-2019 13:54:17 17.5 C 20 %
949 17-09-2019 14:04:17 19.1 C 20 %
950 17-09-2019 14:14:17 20.7 C 20 %
Sensor: Nr:Datum:Temp:Feuchte:
Aussen-T/F 951 17-09-2019 14:24:17 18.7 C 20 %
952 17-09-2019 14:34:17 19.6 C 20 %
953 17-09-2019 14:44:17 18.5 C 20 %
954 17-09-2019 14:54:18 18.8 C 20 %
955 17-09-2019 15:04:17 19 C 20 %
956 17-09-2019 15:14:17 19.8 C 20 %
957 17-09-2019 15:24:17 21.1 C 20 %
958 17-09-2019 15:34:17 20 C 20 %
959 17-09-2019 15:44:17 22 C 20 %
960 17-09-2019 15:54:17 19 C 20 %
961 17-09-2019 16:04:18 21.6 C 20 %
962 17-09-2019 16:14:18 20.4 C 20 %
963 17-09-2019 16:24:17 22.8 C 20 %
964 17-09-2019 16:34:17 20.3 C 20 %
965 17-09-2019 16:44:17 20.2 C 20 %
966 17-09-2019 16:54:17 20.7 C 20 %
967 17-09-2019 17:04:18 20.3 C 20 %
968 17-09-2019 17:14:18 18.9 C 20 %
969 17-09-2019 17:24:17 20.1 C 20 %
970 17-09-2019 17:34:17 18.5 C 20 %
971 17-09-2019 17:44:18 18.8 C 20 %
972 17-09-2019 17:54:17 18.6 C 20 %
973 17-09-2019 18:04:17 18.6 C 20 %
974 17-09-2019 18:14:17 18.7 C 20 %
975 17-09-2019 18:24:17 18.3 C 20 %
Sensor: Nr:Datum:Temp:Feuchte:
Aussen-T/F 976 17-09-2019 18:34:17 18 C 20 %
977 17-09-2019 18:44:17 18 C 20 %
978 17-09-2019 18:54:18 17.6 C 20 %
979 17-09-2019 19:04:17 17.4 C 20 %
980 17-09-2019 19:14:17 17.2 C 20 %
981 17-09-2019 19:24:18 17 C 20 %
982 17-09-2019 19:34:17 16.9 C 20 %
983 17-09-2019 19:44:17 16.8 C 20 %
984 17-09-2019 19:54:17 16.9 C 20 %
985 17-09-2019 20:04:17 16.9 C 20 %
986 17-09-2019 20:14:17 16.9 C 20 %
987 17-09-2019 20:24:17 16.7 C 20 %
988 17-09-2019 20:34:17 16.2 C 20 %
989 17-09-2019 20:44:17 16.3 C 20 %
990 17-09-2019 20:54:17 16.4 C 20 %
991 17-09-2019 21:04:18 16.3 C 20 %
992 17-09-2019 21:14:18 16.1 C 20 %
993 17-09-2019 21:24:17 15.9 C 20 %
994 17-09-2019 21:34:18 15.7 C 20 %
995 17-09-2019 21:44:18 15.4 C 20 %
996 17-09-2019 21:54:17 15 C 20 %
997 17-09-2019 22:04:18 14.8 C 20 %
998 17-09-2019 22:14:18 14.5 C 20 %
999 17-09-2019 22:24:17 14.4 C 20 %
1000 17-09-2019 22:34:18 14.2 C 20 %
Sensor: Nr:Datum:Temp:Feuchte:
Aussen-T/F 1001 17-09-2019 22:44:18 14.1 C 20 %
1002 17-09-2019 22:54:17 13.9 C 20 %
1003 17-09-2019 23:04:18 13.8 C 20 %
1004 17-09-2019 23:14:18 13.3 C 20 %
1005 17-09-2019 23:24:17 13 C 20 %
1006 17-09-2019 23:34:18 12.6 C 20 %
1007 17-09-2019 23:44:18 12.2 C 20 %
1008 17-09-2019 23:54:17 12 C 20 %
1009 18-09-2019 00:04:18 11.5 C 20 %
1010 18-09-2019 00:14:18 11.5 C 20 %
1011 18-09-2019 00:24:17 11 C 20 %
1012 18-09-2019 00:34:18 10.3 C 20 %
1013 18-09-2019 00:44:18 10.5 C 20 %
1014 18-09-2019 00:54:17 10.8 C 20 %
1015 18-09-2019 01:04:17 10.4 C 20 %
1016 18-09-2019 01:14:17 10.4 C 20 %
1017 18-09-2019 01:24:17 10.6 C 20 %
1018 18-09-2019 01:34:17 10.2 C 20 %
1019 18-09-2019 01:44:17 9.6 C 20 %
1020 18-09-2019 01:54:17 9.2 C 20 %
1021 18-09-2019 02:04:18 8.8 C 20 %
1022 18-09-2019 02:14:18 8.9 C 20 %
1023 18-09-2019 02:24:17 8.8 C 20 %
1024 18-09-2019 02:34:18 8.3 C 20 %
1025 18-09-2019 02:44:18 8.2 C 20 %
Sensor: Nr:Datum:Temp:Feuchte:
Aussen-T/F 1026 18-09-2019 02:54:17 8.2 C 20 %
1027 18-09-2019 03:04:18 8.1 C 20 %
1028 18-09-2019 03:14:18 7.7 C 20 %
1029 18-09-2019 03:24:17 7.5 C 20 %
1030 18-09-2019 03:34:18 7.2 C 20 %
1031 18-09-2019 03:44:18 7.1 C 20 %
1032 18-09-2019 03:54:17 6.9 C 20 %
1033 18-09-2019 04:04:18 6.8 C 20 %
1034 18-09-2019 04:14:18 6.8 C 20 %
1035 18-09-2019 04:24:17 7.1 C 20 %
1036 18-09-2019 04:34:17 6.9 C 20 %
1037 18-09-2019 04:44:17 6.3 C 20 %
1038 18-09-2019 04:54:17 6.3 C 20 %
1039 18-09-2019 05:04:18 6.3 C 20 %
1040 18-09-2019 05:14:18 6.1 C 20 %
1041 18-09-2019 05:24:17 6 C 20 %
1042 18-09-2019 05:34:17 6 C 20 %
1043 18-09-2019 05:44:17 5.9 C 20 %
1044 18-09-2019 05:54:17 5.6 C 20 %
1045 18-09-2019 06:04:18 5.5 C 21 %
1046 18-09-2019 06:14:18 5.5 C 21 %
1047 18-09-2019 06:24:17 5.2 C 21 %
1048 18-09-2019 06:34:18 5.4 C 25 %
1049 18-09-2019 06:44:18 5.3 C 21 %
1050 18-09-2019 06:54:17 5.3 C 23 %
Sensor: Nr:Datum:Temp:Feuchte:
Aussen-T/F 1051 18-09-2019 07:04:18 5.3 C 23 %
1052 18-09-2019 07:14:18 5.2 C 23 %
1053 18-09-2019 07:24:17 5.2 C 23 %
1054 18-09-2019 07:34:18 5.1 C 25 %
1055 18-09-2019 07:44:18 5.2 C 25 %
1056 18-09-2019 07:54:17 5.7 C 25 %
1057 18-09-2019 08:04:18 5.6 C 25 %
1058 18-09-2019 08:14:18 5.7 C 25 %
1059 18-09-2019 08:24:17 5.7 C 25 %
1060 18-09-2019 08:34:17 5.9 C 25 %
1061 18-09-2019 08:44:17 6.1 C 25 %
1062 18-09-2019 08:54:17 6.3 C 25 %
1063 18-09-2019 09:04:17 6.3 C 25 %
1064 18-09-2019 09:14:17 6.4 C 25 %
1065 18-09-2019 09:24:17 6.8 C 25 %
1066 18-09-2019 09:34:17 7.1 C 25 %
1067 18-09-2019 09:44:17 7.1 C 25 %
1068 18-09-2019 09:54:17 7.5 C 25 %
1069 18-09-2019 10:04:17 7.7 C 25 %
1070 18-09-2019 10:14:17 7.9 C 25 %
1071 18-09-2019 10:24:17 8.2 C 25 %
1072 18-09-2019 10:34:17 8.8 C 23 %
1073 18-09-2019 10:44:17 9.3 C 20 %
1074 18-09-2019 10:54:17 9.6 C 20 %
1075 18-09-2019 11:04:18 10.1 C 20 %
Sensor: Nr:Datum:Temp:Feuchte:
Aussen-T/F 1076 18-09-2019 11:14:18 10.6 C 20 %
1077 18-09-2019 11:24:17 10.9 C 20 %
1078 18-09-2019 11:34:17 11.6 C 20 %
1079 18-09-2019 11:44:17 11.9 C 20 %
1080 18-09-2019 11:54:17 12.8 C 20 %
1081 18-09-2019 12:04:17 12.9 C 20 %
1082 18-09-2019 12:14:17 13.5 C 20 %
1083 18-09-2019 12:24:18 13.8 C 20 %
1084 18-09-2019 12:34:17 14.2 C 20 %
1085 18-09-2019 12:44:17 14.6 C 20 %
1086 18-09-2019 12:54:18 15.4 C 20 %
1087 18-09-2019 13:04:17 15.4 C 20 %
1088 18-09-2019 13:14:17 15.7 C 20 %
1089 18-09-2019 13:24:17 15.1 C 20 %
1090 18-09-2019 13:34:17 14.9 C 20 %
1091 18-09-2019 13:44:17 15.4 C 20 %
1092 18-09-2019 13:54:17 15.8 C 20 %
1093 18-09-2019 14:04:17 17.4 C 20 %
1094 18-09-2019 14:14:17 19.8 C 20 %
1095 18-09-2019 14:24:17 18.5 C 20 %
1096 18-09-2019 14:34:17 19.7 C 20 %
1097 18-09-2019 14:44:18 19.1 C 20 %
1098 18-09-2019 14:54:17 19.3 C 20 %
1099 18-09-2019 15:04:18 17.8 C 20 %
1100 18-09-2019 15:14:18 19.6 C 20 %
Sensor: Nr:Datum:Temp:Feuchte:
Aussen-T/F 1101 18-09-2019 15:24:17 22.9 C 20 %
1102 18-09-2019 15:34:17 23.6 C 20 %
1103 18-09-2019 15:44:18 22.8 C 20 %
1104 18-09-2019 15:54:17 19 C 20 %
1105 18-09-2019 16:04:18 20.3 C 20 %
1106 18-09-2019 16:14:18 22.7 C 20 %
1107 18-09-2019 16:24:17 22.2 C 20 %
1108 18-09-2019 16:34:18 19 C 20 %
1109 18-09-2019 16:44:18 17.8 C 20 %
1110 18-09-2019 16:54:17 19.4 C 20 %
1111 18-09-2019 17:04:18 21.9 C 20 %
1112 18-09-2019 17:14:18 21.9 C 20 %
1113 18-09-2019 17:24:17 22.6 C 20 %
1114 18-09-2019 17:34:17 20.9 C 20 %
1115 18-09-2019 17:44:17 18.9 C 20 %
1116 18-09-2019 17:54:17 18.3 C 20 %
1117 18-09-2019 18:04:17 17.6 C 20 %
1118 18-09-2019 18:14:17 17.3 C 20 %
1119 18-09-2019 18:24:17 17.3 C 20 %
1120 18-09-2019 18:34:17 17.3 C 20 %
1121 18-09-2019 18:44:17 16.8 C 20 %
1122 18-09-2019 18:54:17 16.4 C 20 %
1123 18-09-2019 19:04:17 16 C 20 %
1124 18-09-2019 19:14:17 15.4 C 20 %
1125 18-09-2019 19:24:17 14.4 C 20 %
Sensor: Nr:Datum:Temp:Feuchte:
Aussen-T/F 1126 18-09-2019 19:34:17 13.9 C 20 %
1127 18-09-2019 19:44:17 13.1 C 20 %
1128 18-09-2019 19:54:17 12.4 C 20 %
1129 18-09-2019 20:04:17 12 C 20 %
1130 18-09-2019 20:14:17 11.8 C 20 %
1131 18-09-2019 20:24:17 11.8 C 20 %
1132 18-09-2019 20:34:17 11.5 C 20 %
1133 18-09-2019 20:44:17 11.5 C 20 %
1134 18-09-2019 20:54:17 11.1 C 20 %
1135 18-09-2019 21:04:17 11 C 20 %
1136 18-09-2019 21:14:17 10.8 C 20 %
1137 18-09-2019 21:24:17 10.9 C 20 %
1138 18-09-2019 21:34:17 10.8 C 20 %
1139 18-09-2019 21:44:17 10.4 C 20 %
1140 18-09-2019 21:54:18 10.1 C 20 %
1141 18-09-2019 22:04:17 9.8 C 20 %
1142 18-09-2019 22:14:17 9.8 C 20 %
1143 18-09-2019 22:24:17 9.8 C 20 %
1144 18-09-2019 22:34:17 9.6 C 20 %
1145 18-09-2019 22:44:17 9.3 C 20 %
1146 18-09-2019 22:54:17 9.3 C 20 %
1147 18-09-2019 23:04:17 9.1 C 20 %
1148 18-09-2019 23:14:17 9.1 C 20 %
1149 18-09-2019 23:24:17 9.1 C 20 %
1150 18-09-2019 23:34:17 8.8 C 20 %
Sensor: Nr:Datum:Temp:Feuchte:
Aussen-T/F 1151 18-09-2019 23:44:18 8.7 C 20 %
1152 18-09-2019 23:54:17 8.5 C 20 %
1153 19-09-2019 00:04:18 8.4 C 20 %
1154 19-09-2019 00:14:18 8.3 C 20 %
1155 19-09-2019 00:24:17 8.6 C 20 %
1156 19-09-2019 00:34:18 8.3 C 20 %
1157 19-09-2019 00:44:18 8.6 C 20 %
1158 19-09-2019 00:54:17 8.4 C 20 %
1159 19-09-2019 01:04:18 8.1 C 20 %
1160 19-09-2019 01:14:18 7.5 C 20 %
1161 19-09-2019 01:24:17 7.2 C 20 %
1162 19-09-2019 01:34:18 7.1 C 20 %
1163 19-09-2019 01:44:18 7.1 C 20 %
1164 19-09-2019 01:54:17 6.7 C 20 %
1165 19-09-2019 02:04:18 6.4 C 20 %
1166 19-09-2019 02:14:18 6.5 C 20 %
1167 19-09-2019 02:24:17 6.4 C 20 %
1168 19-09-2019 02:34:17 6.3 C 20 %
1169 19-09-2019 02:44:17 6.3 C 20 %
1170 19-09-2019 02:54:17 6.1 C 20 %
1171 19-09-2019 03:04:18 6 C 20 %
1172 19-09-2019 03:14:18 5.9 C 21 %
1173 19-09-2019 03:24:18 5.8 C 21 %
1174 19-09-2019 03:34:17 5.8 C 21 %
1175 19-09-2019 03:44:17 5.6 C 21 %
Sensor: Nr:Datum:Temp:Feuchte:
Aussen-T/F 1176 19-09-2019 03:54:17 5.4 C 21 %
1177 19-09-2019 04:04:17 5.4 C 23 %
1178 19-09-2019 04:14:17 5.4 C 23 %
1179 19-09-2019 04:24:17 5.2 C 23 %
1180 19-09-2019 04:34:17 5.2 C 23 %
1181 19-09-2019 04:44:17 5.2 C 23 %
1182 19-09-2019 04:54:17 5.1 C 25 %
1183 19-09-2019 05:04:17 4.8 C 25 %
1184 19-09-2019 05:14:17 4.8 C 26 %
1185 19-09-2019 05:24:17 4.8 C 26 %
1186 19-09-2019 05:34:17 4.7 C 26 %
1187 19-09-2019 05:44:18 4.8 C 26 %
1188 19-09-2019 05:54:17 4.7 C 26 %
1189 19-09-2019 06:04:18 4.5 C 26 %
1190 19-09-2019 06:14:18 4.5 C 26 %
1191 19-09-2019 06:24:18 4.5 C 27 %
1192 19-09-2019 06:34:17 4.4 C 27 %
1193 19-09-2019 06:44:17 4.4 C 27 %
1194 19-09-2019 06:54:17 4.5 C 28 %
1195 19-09-2019 07:04:18 4.5 C 28 %
1196 19-09-2019 07:14:18 4.6 C 28 %
1197 19-09-2019 07:24:17 4.4 C 27 %
1198 19-09-2019 07:34:18 4.3 C 28 %
1199 19-09-2019 07:44:18 4.5 C 28 %
1200 19-09-2019 07:54:17 4.5 C 28 %
Sensor: Nr:Datum:Temp:Feuchte:
Aussen-T/F 1201 19-09-2019 08:04:18 4.6 C 27 %
1202 19-09-2019 08:14:18 4.8 C 28 %
1203 19-09-2019 08:24:17 4.9 C 28 %
1204 19-09-2019 08:34:18 5 C 27 %
1205 19-09-2019 08:44:18 5.2 C 27 %
1206 19-09-2019 08:54:17 5.2 C 26 %
1207 19-09-2019 09:04:18 5.5 C 28 %
1208 19-09-2019 09:14:18 5.4 C 27 %
1209 19-09-2019 09:24:17 5.6 C 27 %
1210 19-09-2019 09:34:17 6.3 C 30 %
1211 19-09-2019 09:44:17 6.7 C 29 %
1212 19-09-2019 09:54:17 6.9 C 27 %
1213 19-09-2019 10:04:17 7 C 26 %
1214 19-09-2019 10:14:17 7.4 C 25 %
1215 19-09-2019 10:24:17 7.6 C 25 %
1216 19-09-2019 10:34:17 7.9 C 23 %
1217 19-09-2019 10:44:17 8.4 C 23 %
1218 19-09-2019 10:54:17 8.7 C 21 %
1219 19-09-2019 11:04:18 9.2 C 20 %
1220 19-09-2019 11:14:18 9.5 C 20 %
1221 19-09-2019 11:24:17 10.1 C 20 %
1222 19-09-2019 11:34:18 11 C 20 %
1223 19-09-2019 11:44:18 11.2 C 20 %
1224 19-09-2019 11:54:17 11.7 C 20 %
1225 19-09-2019 12:04:18 12.9 C 20 %
Sensor: Nr:Datum:Temp:Feuchte:
Aussen-T/F 1226 19-09-2019 12:14:18 13.5 C 20 %
1227 19-09-2019 12:24:17 14 C 20 %
1228 19-09-2019 12:34:18 14.2 C 20 %
1229 19-09-2019 12:44:18 14.3 C 20 %
1230 19-09-2019 12:54:17 14.5 C 20 %
1231 19-09-2019 13:04:17 14.1 C 20 %
1232 19-09-2019 13:14:17 14 C 20 %
1233 19-09-2019 13:24:17 14.3 C 20 %
1234 19-09-2019 13:34:17 14.7 C 20 %
1235 19-09-2019 13:44:17 15.2 C 20 %
1236 19-09-2019 13:54:17 15.3 C 20 %
1237 19-09-2019 14:04:18 17.5 C 20 %
1238 19-09-2019 14:14:18 19.2 C 20 %
1239 19-09-2019 14:24:17 17.8 C 20 %
1240 19-09-2019 14:34:17 18.6 C 20 %
1241 19-09-2019 14:44:17 17.9 C 20 %
1242 19-09-2019 14:54:18 17.7 C 20 %
1243 19-09-2019 15:04:17 19 C 20 %
1244 19-09-2019 15:14:17 21.3 C 20 %
1245 19-09-2019 15:24:17 21 C 20 %
1246 19-09-2019 15:34:18 21.8 C 20 %
1247 19-09-2019 15:44:18 22.5 C 20 %
1248 19-09-2019 15:54:17 22.4 C 20 %
1249 19-09-2019 16:04:17 21.3 C 20 %
1250 19-09-2019 16:14:17 21.6 C 20 %
Sensor: Nr:Datum:Temp:Feuchte:
Aussen-T/F 1251 19-09-2019 16:24:17 23.8 C 20 %
1252 19-09-2019 16:34:17 21.1 C 20 %
1253 19-09-2019 16:44:17 20.9 C 20 %
1254 19-09-2019 16:54:17 21.9 C 20 %
1255 19-09-2019 17:04:18 20.4 C 20 %
1256 19-09-2019 17:14:18 21.4 C 20 %
1257 19-09-2019 17:24:17 18.6 C 20 %
1258 19-09-2019 17:34:17 20 C 20 %
1259 19-09-2019 17:44:17 18.5 C 20 %
1260 19-09-2019 17:54:17 17.7 C 20 %
1261 19-09-2019 18:04:17 17.7 C 20 %
1262 19-09-2019 18:14:17 17.5 C 20 %
1263 19-09-2019 18:24:18 17.3 C 20 %
1264 19-09-2019 18:34:17 17.1 C 20 %
1265 19-09-2019 18:44:17 16.5 C 20 %
1266 19-09-2019 18:54:18 16 C 20 %
1267 19-09-2019 19:04:17 15.5 C 20 %
1268 19-09-2019 19:14:17 14.4 C 20 %
1269 19-09-2019 19:24:17 13.8 C 20 %
1270 19-09-2019 19:34:17 13.1 C 20 %
1271 19-09-2019 19:44:17 12.9 C 20 %
1272 19-09-2019 19:54:17 12.5 C 20 %
1273 19-09-2019 20:04:17 11.6 C 20 %
1274 19-09-2019 20:14:17 11.4 C 20 %
1275 19-09-2019 20:24:17 11.1 C 20 %
Sensor: Nr:Datum:Temp:Feuchte:
Aussen-T/F 1276 19-09-2019 20:34:17 11 C 20 %
1277 19-09-2019 20:44:18 10.7 C 20 %
1278 19-09-2019 20:54:17 10 C 20 %
1279 19-09-2019 21:04:17 9.9 C 20 %
1280 19-09-2019 21:14:17 9.6 C 20 %
1281 19-09-2019 21:24:17 9.6 C 20 %
1282 19-09-2019 21:34:18 9.7 C 20 %
1283 19-09-2019 21:44:18 9.3 C 20 %
1284 19-09-2019 21:54:17 9.1 C 20 %
1285 19-09-2019 22:04:18 9.1 C 20 %
1286 19-09-2019 22:14:18 9.1 C 20 %
1287 19-09-2019 22:24:17 9 C 20 %
1288 19-09-2019 22:34:18 8.5 C 20 %
1289 19-09-2019 22:44:18 8.2 C 20 %
1290 19-09-2019 22:54:17 8.3 C 20 %
1291 19-09-2019 23:04:18 8 C 20 %
1292 19-09-2019 23:14:18 7.9 C 20 %
1293 19-09-2019 23:24:17 8 C 20 %
1294 19-09-2019 23:34:17 7.7 C 20 %
1295 19-09-2019 23:44:17 7.3 C 20 %
1296 19-09-2019 23:54:17 7.2 C 20 %
1297 20-09-2019 00:04:17 7 C 20 %
1298 20-09-2019 00:14:17 6.9 C 20 %
1299 20-09-2019 00:24:17 6.8 C 20 %
1300 20-09-2019 00:34:17 6.7 C 20 %
Sensor: Nr:Datum:Temp:Feuchte:
Aussen-T/F 1301 20-09-2019 00:44:17 6.9 C 20 %
1302 20-09-2019 00:54:18 6.8 C 20 %
1303 20-09-2019 01:04:17 6.7 C 20 %
1304 20-09-2019 01:14:17 6.4 C 20 %
1305 20-09-2019 01:24:17 6.3 C 20 %
1306 20-09-2019 01:34:17 6.1 C 20 %
1307 20-09-2019 01:44:18 6 C 20 %
1308 20-09-2019 01:54:17 5.8 C 20 %
1309 20-09-2019 02:04:18 5.8 C 20 %
1310 20-09-2019 02:14:18 5.5 C 20 %
1311 20-09-2019 02:24:17 5.4 C 20 %
1312 20-09-2019 02:34:18 5.4 C 20 %
1313 20-09-2019 02:44:18 5.4 C 20 %
1314 20-09-2019 02:54:17 5.3 C 20 %
1315 20-09-2019 03:04:18 5.3 C 20 %
1316 20-09-2019 03:14:18 5.2 C 20 %
1317 20-09-2019 03:24:17 5 C 20 %
1318 20-09-2019 03:34:17 4.9 C 20 %
1319 20-09-2019 03:44:17 4.8 C 20 %
1320 20-09-2019 03:54:17 4.7 C 20 %
1321 20-09-2019 04:04:17 4.7 C 20 %
1322 20-09-2019 04:14:17 4.5 C 20 %
1323 20-09-2019 04:24:18 4.4 C 20 %
1324 20-09-2019 04:34:17 4.2 C 20 %
1325 20-09-2019 04:44:17 4.2 C 20 %
Sensor: Nr:Datum:Temp:Feuchte:
Aussen-T/F 1326 20-09-2019 04:54:18 4.1 C 20 %
1327 20-09-2019 05:04:17 4 C 23 %
1328 20-09-2019 05:14:17 4 C 20 %
1329 20-09-2019 05:24:17 4.1 C 20 %
1330 20-09-2019 05:34:18 4 C 20 %
1331 20-09-2019 05:44:18 3.8 C 21 %
1332 20-09-2019 05:54:17 4 C 21 %
1333 20-09-2019 06:04:18 3.7 C 21 %
1334 20-09-2019 06:14:18 3.8 C 25 %
1335 20-09-2019 06:24:17 4 C 23 %
1336 20-09-2019 06:34:17 3.6 C 25 %
1337 20-09-2019 06:44:18 3.6 C 25 %
1338 20-09-2019 06:54:17 3.5 C 25 %
1339 20-09-2019 07:04:18 3.4 C 25 %
1340 20-09-2019 07:14:18 3.3 C 25 %
1341 20-09-2019 07:24:17 3.3 C 25 %
1342 20-09-2019 07:34:18 3.4 C 25 %
1343 20-09-2019 07:44:18 3.5 C 26 %
1344 20-09-2019 07:54:17 3.6 C 26 %
1345 20-09-2019 08:04:18 3.8 C 26 %
1346 20-09-2019 08:14:18 4 C 26 %
1347 20-09-2019 08:24:18 4.2 C 26 %
1348 20-09-2019 08:34:17 4.2 C 25 %
1349 20-09-2019 08:44:17 4.3 C 25 %
1350 20-09-2019 08:54:18 4.5 C 25 %
Sensor: Nr:Datum:Temp:Feuchte:
Aussen-T/F 1351 20-09-2019 09:04:17 4.5 C 26 %
1352 20-09-2019 09:14:17 4.8 C 26 %
1353 20-09-2019 09:24:17 5.2 C 25 %
1354 20-09-2019 09:34:17 5.5 C 25 %
1355 20-09-2019 09:44:17 6 C 25 %
1356 20-09-2019 09:54:17 6.5 C 21 %
1357 20-09-2019 10:04:18 7 C 20 %
1358 20-09-2019 10:14:18 7.3 C 20 %
1359 20-09-2019 10:24:17 7.5 C 20 %
1360 20-09-2019 10:34:18 8 C 20 %
1361 20-09-2019 10:44:18 8.5 C 20 %
1362 20-09-2019 10:54:17 8.9 C 20 %
1363 20-09-2019 11:04:17 9.4 C 20 %
1364 20-09-2019 11:14:17 9.6 C 20 %
1365 20-09-2019 11:24:17 10.5 C 20 %
1366 20-09-2019 11:34:17 10.6 C 20 %
1367 20-09-2019 11:44:17 11.4 C 20 %
1368 20-09-2019 11:54:17 11.8 C 20 %
1369 20-09-2019 12:04:17 12.6 C 20 %
1370 20-09-2019 12:14:17 13.4 C 20 %
1371 20-09-2019 12:24:17 13.4 C 20 %
1372 20-09-2019 12:34:17 14.2 C 20 %
1373 20-09-2019 12:44:17 14.3 C 20 %
1374 20-09-2019 12:54:18 14.4 C 20 %
1375 20-09-2019 13:04:17 14.5 C 20 %
Sensor: Nr:Datum:Temp:Feuchte:
Aussen-T/F 1376 20-09-2019 13:14:17 15 C 20 %
1377 20-09-2019 13:24:17 15.4 C 20 %
1378 20-09-2019 13:34:17 15.7 C 20 %
1379 20-09-2019 13:44:17 16 C 20 %
1380 20-09-2019 13:54:18 16.4 C 20 %
1381 20-09-2019 14:04:17 18.9 C 20 %
1382 20-09-2019 14:14:17 23.1 C 20 %
1383 20-09-2019 14:24:17 22.3 C 20 %
1384 20-09-2019 14:34:18 19.5 C 20 %
1385 20-09-2019 14:44:18 19.5 C 20 %
1386 20-09-2019 14:54:17 19.7 C 20 %
1387 20-09-2019 15:04:17 21.4 C 20 %
1388 20-09-2019 15:14:18 20.7 C 20 %
1389 20-09-2019 15:24:17 22.8 C 20 %
1390 20-09-2019 15:34:18 23.7 C 20 %
1391 20-09-2019 15:44:18 23.8 C 20 %
1392 20-09-2019 15:54:17 22.9 C 20 %
1393 20-09-2019 16:04:18 23.2 C 20 %
1394 20-09-2019 16:14:18 24.1 C 20 %
1395 20-09-2019 16:24:17 25.4 C 20 %
1396 20-09-2019 16:34:17 24.7 C 20 %
1397 20-09-2019 16:44:17 24.3 C 20 %
1398 20-09-2019 16:54:17 25.6 C 20 %
1399 20-09-2019 17:04:17 22.8 C 20 %
1400 20-09-2019 17:14:17 23.8 C 20 %
Sensor: Nr:Datum:Temp:Feuchte:
Aussen-T/F 1401 20-09-2019 17:24:17 23.8 C 20 %
1402 20-09-2019 17:34:17 24 C 20 %
1403 20-09-2019 17:44:17 22.3 C 20 %
1404 20-09-2019 17:55:17 20 C 20 %
1405 20-09-2019 18:04:17 20 C 20 %
1406 20-09-2019 18:14:17 19.5 C 20 %
1407 20-09-2019 18:24:17 19.3 C 20 %
1408 20-09-2019 18:34:17 19.1 C 20 %
1409 20-09-2019 18:44:17 18.4 C 20 %
1410 20-09-2019 18:54:17 17.1 C 20 %
1411 20-09-2019 19:04:17 15.7 C 20 %
1412 20-09-2019 19:14:18 14.8 C 20 %
1413 20-09-2019 19:24:17 14.6 C 20 %
1414 20-09-2019 19:34:18 14 C 20 %
1415 20-09-2019 19:44:18 13.6 C 20 %
1416 20-09-2019 19:54:17 13.3 C 20 %
1417 20-09-2019 20:04:17 13.2 C 20 %
1418 20-09-2019 20:14:17 13.1 C 20 %
1419 20-09-2019 20:24:17 12.8 C 20 %
1420 20-09-2019 20:34:18 12.5 C 20 %
1421 20-09-2019 20:44:18 12.2 C 20 %
1422 20-09-2019 20:54:17 12.1 C 20 %
1423 20-09-2019 21:05:17 12 C 20 %
1424 20-09-2019 21:14:17 11.3 C 20 %
1425 20-09-2019 21:24:17 11.3 C 20 %
Sensor: Nr:Datum:Temp:Feuchte:
Aussen-T/F 1426 20-09-2019 21:35:17 10.1 C 20 %
1427 20-09-2019 21:44:17 9.9 C 20 %
1428 20-09-2019 21:54:17 9.5 C 20 %
1429 20-09-2019 22:04:18 9.2 C 20 %
1430 20-09-2019 22:14:18 9 C 20 %
1431 20-09-2019 22:24:17 8.7 C 20 %
1432 20-09-2019 22:34:18 8.5 C 20 %
1433 20-09-2019 22:44:18 8.4 C 20 %
1434 20-09-2019 22:54:17 8.2 C 20 %
1435 20-09-2019 23:04:17 7.9 C 20 %
1436 20-09-2019 23:14:18 7.8 C 20 %
1437 20-09-2019 23:25:17 7.6 C 20 %
1438 20-09-2019 23:34:18 7.3 C 20 %
1439 20-09-2019 23:44:18 7.4 C 20 %
1440 20-09-2019 23:54:17 7.1 C 20 %
1441 21-09-2019 00:05:17 6.9 C 20 %
1442 21-09-2019 00:14:18 6.8 C 20 %
1443 21-09-2019 00:24:18 7 C 20 %
1444 21-09-2019 00:44:17 6.8 C 20 %
1445 21-09-2019 00:44:17 6.5 C 20 %
1446 21-09-2019 00:54:17 6.4 C 20 %
1447 21-09-2019 01:05:17 6.3 C 20 %
1448 21-09-2019 01:14:17 6 C 20 %
1449 21-09-2019 01:24:17 6.1 C 20 %
1450 21-09-2019 01:35:17 6.2 C 20 %
Sensor: Nr:Datum:Temp:Feuchte:
Aussen-T/F 1451 21-09-2019 01:44:17 6 C 20 %
1452 21-09-2019 01:54:17 5.8 C 20 %
1453 21-09-2019 02:05:17 5.8 C 20 %
1454 21-09-2019 02:14:17 5.6 C 20 %
1455 21-09-2019 02:24:17 5.4 C 20 %
1456 21-09-2019 02:35:17 5.3 C 20 %
1457 21-09-2019 02:45:17 5.2 C 20 %
1458 21-09-2019 02:54:17 5.2 C 20 %
1459 21-09-2019 03:04:18 5.2 C 20 %
1460 21-09-2019 03:14:18 5.1 C 20 %
1461 21-09-2019 03:24:18 5.1 C 20 %
1462 21-09-2019 03:35:17 4.8 C 20 %
1463 21-09-2019 03:44:17 4.9 C 20 %
1464 21-09-2019 03:54:17 4.8 C 20 %
1465 21-09-2019 04:05:17 4.8 C 20 %
1466 21-09-2019 04:14:18 5 C 20 %
1467 21-09-2019 04:24:18 4.8 C 20 %
1468 21-09-2019 04:35:17 4.6 C 20 %
1469 21-09-2019 04:45:17 4.8 C 20 %
1470 21-09-2019 04:55:17 4.4 C 20 %
1471 21-09-2019 05:05:17 4.6 C 20 %
1472 21-09-2019 05:15:17 4.5 C 20 %
1473 21-09-2019 05:25:17 4.5 C 20 %
1474 21-09-2019 05:35:17 4.4 C 20 %
1475 21-09-2019 05:45:17 4.5 C 21 %
Sensor: Nr:Datum:Temp:Feuchte:
Aussen-T/F 1476 21-09-2019 05:55:17 4.2 C 20 %
1477 21-09-2019 06:05:17 4.3 C 21 %
1478 21-09-2019 06:15:17 4.1 C 21 %
1479 21-09-2019 06:25:17 4 C 21 %
1480 21-09-2019 06:35:17 3.9 C 23 %
1481 21-09-2019 06:45:17 3.7 C 23 %
1482 21-09-2019 06:55:17 3.7 C 25 %
1483 21-09-2019 07:05:17 4 C 25 %
1484 21-09-2019 07:15:17 3.9 C 25 %
1485 21-09-2019 07:25:17 3.9 C 25 %
1486 21-09-2019 07:35:17 3.9 C 25 %
1487 21-09-2019 07:45:17 3.7 C 25 %
1488 21-09-2019 07:55:17 3.9 C 25 %
1489 21-09-2019 08:05:17 3.9 C 25 %
1490 21-09-2019 08:15:17 4 C 25 %
1491 21-09-2019 08:25:17 4 C 25 %
1492 21-09-2019 08:35:17 4.2 C 25 %
1493 21-09-2019 08:45:17 4.3 C 25 %
1494 21-09-2019 08:55:17 4.4 C 25 %
1495 21-09-2019 09:05:17 4.7 C 25 %
1496 21-09-2019 09:15:17 4.8 C 25 %
1497 21-09-2019 09:25:17 4.9 C 25 %
1498 21-09-2019 09:35:17 5.6 C 25 %
1499 21-09-2019 09:45:17 6.8 C 20 %
1500 21-09-2019 09:55:17 7.2 C 20 %
Sensor: Nr:Datum:Temp:Feuchte:
Aussen-T/F 1501 21-09-2019 10:05:17 7.8 C 20 %
1502 21-09-2019 10:15:17 8 C 20 %
1503 21-09-2019 10:25:17 8.4 C 20 %
1504 21-09-2019 10:35:17 9 C 20 %
1505 21-09-2019 10:45:17 9.6 C 20 %
1506 21-09-2019 10:55:17 10.4 C 20 %
1507 21-09-2019 11:05:17 11.1 C 20 %
1508 21-09-2019 11:15:17 11.5 C 20 %
1509 21-09-2019 11:25:17 12.1 C 20 %
1510 21-09-2019 11:35:17 12 C 20 %
1511 21-09-2019 11:45:17 12.8 C 20 %
1512 21-09-2019 11:55:17 13.1 C 20 %
1513 21-09-2019 12:05:17 14 C 20 %
1514 21-09-2019 12:15:17 14.4 C 20 %
1515 21-09-2019 12:25:17 15.1 C 20 %
1516 21-09-2019 12:35:17 14.9 C 20 %
1517 21-09-2019 12:45:17 15.4 C 20 %
1518 21-09-2019 12:55:17 16.1 C 20 %
1519 21-09-2019 13:05:16 17.3 C 20 %
1520 21-09-2019 13:15:17 17.5 C 20 %
1521 21-09-2019 13:25:17 17.9 C 20 %
1522 21-09-2019 13:35:17 18.1 C 20 %
1523 21-09-2019 13:45:17 18.5 C 20 %
1524 21-09-2019 13:55:17 20.5 C 20 %
1525 21-09-2019 14:05:17 22.5 C 20 %
Sensor: Nr:Datum:Temp:Feuchte:
Aussen-T/F 1526 21-09-2019 14:15:17 25.5 C 20 %
1527 21-09-2019 14:25:17 24.1 C 20 %
1528 21-09-2019 14:35:17 23.5 C 20 %
1529 21-09-2019 14:45:17 23.1 C 20 %
1530 21-09-2019 14:55:17 23.9 C 20 %
1531 21-09-2019 15:05:17 26.7 C 20 %
1532 21-09-2019 15:15:16 24.3 C 20 %
1533 21-09-2019 15:25:16 25.2 C 20 %
1534 21-09-2019 15:35:17 27.7 C 20 %
1535 21-09-2019 15:45:16 29.2 C 20 %
1536 21-09-2019 15:55:16 30.9 C 20 %
1537 21-09-2019 16:05:17 30.6 C 20 %
1538 21-09-2019 16:15:16 29.4 C 20 %
1539 21-09-2019 16:25:16 29.6 C 20 %
1540 21-09-2019 16:35:17 31.1 C 20 %
1541 21-09-2019 16:45:16 29.6 C 20 %
1542 21-09-2019 16:55:16 29.9 C 20 %
1543 21-09-2019 17:05:17 28 C 20 %
1544 21-09-2019 17:15:17 28.5 C 20 %
1545 21-09-2019 17:25:17 29.3 C 20 %
1546 21-09-2019 17:35:16 28 C 20 %
1547 21-09-2019 17:45:17 25.2 C 20 %
1548 21-09-2019 17:55:17 23.9 C 20 %
1549 21-09-2019 18:05:16 23 C 20 %
1550 21-09-2019 18:15:17 22.4 C 20 %
Sensor: Nr:Datum:Temp:Feuchte:
Aussen-T/F 1551 21-09-2019 18:25:17 21.4 C 20 %
1552 21-09-2019 18:35:16 20.6 C 20 %
1553 21-09-2019 18:45:16 19.9 C 20 %
1554 21-09-2019 18:55:16 18.9 C 20 %
1555 21-09-2019 19:05:16 18.1 C 20 %
1556 21-09-2019 19:15:17 17.4 C 20 %
1557 21-09-2019 19:25:17 16.5 C 20 %
1558 21-09-2019 19:35:16 16.3 C 20 %
1559 21-09-2019 19:45:16 15.7 C 20 %
1560 21-09-2019 19:55:16 15.9 C 20 %
1561 21-09-2019 20:05:17 15.8 C 20 %
1562 21-09-2019 20:15:16 15.4 C 20 %
1563 21-09-2019 20:25:16 15.1 C 20 %
1564 21-09-2019 20:35:16 14.7 C 20 %
1565 21-09-2019 20:45:16 14.2 C 20 %
1566 21-09-2019 20:55:16 14.1 C 20 %
1567 21-09-2019 21:05:17 13.7 C 20 %
1568 21-09-2019 21:15:16 13.3 C 20 %
1569 21-09-2019 21:25:16 12.8 C 20 %
1570 21-09-2019 21:35:17 12.3 C 20 %
1571 21-09-2019 21:45:16 12.2 C 20 %
1572 21-09-2019 21:55:16 11.6 C 20 %
1573 21-09-2019 22:05:17 11.6 C 20 %
1574 21-09-2019 22:15:16 11.5 C 20 %
1575 21-09-2019 22:25:16 11.2 C 20 %
Sensor: Nr:Datum:Temp:Feuchte:
Aussen-T/F 1576 21-09-2019 22:35:17 11.1 C 20 %
1577 21-09-2019 22:45:16 10.8 C 20 %
1578 21-09-2019 22:55:16 10.5 C 20 %
1579 21-09-2019 23:05:16 10.5 C 20 %
1580 21-09-2019 23:15:16 10.3 C 20 %
1581 21-09-2019 23:25:16 10.2 C 20 %
1582 21-09-2019 23:35:16 9.8 C 20 %
1583 21-09-2019 23:45:16 9.5 C 20 %
1584 21-09-2019 23:55:16 9.6 C 20 %
1585 22-09-2019 00:05:16 9.6 C 20 %
1586 22-09-2019 00:15:16 9.2 C 20 %
1587 22-09-2019 00:25:17 9.1 C 20 %
1588 22-09-2019 00:35:16 9 C 20 %
1589 22-09-2019 00:45:16 8.8 C 20 %
1590 22-09-2019 00:55:16 8.7 C 20 %
1591 22-09-2019 01:05:16 8.7 C 20 %
1592 22-09-2019 01:15:16 8.7 C 20 %
1593 22-09-2019 01:25:16 8.4 C 20 %
1594 22-09-2019 01:35:16 8.2 C 20 %
1595 22-09-2019 01:45:16 8 C 20 %
1596 22-09-2019 01:55:16 8 C 20 %
1597 22-09-2019 02:05:17 7.8 C 20 %
1598 22-09-2019 02:15:16 7.7 C 20 %
1599 22-09-2019 02:25:16 7.6 C 20 %
1600 22-09-2019 02:35:16 7.5 C 20 %
Sensor: Nr:Datum:Temp:Feuchte:
Aussen-T/F 1601 22-09-2019 02:45:17 7.3 C 20 %
1602 22-09-2019 02:55:17 7.2 C 20 %
1603 22-09-2019 03:05:18 7.2 C 20 %
1604 22-09-2019 03:15:17 7.1 C 20 %
1605 22-09-2019 03:25:17 7.1 C 20 %
1606 22-09-2019 03:35:17 7 C 20 %
1607 22-09-2019 03:45:17 6.8 C 20 %
1608 22-09-2019 03:55:17 6.8 C 20 %
1609 22-09-2019 04:05:18 6.7 C 20 %
1610 22-09-2019 04:15:17 6.6 C 20 %
1611 22-09-2019 04:25:17 6.5 C 20 %
1612 22-09-2019 04:35:18 6.4 C 20 %
1613 22-09-2019 04:45:17 6.3 C 20 %
1614 22-09-2019 04:55:17 6.3 C 20 %
1615 22-09-2019 05:05:17 6.3 C 21 %
1616 22-09-2019 05:15:17 6.4 C 21 %
1617 22-09-2019 05:25:17 6.3 C 21 %
1618 22-09-2019 05:35:17 6.3 C 23 %
1619 22-09-2019 05:45:17 6.3 C 23 %
1620 22-09-2019 05:55:17 6.3 C 23 %
1621 22-09-2019 06:05:17 6.3 C 23 %
1622 22-09-2019 06:15:17 6.3 C 25 %
1623 22-09-2019 06:25:17 6.5 C 25 %
1624 22-09-2019 06:35:17 6.5 C 25 %
1625 22-09-2019 06:45:18 6.3 C 23 %
Sensor: Nr:Datum:Temp:Feuchte:
Aussen-T/F 1626 22-09-2019 06:55:18 6.2 C 23 %
1627 22-09-2019 07:05:17 6.3 C 25 %
1628 22-09-2019 07:15:17 6.3 C 25 %
1629 22-09-2019 07:25:17 6.3 C 25 %
1630 22-09-2019 07:35:17 6.4 C 25 %
1631 22-09-2019 07:45:18 6.8 C 25 %
1632 22-09-2019 07:55:18 6.8 C 25 %
1633 22-09-2019 08:05:17 6.9 C 25 %
1634 22-09-2019 08:15:17 7 C 25 %
1635 22-09-2019 08:25:17 7.2 C 25 %
1636 22-09-2019 08:35:17 7.4 C 25 %
1637 22-09-2019 08:45:18 7.5 C 25 %
1638 22-09-2019 08:55:18 7.8 C 23 %
1639 22-09-2019 09:05:17 8 C 25 %
1640 22-09-2019 09:15:17 8.2 C 25 %
1641 22-09-2019 09:25:17 8.6 C 23 %
1642 22-09-2019 09:35:17 9 C 20 %
1643 22-09-2019 09:45:18 9.2 C 21 %
1644 22-09-2019 09:55:18 9.7 C 20 %
1645 22-09-2019 10:05:17 10.2 C 20 %
1646 22-09-2019 10:15:18 10.5 C 20 %
1647 22-09-2019 10:25:18 11.7 C 20 %
1648 22-09-2019 10:35:17 12.5 C 20 %
1649 22-09-2019 10:45:18 13.7 C 20 %
1650 22-09-2019 10:55:18 14.4 C 20 %
Sensor: Nr:Datum:Temp:Feuchte:
Aussen-T/F 1651 22-09-2019 11:05:17 14.8 C 20 %
1652 22-09-2019 11:15:17 15.6 C 20 %
1653 22-09-2019 11:25:17 15.8 C 20 %
1654 22-09-2019 11:35:17 16.3 C 20 %
1655 22-09-2019 11:45:18 16.5 C 20 %
1656 22-09-2019 11:55:18 16.6 C 20 %
1657 22-09-2019 12:05:17 17 C 20 %
1658 22-09-2019 12:15:17 17.7 C 20 %
1659 22-09-2019 12:25:17 17.8 C 20 %
1660 22-09-2019 12:35:17 18.4 C 20 %
1661 22-09-2019 12:45:17 19 C 20 %
1662 22-09-2019 12:55:17 19.9 C 20 %
1663 22-09-2019 13:05:17 20.8 C 20 %
1664 22-09-2019 13:15:17 21.3 C 20 %
1665 22-09-2019 13:25:17 21.9 C 20 %
1666 22-09-2019 13:35:17 22.6 C 20 %
1667 22-09-2019 13:45:17 23.8 C 20 %
1668 22-09-2019 13:55:17 24.7 C 20 %
1669 22-09-2019 14:05:18 25.7 C 20 %
1670 22-09-2019 14:15:17 26.5 C 20 %
1671 22-09-2019 14:25:17 26.8 C 20 %
1672 22-09-2019 14:35:17 25.9 C 20 %
1673 22-09-2019 14:45:17 26.1 C 20 %
1674 22-09-2019 14:55:17 26.4 C 20 %
1675 22-09-2019 15:05:17 26.7 C 20 %
Sensor: Nr:Datum:Temp:Feuchte:
Aussen-T/F 1676 22-09-2019 15:15:17 25.6 C 20 %
1677 22-09-2019 15:25:18 25.7 C 20 %
1678 22-09-2019 15:35:17 25.5 C 20 %
1679 22-09-2019 15:45:17 25.5 C 20 %
1680 22-09-2019 15:55:17 25.4 C 20 %
1681 22-09-2019 16:05:17 25.2 C 20 %
1682 22-09-2019 16:15:17 25.1 C 20 %
1683 22-09-2019 16:25:17 24.9 C 20 %
1684 22-09-2019 16:35:17 24.7 C 20 %
1685 22-09-2019 16:45:18 24.5 C 20 %
1686 22-09-2019 16:55:18 24 C 20 %
1687 22-09-2019 17:05:17 23.9 C 20 %
1688 22-09-2019 17:15:17 22.9 C 20 %
1689 22-09-2019 17:25:17 22.9 C 20 %
1690 22-09-2019 17:35:17 22.5 C 20 %
1691 22-09-2019 17:45:18 22 C 20 %
1692 22-09-2019 17:55:18 21.8 C 20 %
1693 22-09-2019 18:05:17 21.6 C 20 %
1694 22-09-2019 18:15:17 21.6 C 20 %
1695 22-09-2019 18:25:17 21.6 C 20 %
1696 22-09-2019 18:35:17 21 C 20 %
1697 22-09-2019 18:45:18 20.8 C 20 %
1698 22-09-2019 18:55:18 20.4 C 20 %
1699 22-09-2019 19:05:17 20 C 20 %
1700 22-09-2019 19:15:17 19.7 C 20 %
Sensor: Nr:Datum:Temp:Feuchte:
Aussen-T/F 1701 22-09-2019 19:25:17 19.5 C 20 %
1702 22-09-2019 19:35:17 19.2 C 20 %
1703 22-09-2019 19:45:18 19 C 20 %
1704 22-09-2019 19:55:18 18.8 C 20 %
1705 22-09-2019 20:05:17 18.6 C 20 %
1706 22-09-2019 20:15:18 18.4 C 20 %
1707 22-09-2019 20:25:18 18.3 C 20 %
1708 22-09-2019 20:35:17 19 C 20 %
1709 22-09-2019 20:45:18 20 C 20 %
1710 22-09-2019 20:55:18 19.7 C 20 %
1711 22-09-2019 21:05:17 17.8 C 20 %
1712 22-09-2019 21:15:17 17.5 C 20 %
1713 22-09-2019 21:25:17 17.3 C 20 %
1714 22-09-2019 21:35:17 17.8 C 20 %
1715 22-09-2019 21:45:17 19.3 C 20 %
1716 22-09-2019 21:55:17 18.6 C 20 %
1717 22-09-2019 22:05:17 18.5 C 20 %
1718 22-09-2019 22:15:17 18.3 C 20 %
1719 22-09-2019 22:25:17 17.6 C 20 %
1720 22-09-2019 22:35:18 17.4 C 20 %
1721 22-09-2019 22:45:17 17.6 C 20 %
1722 22-09-2019 22:55:17 17.6 C 20 %
1723 22-09-2019 23:05:18 17.7 C 20 %
1724 22-09-2019 23:15:17 17.7 C 20 %
1725 22-09-2019 23:25:17 17.7 C 20 %
Sensor: Nr:Datum:Temp:Feuchte:
Aussen-T/F 1726 22-09-2019 23:35:17 17.6 C 20 %
1727 22-09-2019 23:45:17 17.3 C 20 %
1728 22-09-2019 23:55:18 17.2 C 20 %
1729 23-09-2019 00:05:17 16.8 C 20 %
1730 23-09-2019 00:15:17 17.5 C 20 %
1731 23-09-2019 00:25:17 17.8 C 20 %
1732 23-09-2019 00:35:17 18.2 C 20 %
1733 23-09-2019 00:45:18 18.2 C 20 %
1734 23-09-2019 00:55:18 18.9 C 20 %
1735 23-09-2019 01:05:17 18.7 C 20 %
1736 23-09-2019 01:15:17 18.5 C 20 %
1737 23-09-2019 01:25:17 18.5 C 20 %
1738 23-09-2019 01:35:17 18.2 C 20 %
1739 23-09-2019 01:45:18 18.1 C 20 %
1740 23-09-2019 01:55:18 18.4 C 20 %
1741 23-09-2019 02:05:17 18.5 C 20 %
1742 23-09-2019 02:15:18 18.4 C 20 %
1743 23-09-2019 02:25:18 18.2 C 20 %
1744 23-09-2019 02:35:17 17.9 C 20 %
1745 23-09-2019 02:45:17 17.7 C 20 %
1746 23-09-2019 02:55:17 17.5 C 20 %
1747 23-09-2019 03:05:17 17.4 C 20 %
1748 23-09-2019 03:15:18 17.2 C 20 %
1749 23-09-2019 03:25:18 17.1 C 20 %
1750 23-09-2019 03:35:17 16.7 C 20 %
Sensor: Nr:Datum:Temp:Feuchte:
Aussen-T/F 1751 23-09-2019 03:45:18 16.3 C 20 %
1752 23-09-2019 03:55:18 16.2 C 20 %
1753 23-09-2019 04:05:17 16 C 20 %
1754 23-09-2019 04:15:17 15.6 C 20 %
1755 23-09-2019 04:25:17 15.2 C 20 %
1756 23-09-2019 04:35:17 14.9 C 21 %
1757 23-09-2019 04:45:18 14.8 C 23 %
1758 23-09-2019 04:55:18 14.8 C 25 %
1759 23-09-2019 05:05:17 14.8 C 25 %
1760 23-09-2019 05:15:17 14.6 C 23 %
1761 23-09-2019 05:25:17 14.4 C 24 %
1762 23-09-2019 05:35:17 14.3 C 24 %
1763 23-09-2019 05:45:17 14.2 C 24 %
1764 23-09-2019 05:55:17 14.1 C 25 %
1765 23-09-2019 06:05:17 14 C 25 %
1766 23-09-2019 06:15:18 14 C 25 %
1767 23-09-2019 06:25:18 13.9 C 27 %
1768 23-09-2019 06:35:17 13.8 C 27 %
1769 23-09-2019 06:45:18 13.8 C 28 %
1770 23-09-2019 06:55:18 13.9 C 29 %
1771 23-09-2019 07:05:17 13.8 C 29 %
1772 23-09-2019 07:15:17 13.8 C 30 %
1773 23-09-2019 07:25:17 13.8 C 30 %
1774 23-09-2019 07:35:17 13.8 C 30 %
1775 23-09-2019 07:45:18 13.8 C 30 %
Sensor: Nr:Datum:Temp:Feuchte:
Aussen-T/F 1776 23-09-2019 07:55:18 13.7 C 30 %
1777 23-09-2019 08:05:17 13.7 C 30 %
1778 23-09-2019 08:15:18 13.8 C 30 %
1779 23-09-2019 08:25:18 13.9 C 30 %
1780 23-09-2019 08:35:17 13.9 C 30 %
1781 23-09-2019 08:45:17 14 C 30 %
1782 23-09-2019 08:55:17 14.1 C 30 %
1783 23-09-2019 09:05:17 14.2 C 30 %
1784 23-09-2019 09:15:17 14.5 C 30 %
1785 23-09-2019 09:25:17 14.7 C 30 %
1786 23-09-2019 09:35:18 14.8 C 27 %
1787 23-09-2019 09:45:17 15.1 C 27 %
1788 23-09-2019 09:55:17 15.3 C 23 %
1789 23-09-2019 10:05:18 15.5 C 23 %
1790 23-09-2019 10:15:17 15.8 C 24 %
1791 23-09-2019 10:25:17 16.2 C 22 %
1792 23-09-2019 10:35:18 16.8 C 22 %
1793 23-09-2019 10:45:17 16.8 C 21 %
1794 23-09-2019 10:55:17 16.9 C 21 %
1795 23-09-2019 11:05:18 16.6 C 21 %
1796 23-09-2019 11:15:17 16.5 C 21 %
1797 23-09-2019 11:25:17 16.5 C 21 %
1798 23-09-2019 11:35:17 16.3 C 23 %
1799 23-09-2019 11:45:17 16.5 C 22 %
1800 23-09-2019 11:55:17 16.8 C 21 %
Sensor: Nr:Datum:Temp:Feuchte:
Aussen-T/F 1801 23-09-2019 12:05:17 17.1 C 21 %
1802 23-09-2019 12:15:18 17.2 C 20 %
1803 23-09-2019 12:25:18 17.8 C 20 %
1804 23-09-2019 12:35:17 17.7 C 20 %
1805 23-09-2019 12:45:17 18 C 20 %
1806 23-09-2019 12:55:17 18 C 20 %
1807 23-09-2019 13:05:17 18.1 C 20 %
1808 23-09-2019 13:15:17 18.9 C 20 %
1809 23-09-2019 13:25:17 18.9 C 20 %
1810 23-09-2019 13:35:17 19.3 C 20 %
1811 23-09-2019 13:45:17 19.1 C 20 %
1812 23-09-2019 13:55:18 19.7 C 20 %
1813 23-09-2019 14:05:17 20.8 C 20 %
1814 23-09-2019 14:15:18 22.4 C 20 %
1815 23-09-2019 14:25:18 21.2 C 20 %
1816 23-09-2019 14:35:17 21 C 20 %
1817 23-09-2019 14:45:18 20.7 C 20 %
1818 23-09-2019 14:55:18 20.6 C 20 %
1819 23-09-2019 15:05:17 20.8 C 20 %
1820 23-09-2019 15:15:17 20.3 C 20 %
1821 23-09-2019 15:25:17 20.3 C 20 %
1822 23-09-2019 15:35:17 22.6 C 20 %
1823 23-09-2019 15:45:18 20.8 C 20 %
1824 23-09-2019 15:55:18 20.6 C 20 %
1825 23-09-2019 16:05:17 21.9 C 20 %
Sensor: Nr:Datum:Temp:Feuchte:
Aussen-T/F 1826 23-09-2019 16:15:17 22.8 C 20 %
1827 23-09-2019 16:25:17 21.1 C 20 %
1828 23-09-2019 16:35:17 22.2 C 20 %
1829 23-09-2019 16:45:17 22 C 20 %
1830 23-09-2019 16:55:17 21.1 C 20 %
1831 23-09-2019 17:05:17 21.8 C 20 %
1832 23-09-2019 17:15:17 22 C 20 %
1833 23-09-2019 17:25:17 20.4 C 20 %
1834 23-09-2019 17:35:17 21.4 C 20 %
1835 23-09-2019 17:45:18 21 C 20 %
1836 23-09-2019 17:55:18 19.6 C 20 %
1837 23-09-2019 18:05:17 19.2 C 20 %
1838 23-09-2019 18:15:18 18.7 C 20 %
1839 23-09-2019 18:25:18 17.7 C 20 %
1840 23-09-2019 18:35:17 17.2 C 20 %
1841 23-09-2019 18:45:18 16.7 C 20 %
1842 23-09-2019 18:55:18 16.4 C 20 %
1843 23-09-2019 19:05:17 16.4 C 20 %
1844 23-09-2019 19:15:18 16.2 C 20 %
1845 23-09-2019 19:25:18 16 C 20 %
1846 23-09-2019 19:35:17 15.8 C 20 %
1847 23-09-2019 19:45:18 15.1 C 20 %
1848 23-09-2019 19:55:18 14.6 C 20 %
1849 23-09-2019 20:05:17 14.1 C 20 %
1850 23-09-2019 20:15:17 13.8 C 20 %
Sensor: Nr:Datum:Temp:Feuchte:
Aussen-T/F 1851 23-09-2019 20:25:17 13.7 C 20 %
1852 23-09-2019 20:35:17 13.9 C 20 %
1853 23-09-2019 20:45:17 14.2 C 20 %
1854 23-09-2019 20:55:17 14.2 C 20 %
1855 23-09-2019 21:05:18 14.1 C 20 %
1856 23-09-2019 21:15:17 13.7 C 21 %
1857 23-09-2019 21:25:18 13.4 C 22 %
1858 23-09-2019 21:35:18 13.4 C 23 %
1859 23-09-2019 21:45:17 13.7 C 23 %
1860 23-09-2019 21:55:17 13.7 C 23 %
1861 23-09-2019 22:05:17 13.7 C 23 %
1862 23-09-2019 22:15:17 13.8 C 23 %
1863 23-09-2019 22:25:17 13.9 C 23 %
1864 23-09-2019 22:35:17 13.9 C 23 %
1865 23-09-2019 22:45:17 14 C 22 %
1866 23-09-2019 22:55:18 14.1 C 22 %
1867 23-09-2019 23:05:17 14 C 23 %
1868 23-09-2019 23:15:18 14 C 23 %
1869 23-09-2019 23:25:18 14 C 23 %
1870 23-09-2019 23:35:17 14.1 C 23 %
1871 23-09-2019 23:45:17 14.2 C 23 %
1872 23-09-2019 23:55:17 14.3 C 23 %
1873 24-09-2019 00:05:17 14.4 C 23 %
1874 24-09-2019 00:15:17 14.3 C 23 %
1875 24-09-2019 00:25:17 14.1 C 23 %
Sensor: Nr:Datum:Temp:Feuchte:
Aussen-T/F 1876 24-09-2019 00:35:17 14 C 23 %
1877 24-09-2019 00:45:17 14 C 23 %
1878 24-09-2019 00:55:17 14 C 23 %
1879 24-09-2019 01:05:18 13.9 C 24 %
1880 24-09-2019 01:15:17 13.8 C 25 %
1881 24-09-2019 01:25:17 13.6 C 24 %
1882 24-09-2019 01:35:18 13.3 C 24 %
1883 24-09-2019 01:45:17 12.5 C 25 %
1884 24-09-2019 01:55:17 11.9 C 26 %
1885 24-09-2019 02:05:18 11.8 C 27 %
1886 24-09-2019 02:15:17 11.8 C 28 %
1887 24-09-2019 02:25:17 11.8 C 29 %
1888 24-09-2019 02:35:17 11.9 C 29 %
1889 24-09-2019 02:45:18 11.9 C 29 %
1890 24-09-2019 02:55:18 11.7 C 29 %
1891 24-09-2019 03:05:17 11.5 C 29 %
1892 24-09-2019 03:15:17 11.2 C 28 %
1893 24-09-2019 03:25:17 11.2 C 30 %
1894 24-09-2019 03:35:17 11.2 C 30 %
1895 24-09-2019 03:45:17 11.3 C 30 %
1896 24-09-2019 03:55:17 11.3 C 30 %
1897 24-09-2019 04:05:17 10.8 C 30 %
1898 24-09-2019 04:15:17 11 C 30 %
1899 24-09-2019 04:25:17 11.1 C 30 %
1900 24-09-2019 04:35:17 10.8 C 30 %
Sensor: Nr:Datum:Temp:Feuchte:
Aussen-T/F 1901 24-09-2019 04:45:18 10.7 C 30 %
1902 24-09-2019 04:55:18 10.3 C 30 %
1903 24-09-2019 05:05:17 10.1 C 30 %
1904 24-09-2019 05:15:17 10.1 C 30 %
1905 24-09-2019 05:25:18 10.1 C 30 %
1906 24-09-2019 05:35:17 9.8 C 31 %
1907 24-09-2019 05:45:17 9.8 C 31 %
1908 24-09-2019 05:55:17 9.5 C 31 %
1909 24-09-2019 06:05:17 9.4 C 31 %
1910 24-09-2019 06:15:17 9.4 C 31 %
1911 24-09-2019 06:25:17 9.5 C 32 %
1912 24-09-2019 06:35:18 9.5 C 32 %
1913 24-09-2019 06:45:17 9.5 C 32 %
1914 24-09-2019 06:55:17 9.3 C 32 %
1915 24-09-2019 07:05:18 9.2 C 32 %
1916 24-09-2019 07:15:17 9.3 C 32 %
1917 24-09-2019 07:25:17 9.3 C 32 %
1918 24-09-2019 07:35:18 9.2 C 32 %
1919 24-09-2019 07:45:17 9.5 C 33 %
1920 24-09-2019 07:55:17 10 C 33 %
1921 24-09-2019 08:05:18 10.3 C 33 %
1922 24-09-2019 08:15:17 10.5 C 33 %
1923 24-09-2019 08:25:17 10.6 C 32 %
1924 24-09-2019 08:35:17 11 C 32 %
1925 24-09-2019 08:45:17 10.8 C 32 %
Sensor: Nr:Datum:Temp:Feuchte:
Aussen-T/F 1926 24-09-2019 08:55:17 11.1 C 31 %
1927 24-09-2019 09:05:17 11 C 30 %
1928 24-09-2019 09:15:18 11.1 C 30 %
1929 24-09-2019 09:25:18 11.4 C 30 %
1930 24-09-2019 09:35:17 11.7 C 29 %
1931 24-09-2019 09:45:17 11.9 C 29 %
1932 24-09-2019 09:55:17 12.2 C 27 %
1933 24-09-2019 10:05:17 12.4 C 26 %
1934 24-09-2019 10:15:17 12.8 C 26 %
1935 24-09-2019 10:25:17 13.4 C 25 %
1936 24-09-2019 10:35:17 13.5 C 25 %
1937 24-09-2019 10:45:17 14 C 23 %
1938 24-09-2019 10:55:17 14.5 C 25 %
1939 24-09-2019 11:05:17 15 C 22 %
1940 24-09-2019 11:15:17 15.5 C 21 %
1941 24-09-2019 11:25:17 16 C 20 %
1942 24-09-2019 11:35:18 16.3 C 20 %
1943 24-09-2019 11:45:17 17.3 C 20 %
1944 24-09-2019 11:55:17 18.1 C 20 %
1945 24-09-2019 12:05:17 18.1 C 20 %
1946 24-09-2019 12:15:17 18.5 C 20 %
1947 24-09-2019 12:25:17 19 C 20 %
1948 24-09-2019 12:35:18 19.3 C 20 %
1949 24-09-2019 12:45:17 19.4 C 20 %
1950 24-09-2019 12:55:17 18.9 C 20 %
Sensor: Nr:Datum:Temp:Feuchte:
Aussen-T/F 1951 24-09-2019 13:05:18 19.1 C 20 %
1952 24-09-2019 13:15:17 18.9 C 20 %
1953 24-09-2019 13:25:17 19.6 C 20 %
1954 24-09-2019 13:35:17 19.3 C 20 %
1955 24-09-2019 13:45:17 19.8 C 20 %
1956 24-09-2019 13:55:17 20.2 C 20 %
1957 24-09-2019 14:05:17 20.3 C 20 %
1958 24-09-2019 14:15:17 19.8 C 20 %
1959 24-09-2019 14:25:17 19.8 C 20 %
1960 24-09-2019 14:35:17 19.3 C 20 %
1961 24-09-2019 14:45:17 19.2 C 20 %
1962 24-09-2019 14:55:17 19.1 C 20 %
1963 24-09-2019 15:05:17 18.7 C 20 %
1964 24-09-2019 15:15:17 18.7 C 20 %
1965 24-09-2019 15:25:17 18.4 C 20 %
1966 24-09-2019 15:35:17 18.5 C 20 %
1967 24-09-2019 15:45:17 18.6 C 20 %
1968 24-09-2019 15:55:17 18.2 C 20 %
1969 24-09-2019 16:05:17 16.9 C 20 %
1970 24-09-2019 16:15:17 16.5 C 20 %
1971 24-09-2019 16:25:17 16.6 C 20 %
1972 24-09-2019 16:35:17 16.1 C 20 %
1973 24-09-2019 16:45:17 15.9 C 25 %
1974 24-09-2019 16:55:17 16 C 24 %
1975 24-09-2019 17:05:17 16.4 C 22 %
Sensor: Nr:Datum:Temp:Feuchte:
Aussen-T/F 1976 24-09-2019 17:15:17 16.5 C 22 %
1977 24-09-2019 17:25:17 16.4 C 23 %
1978 24-09-2019 17:35:17 16.3 C 24 %
1979 24-09-2019 17:45:17 16.1 C 25 %
1980 24-09-2019 17:55:17 16 C 25 %
1981 24-09-2019 18:05:17 15.7 C 26 %
1982 24-09-2019 18:15:17 15.5 C 26 %
1983 24-09-2019 18:25:17 15.4 C 27 %
1984 24-09-2019 18:35:17 15.2 C 27 %
1985 24-09-2019 18:45:18 15.1 C 28 %
1986 24-09-2019 18:55:18 15.1 C 28 %
1987 24-09-2019 19:05:17 14.9 C 29 %
1988 24-09-2019 19:15:17 14.7 C 29 %
1989 24-09-2019 19:25:17 14.4 C 29 %
1990 24-09-2019 19:35:18 14.3 C 29 %
1991 24-09-2019 19:45:17 14 C 29 %
1992 24-09-2019 19:55:17 13.8 C 29 %
1993 24-09-2019 20:05:18 13.7 C 30 %
1994 24-09-2019 20:15:17 13.7 C 30 %
1995 24-09-2019 20:25:17 13.6 C 30 %
1996 24-09-2019 20:35:17 13.5 C 30 %
1997 24-09-2019 20:45:17 13.5 C 30 %
1998 24-09-2019 20:55:17 13.5 C 30 %
1999 24-09-2019 21:05:17 13.4 C 30 %
2000 24-09-2019 21:15:17 13.4 C 30 %
Sensor: Nr:Datum:Temp:Feuchte:
Aussen-T/F 2001 24-09-2019 21:25:17 13.4 C 30 %
2002 24-09-2019 21:35:17 13.3 C 30 %
2003 24-09-2019 21:45:18 13.4 C 30 %
2004 24-09-2019 21:55:18 13.3 C 30 %
2005 24-09-2019 22:05:17 13.4 C 30 %
2006 24-09-2019 22:15:17 13.4 C 30 %
2007 24-09-2019 22:25:17 13.4 C 30 %
2008 24-09-2019 22:35:17 13.4 C 30 %
2009 24-09-2019 22:45:18 13.4 C 30 %
2010 24-09-2019 22:55:18 13.4 C 31 %
2011 24-09-2019 23:05:17 13.6 C 31 %
2012 24-09-2019 23:15:17 13.5 C 31 %
2013 24-09-2019 23:25:17 13.5 C 31 %
2014 24-09-2019 23:35:17 13.5 C 31 %
2015 24-09-2019 23:45:17 13.5 C 31 %
2016 24-09-2019 23:55:17 13.6 C 31 %
2017 25-09-2019 00:05:18 13.6 C 31 %
2018 25-09-2019 00:15:17 13.7 C 31 %
2019 25-09-2019 00:25:17 13.7 C 31 %
2020 25-09-2019 00:35:17 13.7 C 31 %
2021 25-09-2019 00:45:17 13.7 C 31 %
2022 25-09-2019 00:55:17 13.7 C 31 %
2023 25-09-2019 01:05:18 13.8 C 31 %
2024 25-09-2019 01:15:17 13.8 C 31 %
2025 25-09-2019 01:25:17 13.8 C 31 %
Sensor: Nr:Datum:Temp:Feuchte:
Aussen-T/F 2026 25-09-2019 01:35:17 13.8 C 31 %
2027 25-09-2019 01:45:17 14 C 30 %
2028 25-09-2019 01:55:17 14.2 C 28 %
2029 25-09-2019 02:05:17 14.5 C 26 %
2030 25-09-2019 02:15:18 14.3 C 27 %
2031 25-09-2019 02:25:18 14.7 C 26 %
2032 25-09-2019 02:35:17 14.6 C 26 %
2033 25-09-2019 02:45:17 14.6 C 26 %
2034 25-09-2019 02:55:18 14.4 C 27 %
2035 25-09-2019 03:05:17 14.4 C 28 %
2036 25-09-2019 03:15:18 14.4 C 28 %
2037 25-09-2019 03:25:18 14.6 C 27 %
2038 25-09-2019 03:35:17 14.5 C 27 %
2039 25-09-2019 03:45:17 14.3 C 28 %
2040 25-09-2019 03:55:17 14.3 C 30 %
2041 25-09-2019 04:05:17 14.2 C 30 %
2042 25-09-2019 04:15:17 14.2 C 31 %
2043 25-09-2019 04:25:17 14.2 C 31 %
2044 25-09-2019 04:35:17 14.1 C 31 %
2045 25-09-2019 04:45:17 14.2 C 29 %
2046 25-09-2019 04:55:17 14 C 28 %
2047 25-09-2019 05:05:17 13.9 C 29 %
2048 25-09-2019 05:15:17 13.8 C 29 %
2049 25-09-2019 05:25:17 13.6 C 29 %
2050 25-09-2019 05:35:17 13.5 C 28 %
Sensor: Nr:Datum:Temp:Feuchte:
Aussen-T/F 2051 25-09-2019 05:45:17 13.4 C 28 %
2052 25-09-2019 05:55:17 13.4 C 28 %
2053 25-09-2019 06:05:17 13.4 C 28 %
2054 25-09-2019 06:15:17 13.2 C 29 %
2055 25-09-2019 06:25:17 13.2 C 30 %
2056 25-09-2019 06:35:17 13.3 C 30 %
2057 25-09-2019 06:45:17 13.5 C 28 %
2058 25-09-2019 06:55:17 13.5 C 28 %
2059 25-09-2019 07:05:17 13.4 C 29 %
2060 25-09-2019 07:15:18 13.4 C 29 %
2061 25-09-2019 07:25:18 13.7 C 27 %
2062 25-09-2019 07:35:17 13.6 C 27 %
2063 25-09-2019 07:45:17 13.5 C 27 %
2064 25-09-2019 07:55:18 13.5 C 27 %
2065 25-09-2019 08:05:17 13.3 C 29 %
2066 25-09-2019 08:15:18 13.4 C 30 %
2067 25-09-2019 08:25:18 13.5 C 30 %
2068 25-09-2019 08:35:17 13.7 C 29 %
2069 25-09-2019 08:45:17 13.8 C 29 %
2070 25-09-2019 08:55:17 14 C 28 %
2071 25-09-2019 09:05:18 14 C 28 %
2072 25-09-2019 09:15:17 14 C 28 %
2073 25-09-2019 09:25:17 14.4 C 27 %
2074 25-09-2019 09:35:17 14.6 C 26 %
2075 25-09-2019 09:45:17 14.6 C 26 %
Sensor: Nr:Datum:Temp:Feuchte:
Aussen-T/F 2076 25-09-2019 09:55:17 14.5 C 25 %
2077 25-09-2019 10:05:17 14.5 C 26 %
2078 25-09-2019 10:15:17 15.3 C 23 %
2079 25-09-2019 10:25:17 15.7 C 22 %
2080 25-09-2019 10:35:17 15.8 C 21 %
2081 25-09-2019 10:45:17 15.7 C 22 %
2082 25-09-2019 10:55:17 16 C 20 %
2083 25-09-2019 11:05:18 16.2 C 20 %
2084 25-09-2019 11:15:17 16.5 C 20 %
2085 25-09-2019 11:25:17 16.8 C 20 %
2086 25-09-2019 11:35:17 17 C 20 %
2087 25-09-2019 11:45:17 17.1 C 20 %
2088 25-09-2019 11:55:17 16.8 C 20 %
2089 25-09-2019 12:05:18 17.2 C 20 %
2090 25-09-2019 12:15:17 17.6 C 20 %
2091 25-09-2019 12:25:17 18 C 20 %
2092 25-09-2019 12:35:17 17.1 C 20 %
2093 25-09-2019 12:45:17 17.4 C 20 %
2094 25-09-2019 12:55:17 17.9 C 20 %
2095 25-09-2019 13:05:17 17.6 C 20 %
2096 25-09-2019 13:15:18 17.7 C 20 %
2097 25-09-2019 13:25:18 17.9 C 20 %
2098 25-09-2019 13:35:17 18.4 C 20 %
2099 25-09-2019 13:45:18 18.1 C 20 %
2100 25-09-2019 13:55:18 19.1 C 20 %
Sensor: Nr:Datum:Temp:Feuchte:
Aussen-T/F 2101 25-09-2019 14:05:17 18.8 C 20 %
2102 25-09-2019 14:15:18 18.1 C 20 %
2103 25-09-2019 14:25:18 17.6 C 20 %
2104 25-09-2019 14:35:17 16.9 C 20 %
2105 25-09-2019 14:45:18 16.8 C 20 %
2106 25-09-2019 14:55:18 15.4 C 20 %
2107 25-09-2019 15:05:18 15.6 C 22 %
2108 25-09-2019 15:15:17 16.2 C 21 %
2109 25-09-2019 15:25:17 16.8 C 20 %
2110 25-09-2019 15:35:17 17.1 C 20 %
2111 25-09-2019 15:45:17 16.8 C 20 %
2112 25-09-2019 15:55:17 19.5 C 20 %
2113 25-09-2019 16:05:17 20 C 20 %
2114 25-09-2019 16:15:17 19.7 C 20 %
2115 25-09-2019 16:25:17 20.9 C 20 %
2116 25-09-2019 16:35:17 19.8 C 20 %
2117 25-09-2019 16:45:17 17.7 C 20 %
2118 25-09-2019 16:55:17 18.9 C 20 %
2119 25-09-2019 17:05:17 19.3 C 20 %
2120 25-09-2019 17:15:18 17.9 C 20 %
2121 25-09-2019 17:25:18 17.6 C 20 %
2122 25-09-2019 17:35:17 17.9 C 20 %
2123 25-09-2019 17:45:18 17.7 C 20 %
2124 25-09-2019 17:55:18 17.7 C 20 %
2125 25-09-2019 18:05:17 17.2 C 20 %
Sensor: Nr:Datum:Temp:Feuchte:
Aussen-T/F 2126 25-09-2019 18:15:17 16.4 C 20 %
2127 25-09-2019 18:25:17 16.3 C 20 %
2128 25-09-2019 18:35:17 16 C 20 %
2129 25-09-2019 18:45:17 15.8 C 20 %
2130 25-09-2019 18:55:18 15.8 C 20 %
2131 25-09-2019 19:05:17 15.8 C 20 %
2132 25-09-2019 19:15:18 15.6 C 20 %
2133 25-09-2019 19:25:18 15.4 C 20 %
2134 25-09-2019 19:35:17 15.2 C 21 %
2135 25-09-2019 19:45:18 15.1 C 21 %
2136 25-09-2019 19:55:18 14.8 C 25 %
2137 25-09-2019 20:05:17 14.6 C 25 %
2138 25-09-2019 20:15:17 14.6 C 26 %
2139 25-09-2019 20:25:17 14.5 C 26 %
2140 25-09-2019 20:35:18 14.5 C 26 %
2141 25-09-2019 20:45:17 14.4 C 26 %
2142 25-09-2019 20:55:17 14.4 C 26 %
2143 25-09-2019 21:05:17 14.4 C 26 %
2144 25-09-2019 21:15:17 14.4 C 26 %
2145 25-09-2019 21:25:17 14.4 C 26 %
2146 25-09-2019 21:35:17 14.3 C 26 %
2147 25-09-2019 21:45:18 14.5 C 26 %
2148 25-09-2019 21:55:18 14.4 C 26 %
2149 25-09-2019 22:05:17 14.2 C 27 %
2150 25-09-2019 22:15:18 14.2 C 27 %
Sensor: Nr:Datum:Temp:Feuchte:
Aussen-T/F 2151 25-09-2019 22:25:18 14.2 C 28 %
2152 25-09-2019 22:35:17 14.2 C 30 %
2153 25-09-2019 22:45:17 14.2 C 30 %
2154 25-09-2019 22:55:17 14.2 C 30 %
2155 25-09-2019 23:05:17 14.2 C 30 %
2156 25-09-2019 23:15:18 14.2 C 30 %
2157 25-09-2019 23:25:18 14.1 C 30 %
2158 25-09-2019 23:35:17 14.2 C 30 %
2159 25-09-2019 23:45:18 14.2 C 30 %
2160 25-09-2019 23:55:18 14.2 C 30 %
2161 26-09-2019 00:05:17 14.1 C 30 %
2162 26-09-2019 00:15:17 14.2 C 29 %
2163 26-09-2019 00:25:17 14.1 C 30 %
2164 26-09-2019 00:35:17 14.1 C 30 %
2165 26-09-2019 00:45:18 14.1 C 30 %
2166 26-09-2019 00:55:18 14.1 C 30 %
2167 26-09-2019 01:05:17 14 C 30 %
2168 26-09-2019 01:15:17 13.9 C 30 %
2169 26-09-2019 01:25:17 13.8 C 30 %
2170 26-09-2019 01:35:17 13.5 C 30 %
2171 26-09-2019 01:45:18 13.5 C 31 %
2172 26-09-2019 01:55:18 13.8 C 31 %
2173 26-09-2019 02:05:17 13.8 C 31 %
2174 26-09-2019 02:15:18 13.6 C 31 %
2175 26-09-2019 02:25:18 13.6 C 31 %
Sensor: Nr:Datum:Temp:Feuchte:
Aussen-T/F 2176 26-09-2019 02:35:17 13.8 C 31 %
2177 26-09-2019 02:45:17 13.8 C 31 %
2178 26-09-2019 02:55:18 13.5 C 31 %
2179 26-09-2019 03:05:17 13.1 C 30 %
2180 26-09-2019 03:15:17 13 C 31 %
2181 26-09-2019 03:25:17 13 C 31 %
2182 26-09-2019 03:35:17 12.9 C 32 %
2183 26-09-2019 03:45:17 12.8 C 32 %
2184 26-09-2019 03:55:17 12.8 C 32 %
2185 26-09-2019 04:05:18 12.6 C 32 %
2186 26-09-2019 04:15:17 12.4 C 32 %
2187 26-09-2019 04:25:17 12.7 C 33 %
2188 26-09-2019 04:35:18 12.6 C 33 %
2189 26-09-2019 04:45:17 12.9 C 33 %
2190 26-09-2019 04:55:17 13.2 C 32 %
2191 26-09-2019 05:05:18 13.4 C 32 %
2192 26-09-2019 05:15:17 13.5 C 32 %
2193 26-09-2019 05:25:17 13.6 C 32 %
2194 26-09-2019 05:35:17 13.6 C 31 %
2195 26-09-2019 05:45:17 13.4 C 31 %
2196 26-09-2019 05:55:17 13.5 C 31 %
2197 26-09-2019 06:05:17 13.6 C 31 %
2198 26-09-2019 06:15:17 14 C 30 %
2199 26-09-2019 06:25:17 14.1 C 28 %
2200 26-09-2019 06:35:17 14.1 C 29 %
Sensor: Nr:Datum:Temp:Feuchte:
Aussen-T/F 2201 26-09-2019 06:45:17 14 C 30 %
2202 26-09-2019 06:55:17 14 C 29 %
2203 26-09-2019 07:05:17 14.1 C 29 %
2204 26-09-2019 07:15:17 14.1 C 29 %
2205 26-09-2019 07:25:17 14.2 C 29 %
2206 26-09-2019 07:35:17 14.3 C 29 %
2207 26-09-2019 07:45:17 14.4 C 29 %
2208 26-09-2019 07:55:17 14.5 C 28 %
2209 26-09-2019 08:05:17 14.7 C 27 %
2210 26-09-2019 08:15:18 14.6 C 28 %
2211 26-09-2019 08:25:18 14.5 C 28 %
2212 26-09-2019 08:35:17 14.5 C 28 %
2213 26-09-2019 08:45:18 14.5 C 28 %
2214 26-09-2019 08:55:18 14.8 C 28 %
2215 26-09-2019 09:05:17 14.8 C 28 %
2216 26-09-2019 09:15:17 14.8 C 28 %
2217 26-09-2019 09:25:17 14.9 C 27 %
2218 26-09-2019 09:35:17 14.9 C 27 %
2219 26-09-2019 09:45:17 15 C 26 %
2220 26-09-2019 09:55:17 15.2 C 26 %
2221 26-09-2019 10:05:17 15.3 C 27 %
2222 26-09-2019 10:15:17 15.5 C 27 %
2223 26-09-2019 10:25:17 16.1 C 26 %
2224 26-09-2019 10:35:17 16.2 C 26 %
2225 26-09-2019 10:45:17 16.4 C 26 %
Sensor: Nr:Datum:Temp:Feuchte:
Aussen-T/F 2226 26-09-2019 10:55:17 16.4 C 25 %
2227 26-09-2019 11:05:17 16.2 C 26 %
2228 26-09-2019 11:15:17 16.5 C 26 %
2229 26-09-2019 11:25:17 16.5 C 26 %
2230 26-09-2019 11:35:17 16.6 C 25 %
2231 26-09-2019 11:45:17 16.6 C 25 %
2232 26-09-2019 11:55:17 17.4 C 25 %
2233 26-09-2019 12:05:17 17.7 C 23 %
2234 26-09-2019 12:15:17 17.8 C 23 %
2235 26-09-2019 12:25:17 17.8 C 23 %
2236 26-09-2019 12:35:17 17.8 C 23 %
2237 26-09-2019 12:45:17 17.7 C 24 %
2238 26-09-2019 12:55:17 17.4 C 25 %
2239 26-09-2019 13:05:18 17.3 C 25 %
2240 26-09-2019 13:15:17 17.2 C 25 %
2241 26-09-2019 13:25:17 17.5 C 25 %
2242 26-09-2019 13:35:17 17.4 C 25 %
2243 26-09-2019 13:45:17 17.2 C 25 %
2244 26-09-2019 13:55:17 17 C 25 %
2245 26-09-2019 14:05:17 16.9 C 26 %
2246 26-09-2019 14:15:17 17 C 25 %
2247 26-09-2019 14:25:17 17.3 C 25 %
2248 26-09-2019 14:35:17 17.9 C 25 %
2249 26-09-2019 14:45:17 18.6 C 22 %
2250 26-09-2019 14:55:17 18.6 C 23 %
Sensor: Nr:Datum:Temp:Feuchte:
Aussen-T/F 2251 26-09-2019 15:05:17 18.1 C 23 %
2252 26-09-2019 15:15:17 17.9 C 25 %
2253 26-09-2019 15:25:17 17.7 C 25 %
2254 26-09-2019 15:35:17 18.3 C 24 %
2255 26-09-2019 15:45:17 19.9 C 20 %
2256 26-09-2019 15:55:17 19.5 C 20 %
2257 26-09-2019 16:05:17 19.7 C 20 %
2258 26-09-2019 16:15:17 19.1 C 21 %
2259 26-09-2019 16:25:17 18.7 C 22 %
2260 26-09-2019 16:35:17 18.8 C 21 %
2261 26-09-2019 16:45:18 18.8 C 21 %
2262 26-09-2019 16:55:18 19.1 C 20 %
2263 26-09-2019 17:05:17 19.3 C 20 %
2264 26-09-2019 17:15:17 19.3 C 20 %
2265 26-09-2019 17:25:17 19.1 C 20 %
2266 26-09-2019 17:35:17 19 C 20 %
2267 26-09-2019 17:45:17 18.9 C 21 %
2268 26-09-2019 17:55:17 18.9 C 21 %
2269 26-09-2019 18:05:17 18.8 C 22 %
2270 26-09-2019 18:15:18 18.7 C 22 %
2271 26-09-2019 18:25:18 18.6 C 22 %
2272 26-09-2019 18:35:17 18.4 C 22 %
2273 26-09-2019 18:45:17 18.3 C 23 %
2274 26-09-2019 18:55:17 18.1 C 23 %
2275 26-09-2019 19:05:17 17.8 C 25 %
Sensor: Nr:Datum:Temp:Feuchte:
Aussen-T/F 2276 26-09-2019 19:15:18 17.6 C 25 %
2277 26-09-2019 19:25:18 17.4 C 25 %
2278 26-09-2019 19:35:17 17.3 C 25 %
2279 26-09-2019 19:45:17 17.1 C 26 %
2280 26-09-2019 19:55:17 17.3 C 26 %
2281 26-09-2019 20:05:17 17.2 C 25 %
2282 26-09-2019 20:15:17 17.5 C 23 %
2283 26-09-2019 20:25:17 17.4 C 23 %
2284 26-09-2019 20:35:17 17.3 C 23 %
2285 26-09-2019 20:45:17 17.2 C 23 %
2286 26-09-2019 20:55:17 17.2 C 23 %
2287 26-09-2019 21:05:18 17.1 C 23 %
2288 26-09-2019 21:15:17 17.1 C 23 %
2289 26-09-2019 21:25:17 17.2 C 23 %
2290 26-09-2019 21:35:17 17.3 C 23 %
2291 26-09-2019 21:45:17 17.6 C 22 %
2292 26-09-2019 21:55:17 17.7 C 22 %
2293 26-09-2019 22:05:17 17.7 C 22 %
2294 26-09-2019 22:15:17 17.7 C 22 %
2295 26-09-2019 22:25:17 17.7 C 21 %
2296 26-09-2019 22:35:17 17.8 C 21 %
2297 26-09-2019 22:45:17 17.8 C 21 %
2298 26-09-2019 22:55:17 18 C 21 %
2299 26-09-2019 23:05:18 17.9 C 21 %
2300 26-09-2019 23:15:17 17.9 C 21 %
Sensor: Nr:Datum:Temp:Feuchte:
Aussen-T/F 2301 26-09-2019 23:25:17 17.7 C 21 %
2302 26-09-2019 23:35:17 17.5 C 21 %
2303 26-09-2019 23:45:17 17.8 C 21 %
2304 26-09-2019 23:55:17 18.2 C 20 %
2305 27-09-2019 00:05:18 18.3 C 20 %
2306 27-09-2019 00:15:18 17.9 C 20 %
2307 27-09-2019 00:25:18 18 C 20 %
2308 27-09-2019 00:35:17 18 C 20 %
2309 27-09-2019 00:45:17 17.8 C 20 %
2310 27-09-2019 00:55:18 17.8 C 20 %
2311 27-09-2019 01:05:17 17.8 C 20 %
2312 27-09-2019 01:15:17 18.2 C 20 %
2313 27-09-2019 01:25:17 18.2 C 20 %
2314 27-09-2019 01:35:17 18.3 C 20 %
2315 27-09-2019 01:45:18 18.2 C 20 %
2316 27-09-2019 01:55:18 18.2 C 20 %
2317 27-09-2019 02:05:17 18.1 C 20 %
2318 27-09-2019 02:15:17 18.2 C 20 %
2319 27-09-2019 02:25:17 17.9 C 20 %
2320 27-09-2019 02:35:17 17.8 C 20 %
2321 27-09-2019 02:45:17 16.7 C 21 %
2322 27-09-2019 02:55:17 16.4 C 22 %
2323 27-09-2019 03:05:17 16.1 C 24 %
2324 27-09-2019 03:15:17 15.9 C 26 %
2325 27-09-2019 03:25:17 15.9 C 26 %
Sensor: Nr:Datum:Temp:Feuchte:
Aussen-T/F 2326 27-09-2019 03:35:17 16 C 25 %
2327 27-09-2019 03:45:17 16.1 C 25 %
2328 27-09-2019 03:55:17 16.1 C 25 %
2329 27-09-2019 04:05:17 16.1 C 25 %
2330 27-09-2019 04:15:18 16.1 C 25 %
2331 27-09-2019 04:25:18 15.8 C 26 %
2332 27-09-2019 04:35:17 15.6 C 27 %
2333 27-09-2019 04:45:18 15.9 C 26 %
2334 27-09-2019 04:55:18 15.7 C 27 %
2335 27-09-2019 05:05:17 15.7 C 26 %
2336 27-09-2019 05:15:18 15.7 C 26 %
2337 27-09-2019 05:25:18 15.5 C 27 %
2338 27-09-2019 05:35:17 15.6 C 27 %
2339 27-09-2019 05:45:18 15.4 C 28 %
2340 27-09-2019 05:55:18 15.3 C 30 %
2341 27-09-2019 06:05:17 15.3 C 31 %
2342 27-09-2019 06:15:17 15.2 C 31 %
2343 27-09-2019 06:25:17 15.2 C 32 %
2344 27-09-2019 06:35:17 15.2 C 32 %
2345 27-09-2019 06:45:17 15 C 31 %
2346 27-09-2019 06:55:17 14.1 C 28 %
2347 27-09-2019 07:05:17 14 C 28 %
2348 27-09-2019 07:15:17 13.8 C 30 %
2349 27-09-2019 07:25:17 13.9 C 31 %
2350 27-09-2019 07:35:17 13.8 C 30 %
Sensor: Nr:Datum:Temp:Feuchte:
Aussen-T/F 2351 27-09-2019 07:45:17 13.8 C 29 %
2352 27-09-2019 07:55:17 13.7 C 28 %
2353 27-09-2019 08:05:18 13.6 C 29 %
2354 27-09-2019 08:15:18 13.6 C 29 %
2355 27-09-2019 08:25:18 13.6 C 29 %
2356 27-09-2019 08:35:17 13.7 C 30 %
2357 27-09-2019 08:45:17 13.5 C 30 %
2358 27-09-2019 08:55:17 13.4 C 30 %
2359 27-09-2019 09:05:17 13.6 C 29 %
2360 27-09-2019 09:15:17 13.8 C 27 %
2361 27-09-2019 09:25:17 13.7 C 27 %
2362 27-09-2019 09:35:18 13.7 C 27 %
2363 27-09-2019 09:45:17 14 C 26 %
2364 27-09-2019 09:55:17 14.2 C 26 %
2365 27-09-2019 10:05:17 14.4 C 26 %
2366 27-09-2019 10:15:18 14.8 C 26 %
2367 27-09-2019 10:25:18 15 C 25 %
2368 27-09-2019 10:35:17 15 C 25 %
2369 27-09-2019 10:45:18 15.1 C 25 %
2370 27-09-2019 10:55:18 15.4 C 25 %
2371 27-09-2019 11:05:17 15.7 C 24 %
2372 27-09-2019 11:15:18 15.7 C 24 %
2373 27-09-2019 11:25:18 15.3 C 24 %
2374 27-09-2019 11:35:17 15.2 C 25 %
2375 27-09-2019 11:45:18 15.6 C 24 %
Sensor: Nr:Datum:Temp:Feuchte:
Aussen-T/F 2376 27-09-2019 11:55:18 16.1 C 22 %
2377 27-09-2019 12:05:17 16.1 C 22 %
2378 27-09-2019 12:15:17 16 C 22 %
2379 27-09-2019 12:25:17 16.4 C 22 %
2380 27-09-2019 12:35:18 16.6 C 21 %
2381 27-09-2019 12:45:17 16.8 C 21 %
2382 27-09-2019 12:55:17 17.2 C 20 %
2383 27-09-2019 13:05:17 17.2 C 20 %
2384 27-09-2019 13:15:17 17.2 C 20 %
2385 27-09-2019 13:25:17 17.4 C 20 %
2386 27-09-2019 13:35:17 17.7 C 20 %
2387 27-09-2019 13:45:17 18 C 20 %
2388 27-09-2019 13:55:17 18.9 C 20 %
2389 27-09-2019 14:05:17 19.1 C 20 %
2390 27-09-2019 14:15:17 19.9 C 20 %
2391 27-09-2019 14:25:17 19 C 20 %
2392 27-09-2019 14:35:17 19.3 C 20 %
2393 27-09-2019 14:45:17 19 C 20 %
2394 27-09-2019 14:55:17 19.3 C 20 %
2395 27-09-2019 15:05:17 19 C 20 %
2396 27-09-2019 15:15:17 18.8 C 20 %
2397 27-09-2019 15:25:17 18.6 C 20 %
2398 27-09-2019 15:35:18 18.6 C 20 %
2399 27-09-2019 15:45:17 18.1 C 20 %
2400 27-09-2019 15:55:17 17.6 C 20 %
Sensor: Nr:Datum:Temp:Feuchte:
Aussen-T/F 2401 27-09-2019 16:05:17 18.9 C 20 %
2402 27-09-2019 16:15:17 19.9 C 20 %
2403 27-09-2019 16:25:17 22.4 C 20 %
2404 27-09-2019 16:35:17 22 C 20 %
2405 27-09-2019 16:45:18 22.8 C 20 %
2406 27-09-2019 16:55:18 21.3 C 20 %
2407 27-09-2019 17:05:17 21.7 C 20 %
2408 27-09-2019 17:15:17 21.6 C 20 %
2409 27-09-2019 17:25:17 19.9 C 20 %
2410 27-09-2019 17:35:18 20.2 C 20 %
2411 27-09-2019 17:45:17 19.4 C 20 %
2412 27-09-2019 17:55:17 18.8 C 20 %
2413 27-09-2019 18:05:18 18.2 C 20 %
2414 27-09-2019 18:15:17 17.7 C 20 %
2415 27-09-2019 18:25:17 17.4 C 20 %
2416 27-09-2019 18:35:17 17.9 C 20 %
2417 27-09-2019 18:45:17 17.7 C 20 %
2418 27-09-2019 18:55:17 17.1 C 20 %
2419 27-09-2019 19:05:17 16.4 C 20 %
2420 27-09-2019 19:15:17 15.6 C 20 %
2421 27-09-2019 19:25:17 15.5 C 20 %
2422 27-09-2019 19:35:17 15.5 C 20 %
2423 27-09-2019 19:45:17 15.4 C 20 %
2424 27-09-2019 19:55:17 15.1 C 20 %
2425 27-09-2019 20:05:18 15.2 C 20 %
Sensor: Nr:Datum:Temp:Feuchte:
Aussen-T/F 2426 27-09-2019 20:15:17 15.1 C 20 %
2427 27-09-2019 20:25:17 15.1 C 21 %
2428 27-09-2019 20:35:17 15 C 22 %
2429 27-09-2019 20:45:17 14.7 C 25 %
2430 27-09-2019 20:55:17 14.3 C 25 %
2431 27-09-2019 21:05:17 14.1 C 25 %
2432 27-09-2019 21:15:17 13.9 C 25 %
2433 27-09-2019 21:25:17 13.8 C 25 %
2434 27-09-2019 21:35:17 13.9 C 25 %
2435 27-09-2019 21:45:17 13.8 C 26 %
2436 27-09-2019 21:55:17 13.7 C 26 %
2437 27-09-2019 22:05:17 13.7 C 27 %
2438 27-09-2019 22:15:18 13.6 C 27 %
2439 27-09-2019 22:25:18 13.3 C 26 %
2440 27-09-2019 22:35:17 13.1 C 27 %
2441 27-09-2019 22:45:18 13.1 C 28 %
2442 27-09-2019 22:55:18 13.4 C 30 %
2443 27-09-2019 23:05:17 13.6 C 29 %
2444 27-09-2019 23:15:17 13.1 C 28 %
2445 27-09-2019 23:25:17 12.9 C 29 %
2446 27-09-2019 23:35:17 12.8 C 30 %
2447 27-09-2019 23:45:17 12.7 C 30 %
2448 27-09-2019 23:55:17 12.5 C 30 %
2449 28-09-2019 00:05:18 12.4 C 30 %
2450 28-09-2019 00:15:17 12.3 C 30 %
Sensor: Nr:Datum:Temp:Feuchte:
Aussen-T/F 2451 28-09-2019 00:25:17 12.1 C 30 %
2452 28-09-2019 00:35:17 12.2 C 31 %
2453 28-09-2019 00:45:17 12.3 C 31 %
2454 28-09-2019 00:55:17 12.1 C 31 %
2455 28-09-2019 01:05:18 12.3 C 31 %
2456 28-09-2019 01:15:17 12.2 C 31 %
2457 28-09-2019 01:25:17 12.2 C 31 %
2458 28-09-2019 01:35:18 12.6 C 30 %
2459 28-09-2019 01:45:17 13 C 28 %
2460 28-09-2019 01:55:17 14.2 C 25 %
2461 28-09-2019 02:05:18 14.2 C 25 %
2462 28-09-2019 02:15:17 14.7 C 24 %
2463 28-09-2019 02:25:17 14.7 C 23 %
2464 28-09-2019 02:35:17 14.6 C 23 %
2465 28-09-2019 02:45:17 14.8 C 23 %
2466 28-09-2019 02:55:17 14.9 C 23 %
2467 28-09-2019 03:05:18 14.9 C 23 %
2468 28-09-2019 03:15:17 15.2 C 22 %
2469 28-09-2019 03:25:17 14.8 C 23 %
2470 28-09-2019 03:35:17 14.4 C 25 %
2471 28-09-2019 03:45:17 14.1 C 26 %
2472 28-09-2019 03:55:17 13.7 C 26 %
2473 28-09-2019 04:05:17 13.8 C 27 %
2474 28-09-2019 04:15:18 13.5 C 27 %
2475 28-09-2019 04:25:18 14 C 26 %
Sensor: Nr:Datum:Temp:Feuchte:
Aussen-T/F 2476 28-09-2019 04:35:17 13.7 C 26 %
2477 28-09-2019 04:45:17 14.1 C 25 %
2478 28-09-2019 04:55:17 14.1 C 25 %
2479 28-09-2019 05:05:17 14.1 C 25 %
2480 28-09-2019 05:15:17 14 C 25 %
2481 28-09-2019 05:25:17 14.1 C 25 %
2482 28-09-2019 05:35:17 14 C 25 %
2483 28-09-2019 05:45:18 14.2 C 25 %
2484 28-09-2019 05:55:18 14.2 C 25 %
2485 28-09-2019 06:05:17 14.4 C 25 %
2486 28-09-2019 06:15:17 14.1 C 25 %
2487 28-09-2019 06:25:17 14 C 25 %
2488 28-09-2019 06:35:18 14.4 C 25 %
2489 28-09-2019 06:45:17 13.8 C 26 %
2490 28-09-2019 06:55:17 13.8 C 26 %
2491 28-09-2019 07:05:17 13.5 C 26 %
2492 28-09-2019 07:15:17 13.6 C 27 %
2493 28-09-2019 07:25:17 13.3 C 29 %
2494 28-09-2019 07:35:17 13.5 C 28 %
2495 28-09-2019 07:45:18 13.5 C 29 %
2496 28-09-2019 07:55:18 13.4 C 30 %
2497 28-09-2019 08:05:17 13.2 C 30 %
2498 28-09-2019 08:15:18 13.8 C 26 %
2499 28-09-2019 08:25:18 13.8 C 25 %
2500 28-09-2019 08:35:17 13.7 C 26 %
Sensor: Nr:Datum:Temp:Feuchte:
Aussen-T/F 2501 28-09-2019 08:45:18 13.5 C 26 %
2502 28-09-2019 08:55:18 13.8 C 25 %
2503 28-09-2019 09:05:17 14.1 C 25 %
2504 28-09-2019 09:15:17 14.5 C 24 %
2505 28-09-2019 09:25:17 14.3 C 24 %
2506 28-09-2019 09:35:18 14.5 C 23 %
2507 28-09-2019 09:45:17 14.4 C 23 %
2508 28-09-2019 09:55:17 14.8 C 22 %
2509 28-09-2019 10:05:18 15 C 21 %
2510 28-09-2019 10:15:17 15.5 C 20 %
2511 28-09-2019 10:25:17 15.6 C 20 %
2512 28-09-2019 10:35:17 16 C 20 %
2513 28-09-2019 10:45:17 16.2 C 20 %
2514 28-09-2019 10:55:17 16.1 C 20 %
2515 28-09-2019 11:05:18 16 C 20 %
2516 28-09-2019 11:15:17 16.6 C 20 %
2517 28-09-2019 11:25:17 16.7 C 20 %
2518 28-09-2019 11:35:18 17 C 20 %
2519 28-09-2019 11:45:17 16.6 C 20 %
2520 28-09-2019 11:55:17 16.9 C 20 %
2521 28-09-2019 12:05:17 17.1 C 20 %
2522 28-09-2019 12:15:17 17.4 C 20 %
2523 28-09-2019 12:25:17 17.3 C 20 %
2524 28-09-2019 12:35:17 17.2 C 20 %
2525 28-09-2019 12:45:17 17.4 C 20 %
Sensor: Nr:Datum:Temp:Feuchte:
Aussen-T/F 2526 28-09-2019 12:55:17 17.8 C 20 %
2527 28-09-2019 13:05:18 17.5 C 20 %
2528 28-09-2019 13:15:17 17.6 C 20 %
2529 28-09-2019 13:25:17 17.4 C 20 %
2530 28-09-2019 13:35:17 17.7 C 20 %
2531 28-09-2019 13:45:17 17.8 C 20 %
2532 28-09-2019 13:55:17 17.9 C 20 %
2533 28-09-2019 14:05:17 18.3 C 20 %
2534 28-09-2019 14:15:17 18.3 C 20 %
2535 28-09-2019 14:25:18 17.8 C 20 %
2536 28-09-2019 14:35:17 18.1 C 20 %
2537 28-09-2019 14:45:18 17.8 C 20 %
2538 28-09-2019 14:55:18 18.4 C 20 %
2539 28-09-2019 15:05:17 18.1 C 20 %
2540 28-09-2019 15:15:17 17.7 C 20 %
2541 28-09-2019 15:25:17 17.3 C 20 %
2542 28-09-2019 15:35:17 17.5 C 20 %
2543 28-09-2019 15:45:18 17.3 C 20 %
2544 28-09-2019 15:55:18 16.8 C 20 %
2545 28-09-2019 16:05:17 17.1 C 20 %
2546 28-09-2019 16:15:17 19.7 C 20 %
2547 28-09-2019 16:25:17 20.3 C 20 %
2548 28-09-2019 16:35:17 19.6 C 20 %
2549 28-09-2019 16:45:17 19 C 20 %
2550 28-09-2019 16:55:17 18.7 C 20 %
Sensor: Nr:Datum:Temp:Feuchte:
Aussen-T/F 2551 28-09-2019 17:05:17 18.6 C 20 %
2552 28-09-2019 17:15:18 17.3 C 20 %
2553 28-09-2019 17:25:18 19 C 20 %
2554 28-09-2019 17:35:17 19.2 C 20 %
2555 28-09-2019 17:45:18 18.3 C 20 %
2556 28-09-2019 17:55:18 17.7 C 20 %
2557 28-09-2019 18:05:17 17.7 C 20 %
2558 28-09-2019 18:15:17 17.3 C 20 %
2559 28-09-2019 18:25:17 17 C 20 %
2560 28-09-2019 18:35:17 16.4 C 20 %
2561 28-09-2019 18:45:18 16.2 C 20 %
2562 28-09-2019 18:55:18 15.9 C 20 %
2563 28-09-2019 19:05:17 15.8 C 20 %
2564 28-09-2019 19:15:17 15.4 C 20 %
2565 28-09-2019 19:25:17 15.6 C 20 %
2566 28-09-2019 19:35:17 15.6 C 20 %
2567 28-09-2019 19:45:17 15.9 C 20 %
2568 28-09-2019 19:55:17 15.9 C 20 %
2569 28-09-2019 20:05:18 15.6 C 20 %
2570 28-09-2019 20:15:17 15.3 C 20 %
2571 28-09-2019 20:25:17 15 C 20 %
2572 28-09-2019 20:35:17 14.8 C 20 %
2573 28-09-2019 20:45:17 15.3 C 20 %
2574 28-09-2019 20:55:17 15.4 C 20 %
2575 28-09-2019 21:05:17 14.8 C 20 %
Sensor: Nr:Datum:Temp:Feuchte:
Aussen-T/F 2576 28-09-2019 21:15:18 14.7 C 20 %
2577 28-09-2019 21:25:18 15.1 C 20 %
2578 28-09-2019 21:35:17 15.1 C 20 %
2579 28-09-2019 21:45:18 15.3 C 20 %
2580 28-09-2019 21:55:18 15.4 C 20 %
2581 28-09-2019 22:05:17 15.4 C 20 %
2582 28-09-2019 22:15:17 15.4 C 20 %
2583 28-09-2019 22:25:17 15.1 C 20 %
2584 28-09-2019 22:35:17 14.8 C 20 %
2585 28-09-2019 22:45:17 14.2 C 20 %
2586 28-09-2019 22:55:17 14.1 C 20 %
2587 28-09-2019 23:05:17 13.4 C 20 %
2588 28-09-2019 23:15:17 13.8 C 20 %
2589 28-09-2019 23:25:17 13.9 C 20 %
2590 28-09-2019 23:35:17 14.7 C 20 %
2591 28-09-2019 23:45:17 14 C 20 %
2592 28-09-2019 23:55:17 14 C 20 %
2593 29-09-2019 00:05:17 13.8 C 20 %
2594 29-09-2019 00:15:17 13.9 C 20 %
2595 29-09-2019 00:25:17 14.3 C 20 %
2596 29-09-2019 00:35:17 14.2 C 20 %
2597 29-09-2019 00:45:18 14.2 C 20 %
2598 29-09-2019 00:55:18 14 C 20 %
2599 29-09-2019 01:05:17 14.1 C 20 %
2600 29-09-2019 01:15:18 13.9 C 20 %
Sensor: Nr:Datum:Temp:Feuchte:
Aussen-T/F 2601 29-09-2019 01:25:18 13.7 C 20 %
2602 29-09-2019 01:35:17 13.5 C 20 %
2603 29-09-2019 01:45:17 13.4 C 21 %
2604 29-09-2019 01:55:17 13.4 C 22 %
2605 29-09-2019 02:05:17 13.3 C 22 %
2606 29-09-2019 02:15:17 13.2 C 23 %
2607 29-09-2019 02:25:18 13.2 C 23 %
2608 29-09-2019 02:35:17 13.3 C 23 %
2609 29-09-2019 02:45:18 13.7 C 23 %
2610 29-09-2019 02:55:18 13.3 C 24 %
2611 29-09-2019 03:05:17 13.2 C 24 %
2612 29-09-2019 03:15:18 13.2 C 25 %
2613 29-09-2019 03:25:18 13.2 C 24 %
2614 29-09-2019 03:35:17 13.1 C 25 %
2615 29-09-2019 03:45:17 13.1 C 25 %
2616 29-09-2019 03:55:17 13.2 C 25 %
2617 29-09-2019 04:05:17 13.3 C 25 %
2618 29-09-2019 04:15:17 13.2 C 25 %
2619 29-09-2019 04:25:17 13.3 C 25 %
2620 29-09-2019 04:35:17 13.4 C 25 %
2621 29-09-2019 04:45:17 13.5 C 25 %
2622 29-09-2019 04:55:17 13.7 C 24 %
2623 29-09-2019 05:05:18 13.6 C 25 %
2624 29-09-2019 05:15:17 13.8 C 23 %
2625 29-09-2019 05:25:17 13.7 C 23 %
Sensor: Nr:Datum:Temp:Feuchte:
Aussen-T/F 2626 29-09-2019 05:35:18 13.5 C 22 %
2627 29-09-2019 05:45:17 13.7 C 23 %
2628 29-09-2019 05:55:17 13.6 C 22 %
2629 29-09-2019 06:05:17 13.8 C 21 %
2630 29-09-2019 06:15:17 13.8 C 21 %
2631 29-09-2019 06:25:17 13.7 C 21 %
2632 29-09-2019 06:35:18 13.3 C 23 %
2633 29-09-2019 06:45:17 13.4 C 21 %
2634 29-09-2019 06:55:17 13.7 C 21 %
2635 29-09-2019 07:05:18 13.7 C 21 %
2636 29-09-2019 07:15:17 13.7 C 21 %
2637 29-09-2019 07:25:17 13.7 C 21 %
2638 29-09-2019 07:35:17 13.6 C 21 %
2639 29-09-2019 07:45:17 14 C 21 %
2640 29-09-2019 07:55:17 14.1 C 21 %
2641 29-09-2019 08:05:18 14.6 C 20 %
2642 29-09-2019 08:15:17 14.8 C 20 %
2643 29-09-2019 08:25:17 14.8 C 20 %
2644 29-09-2019 08:35:17 14.8 C 20 %
2645 29-09-2019 08:45:17 15.5 C 20 %
2646 29-09-2019 08:55:17 16.2 C 20 %
2647 29-09-2019 09:05:17 16.4 C 20 %
2648 29-09-2019 09:15:17 16.7 C 20 %
2649 29-09-2019 09:25:17 16.7 C 20 %
2650 29-09-2019 09:35:17 16.8 C 20 %
Sensor: Nr:Datum:Temp:Feuchte:
Aussen-T/F 2651 29-09-2019 09:45:17 17 C 20 %
2652 29-09-2019 09:55:17 17.3 C 20 %
2653 29-09-2019 10:05:17 17.3 C 20 %
2654 29-09-2019 10:15:17 17.3 C 20 %
2655 29-09-2019 10:25:17 17.6 C 20 %
2656 29-09-2019 10:35:17 17.9 C 20 %
2657 29-09-2019 10:45:17 18.3 C 20 %
2658 29-09-2019 10:55:17 17.9 C 20 %
2659 29-09-2019 11:05:17 17.8 C 20 %
2660 29-09-2019 11:15:17 17.7 C 20 %
2661 29-09-2019 11:25:18 17.7 C 20 %
2662 29-09-2019 11:35:17 18 C 20 %
2663 29-09-2019 11:45:17 18.5 C 20 %
2664 29-09-2019 11:55:17 19 C 20 %
2665 29-09-2019 12:05:17 19 C 20 %
2666 29-09-2019 12:15:17 18.7 C 20 %
2667 29-09-2019 12:25:17 18.5 C 20 %
2668 29-09-2019 12:35:18 17.4 C 20 %
2669 29-09-2019 12:45:17 17.7 C 20 %
2670 29-09-2019 12:55:17 18.8 C 20 %
2671 29-09-2019 13:05:18 18.6 C 20 %
2672 29-09-2019 13:15:17 18.4 C 20 %
2673 29-09-2019 13:25:17 17.9 C 20 %
2674 29-09-2019 13:35:18 17.7 C 20 %
2675 29-09-2019 13:45:17 18.4 C 20 %
Sensor: Nr:Datum:Temp:Feuchte:
Aussen-T/F 2676 29-09-2019 13:55:17 19 C 20 %
2677 29-09-2019 14:05:18 18.9 C 20 %
2678 29-09-2019 14:15:17 19.6 C 20 %
2679 29-09-2019 14:25:17 19.3 C 20 %
2680 29-09-2019 14:35:18 18.9 C 20 %
2681 29-09-2019 14:45:17 18.5 C 20 %
2682 29-09-2019 14:55:17 18.3 C 20 %
2683 29-09-2019 15:05:18 18.4 C 20 %
2684 29-09-2019 15:15:18 18.8 C 20 %
2685 29-09-2019 15:25:18 19.1 C 20 %
2686 29-09-2019 15:35:17 18.6 C 20 %
2687 29-09-2019 15:45:17 18.5 C 20 %
2688 29-09-2019 15:55:18 17.7 C 20 %
2689 29-09-2019 16:05:17 16.7 C 20 %
2690 29-09-2019 16:15:18 16.8 C 20 %
2691 29-09-2019 16:25:18 17 C 20 %
2692 29-09-2019 16:35:17 16.9 C 20 %
2693 29-09-2019 16:45:17 16.7 C 20 %
2694 29-09-2019 16:55:17 16.7 C 20 %
2695 29-09-2019 17:05:17 16.9 C 20 %
2696 29-09-2019 17:15:17 16.9 C 20 %
2697 29-09-2019 17:25:17 17.1 C 20 %
2698 29-09-2019 17:35:17 17.3 C 20 %
2699 29-09-2019 17:45:18 17.5 C 20 %
2700 29-09-2019 17:55:18 17.7 C 20 %
Sensor: Nr:Datum:Temp:Feuchte:
Aussen-T/F 2701 29-09-2019 18:05:17 17.7 C 20 %
2702 29-09-2019 18:15:17 17.6 C 20 %
2703 29-09-2019 18:25:17 17.7 C 20 %
2704 29-09-2019 18:35:17 16.9 C 20 %
2705 29-09-2019 18:45:18 16.9 C 20 %
2706 29-09-2019 18:55:18 17.4 C 20 %
2707 29-09-2019 19:05:17 17.5 C 20 %
2708 29-09-2019 19:15:18 17.7 C 20 %
2709 29-09-2019 19:25:18 17.9 C 20 %
2710 29-09-2019 19:35:17 18 C 20 %
2711 29-09-2019 19:45:18 18 C 20 %
2712 29-09-2019 19:55:18 17.5 C 20 %
2713 29-09-2019 20:05:17 16.6 C 22 %
2714 29-09-2019 20:15:17 16.2 C 25 %
2715 29-09-2019 20:25:17 16 C 25 %
2716 29-09-2019 20:35:17 16.2 C 25 %
2717 29-09-2019 20:45:18 16.5 C 25 %
2718 29-09-2019 20:55:18 16.5 C 25 %
2719 29-09-2019 21:05:17 16 C 27 %
2720 29-09-2019 21:15:17 16.3 C 27 %
2721 29-09-2019 21:25:17 16.4 C 26 %
2722 29-09-2019 21:35:17 16.3 C 27 %
2723 29-09-2019 21:45:18 16.6 C 26 %
2724 29-09-2019 21:55:18 16.7 C 25 %
2725 29-09-2019 22:05:17 16.8 C 25 %
Sensor: Nr:Datum:Temp:Feuchte:
Aussen-T/F 2726 29-09-2019 22:15:17 16.9 C 25 %
2727 29-09-2019 22:25:17 16.6 C 25 %
2728 29-09-2019 22:35:17 16.4 C 26 %
2729 29-09-2019 22:45:18 16.4 C 27 %
2730 29-09-2019 22:55:18 16.4 C 26 %
2731 29-09-2019 23:05:17 16.7 C 25 %
2732 29-09-2019 23:15:17 17 C 25 %
2733 29-09-2019 23:25:17 16.2 C 25 %
2734 29-09-2019 23:35:17 16.4 C 25 %
2735 29-09-2019 23:45:17 15.8 C 26 %
2736 29-09-2019 23:55:17 16.2 C 24 %
2737 30-09-2019 00:05:18 15.9 C 23 %
2738 30-09-2019 00:15:17 15.8 C 21 %
2739 30-09-2019 00:25:17 16 C 20 %
2740 30-09-2019 00:35:18 15.9 C 20 %
2741 30-09-2019 00:45:17 16 C 20 %
2742 30-09-2019 00:55:17 15.7 C 20 %
2743 30-09-2019 01:05:17 15.6 C 20 %
2744 30-09-2019 01:15:17 15.4 C 21 %
2745 30-09-2019 01:25:17 15.4 C 21 %
2746 30-09-2019 01:35:17 15.1 C 21 %
2747 30-09-2019 01:45:18 14.7 C 23 %
2748 30-09-2019 01:55:18 14.6 C 23 %
2749 30-09-2019 02:05:17 15 C 21 %
2750 30-09-2019 02:15:17 15.2 C 21 %
Sensor: Nr:Datum:Temp:Feuchte:
Aussen-T/F 2751 30-09-2019 02:25:17 15.2 C 21 %
2752 30-09-2019 02:35:17 15.3 C 21 %
2753 30-09-2019 02:45:17 15.2 C 21 %
2754 30-09-2019 02:55:18 15 C 21 %
2755 30-09-2019 03:05:17 15 C 21 %
2756 30-09-2019 03:15:17 15.1 C 21 %
2757 30-09-2019 03:25:17 15.4 C 21 %
2758 30-09-2019 03:35:17 15.2 C 21 %
2759 30-09-2019 03:45:17 14.6 C 23 %
2760 30-09-2019 03:55:18 14.7 C 25 %
2761 30-09-2019 04:05:17 14.8 C 24 %
2762 30-09-2019 04:15:17 14.7 C 23 %
2763 30-09-2019 04:25:17 14.9 C 23 %
2764 30-09-2019 04:35:17 14.2 C 25 %
2765 30-09-2019 04:45:18 13.7 C 28 %
2766 30-09-2019 04:55:18 13.4 C 27 %
2767 30-09-2019 05:05:17 13.2 C 27 %
2768 30-09-2019 05:15:17 13.3 C 26 %
2769 30-09-2019 05:25:17 13.4 C 26 %
2770 30-09-2019 05:35:17 13.3 C 26 %
2771 30-09-2019 05:45:18 13 C 27 %
2772 30-09-2019 05:55:18 12.9 C 28 %
2773 30-09-2019 06:05:17 12.7 C 30 %
2774 30-09-2019 06:15:17 13.2 C 25 %
2775 30-09-2019 06:25:17 13.2 C 25 %
Sensor: Nr:Datum:Temp:Feuchte:
Aussen-T/F 2776 30-09-2019 06:35:18 13 C 25 %
2777 30-09-2019 06:45:17 13.1 C 25 %
2778 30-09-2019 06:55:17 13.1 C 25 %
2779 30-09-2019 07:05:18 13.1 C 25 %
2780 30-09-2019 07:15:17 13.2 C 24 %
2781 30-09-2019 07:25:17 13.3 C 23 %
2782 30-09-2019 07:35:17 13.3 C 23 %
2783 30-09-2019 07:45:17 13.2 C 23 %
2784 30-09-2019 07:55:17 13.2 C 23 %
2785 30-09-2019 08:05:17 13.5 C 21 %
2786 30-09-2019 08:15:18 13.6 C 21 %
2787 30-09-2019 08:25:18 13.5 C 21 %
2788 30-09-2019 08:35:17 13.3 C 21 %
2789 30-09-2019 08:45:17 13.6 C 20 %
2790 30-09-2019 08:55:17 13.7 C 20 %
2791 30-09-2019 09:05:17 13.9 C 20 %
2792 30-09-2019 09:15:17 14 C 20 %
2793 30-09-2019 09:25:17 14.1 C 20 %
2794 30-09-2019 09:35:17 14.3 C 20 %
2795 30-09-2019 09:45:18 14.4 C 20 %
2796 30-09-2019 09:55:18 14.2 C 20 %
2797 30-09-2019 10:05:17 14.5 C 20 %
2798 30-09-2019 10:15:17 14.3 C 20 %
2799 30-09-2019 10:25:17 14.3 C 20 %
2800 30-09-2019 10:35:17 14.6 C 20 %
Sensor: Nr:Datum:Temp:Feuchte:
Aussen-T/F 2801 30-09-2019 10:45:17 14.9 C 20 %
2802 30-09-2019 10:55:17 15.1 C 20 %
2803 30-09-2019 11:05:18 15 C 20 %
2804 30-09-2019 11:15:17 15.3 C 20 %
2805 30-09-2019 11:25:17 15.2 C 20 %
2806 30-09-2019 11:35:17 15.6 C 20 %
2807 30-09-2019 11:45:17 15.8 C 20 %
2808 30-09-2019 11:55:17 15.6 C 20 %
2809 30-09-2019 12:05:17 15.7 C 20 %
2810 30-09-2019 12:15:18 15.7 C 20 %
2811 30-09-2019 12:25:18 16 C 20 %
2812 30-09-2019 12:35:17 16.3 C 20 %
2813 30-09-2019 12:45:17 16.2 C 20 %
2814 30-09-2019 12:55:18 16.2 C 20 %
2815 30-09-2019 13:05:17 16.3 C 20 %
2816 30-09-2019 13:15:18 16.4 C 20 %
2817 30-09-2019 13:25:18 16.9 C 20 %
2818 30-09-2019 13:35:17 17.5 C 20 %
2819 30-09-2019 13:45:17 17.1 C 20 %
2820 30-09-2019 13:55:17 17.4 C 20 %
2821 30-09-2019 14:05:17 17.3 C 20 %
2822 30-09-2019 14:15:17 17.3 C 20 %
2823 30-09-2019 14:25:17 17.5 C 20 %
2824 30-09-2019 14:35:17 17.9 C 20 %
2825 30-09-2019 14:45:18 18 C 20 %
Sensor: Nr:Datum:Temp:Feuchte:
Aussen-T/F 2826 30-09-2019 14:55:18 18.5 C 20 %
2827 30-09-2019 15:05:17 18.6 C 20 %
2828 30-09-2019 15:15:18 18.1 C 20 %
2829 30-09-2019 15:25:18 18.5 C 20 %
2830 30-09-2019 15:35:17 18.6 C 20 %
2831 30-09-2019 15:45:17 18.6 C 20 %
2832 30-09-2019 15:55:18 19.5 C 20 %
2833 30-09-2019 16:05:17 20.1 C 20 %
2834 30-09-2019 16:15:17 21.3 C 20 %
2835 30-09-2019 16:25:17 22.2 C 20 %
2836 30-09-2019 16:35:17 20.3 C 20 %
2837 30-09-2019 16:45:17 21.7 C 20 %
2838 30-09-2019 16:55:17 21.6 C 20 %
2839 30-09-2019 17:05:17 19.9 C 20 %
2840 30-09-2019 17:15:17 19.2 C 20 %
2841 30-09-2019 17:25:17 19.1 C 20 %
2842 30-09-2019 17:35:17 18.8 C 20 %
2843 30-09-2019 17:45:18 18.5 C 20 %
2844 30-09-2019 17:55:18 18.1 C 20 %
2845 30-09-2019 18:05:18 18.1 C 20 %
2846 30-09-2019 18:15:17 17.7 C 20 %
2847 30-09-2019 18:25:17 17.4 C 20 %
2848 30-09-2019 18:35:17 16.6 C 20 %
2849 30-09-2019 18:45:17 15.5 C 20 %
2850 30-09-2019 18:55:17 15 C 20 %
Sensor: Nr:Datum:Temp:Feuchte:
Aussen-T/F 2851 30-09-2019 19:05:17 15 C 20 %
2852 30-09-2019 19:15:17 14.7 C 20 %
2853 30-09-2019 19:25:17 14.5 C 20 %
2854 30-09-2019 19:35:17 14.6 C 20 %
2855 30-09-2019 19:45:17 14.7 C 20 %
2856 30-09-2019 19:55:17 14.1 C 20 %
2857 30-09-2019 20:05:17 14.5 C 20 %
2858 30-09-2019 20:15:17 14.3 C 20 %
2859 30-09-2019 20:25:17 14.2 C 20 %
2860 30-09-2019 20:35:17 14.7 C 20 %
2861 30-09-2019 20:45:18 14.9 C 20 %
2862 30-09-2019 20:55:18 15.1 C 20 %
2863 30-09-2019 21:05:17 15 C 20 %
2864 30-09-2019 21:15:17 15 C 20 %
2865 30-09-2019 21:25:17 14.4 C 20 %
2866 30-09-2019 21:35:18 14.2 C 20 %
2867 30-09-2019 21:45:17 14.7 C 20 %
2868 30-09-2019 21:55:17 14.9 C 20 %
2869 30-09-2019 22:05:18 14.8 C 20 %
2870 30-09-2019 22:15:17 14.9 C 20 %
2871 30-09-2019 22:25:17 14.9 C 20 %
2872 30-09-2019 22:35:18 15 C 20 %
2873 30-09-2019 22:45:17 15.1 C 20 %
2874 30-09-2019 22:55:17 14.4 C 20 %
2875 30-09-2019 23:05:17 13.7 C 20 %
Sensor: Nr:Datum:Temp:Feuchte:
Aussen-T/F 2876 30-09-2019 23:15:17 13.5 C 21 %
2877 30-09-2019 23:25:17 13.6 C 21 %
2878 30-09-2019 23:35:17 14.3 C 20 %
2879 30-09-2019 23:45:17 14.3 C 20 %
2880 30-09-2019 23:55:17 14.5 C 20 %
2881 01-10-2019 00:05:17 14.4 C 20 %
2882 01-10-2019 00:15:17 14.3 C 20 %
2883 01-10-2019 00:25:17 14.2 C 20 %
2884 01-10-2019 00:35:17 14 C 20 %
2885 01-10-2019 00:45:17 13.8 C 20 %
2886 01-10-2019 00:55:17 13.7 C 21 %
2887 01-10-2019 01:05:17 13.7 C 21 %
2888 01-10-2019 01:15:17 13.7 C 21 %
2889 01-10-2019 01:25:17 13.7 C 21 %
2890 01-10-2019 01:35:17 13.7 C 20 %
2891 01-10-2019 01:45:17 14 C 20 %
2892 01-10-2019 01:55:17 13.4 C 21 %
2893 01-10-2019 02:05:18 13.5 C 21 %
2894 01-10-2019 02:15:18 13.5 C 21 %
2895 01-10-2019 02:25:18 13.2 C 22 %
2896 01-10-2019 02:35:17 12.9 C 23 %
2897 01-10-2019 02:45:18 12.9 C 24 %
2898 01-10-2019 02:55:18 12.8 C 25 %
2899 01-10-2019 03:05:17 12.4 C 25 %
2900 01-10-2019 03:15:17 11.9 C 26 %
Sensor: Nr:Datum:Temp:Feuchte:
Aussen-T/F 2901 01-10-2019 03:25:17 11.8 C 26 %
2902 01-10-2019 03:35:17 11.8 C 27 %
2903 01-10-2019 03:45:18 11.8 C 27 %
2904 01-10-2019 03:55:18 12.2 C 26 %
2905 01-10-2019 04:05:17 12.5 C 25 %
2906 01-10-2019 04:15:18 12.9 C 25 %
2907 01-10-2019 04:25:18 13.3 C 23 %
2908 01-10-2019 04:35:17 14.2 C 21 %
2909 01-10-2019 04:45:17 14.3 C 21 %
2910 01-10-2019 04:55:17 14 C 21 %
2911 01-10-2019 05:05:17 14 C 21 %
2912 01-10-2019 05:15:17 13.7 C 22 %
2913 01-10-2019 05:25:17 13.7 C 23 %
2914 01-10-2019 05:35:17 14.1 C 21 %
2915 01-10-2019 05:45:17 14.3 C 21 %
2916 01-10-2019 05:55:17 14.5 C 21 %
2917 01-10-2019 06:05:18 14.6 C 21 %
2918 01-10-2019 06:15:17 14.8 C 21 %
2919 01-10-2019 06:25:17 15 C 20 %
2920 01-10-2019 06:35:18 15 C 20 %
2921 01-10-2019 06:45:17 15.1 C 20 %
2922 01-10-2019 06:55:17 15.1 C 20 %
2923 01-10-2019 07:05:17 15.1 C 21 %
2924 01-10-2019 07:15:17 15.3 C 21 %
2925 01-10-2019 07:25:17 15.3 C 21 %
Sensor: Nr:Datum:Temp:Feuchte:
Aussen-T/F 2926 01-10-2019 07:35:17 15.3 C 21 %
2927 01-10-2019 07:45:17 15.4 C 21 %
2928 01-10-2019 07:55:17 15.3 C 21 %
2929 01-10-2019 08:05:17 15.3 C 21 %
2930 01-10-2019 08:15:17 15.4 C 21 %
2931 01-10-2019 08:25:17 15.4 C 22 %
2932 01-10-2019 08:35:17 15.4 C 21 %
2933 01-10-2019 08:45:18 15.4 C 21 %
2934 01-10-2019 08:55:18 15.4 C 21 %
2935 01-10-2019 09:05:17 15.6 C 21 %
2936 01-10-2019 09:15:18 15.7 C 21 %
2937 01-10-2019 09:25:18 16 C 20 %
2938 01-10-2019 09:35:17 16.5 C 20 %
2939 01-10-2019 09:45:17 16.8 C 20 %
2940 01-10-2019 09:55:17 16.7 C 20 %
2941 01-10-2019 10:05:17 17 C 20 %
2942 01-10-2019 10:15:18 17.2 C 20 %
2943 01-10-2019 10:25:18 17.3 C 20 %
2944 01-10-2019 10:35:17 17.6 C 20 %
2945 01-10-2019 10:45:17 17.3 C 20 %
2946 01-10-2019 10:55:17 17.4 C 20 %
2947 01-10-2019 11:05:17 17.8 C 20 %
2948 01-10-2019 11:15:17 17.8 C 20 %
2949 01-10-2019 11:25:17 17 C 20 %
2950 01-10-2019 11:35:17 18 C 20 %
Sensor: Nr:Datum:Temp:Feuchte:
Aussen-T/F 2951 01-10-2019 11:45:17 17.8 C 20 %
2952 01-10-2019 11:55:17 17.8 C 20 %
2953 01-10-2019 12:05:18 17.4 C 20 %
2954 01-10-2019 12:15:17 16.4 C 23 %
2955 01-10-2019 12:25:17 17 C 23 %
2956 01-10-2019 12:35:17 17.2 C 22 %
2957 01-10-2019 12:45:17 17.8 C 21 %
2958 01-10-2019 12:55:17 18.3 C 20 %
2959 01-10-2019 13:05:17 18.6 C 20 %
2960 01-10-2019 13:15:17 19.1 C 20 %
2961 01-10-2019 13:25:17 19.3 C 20 %
2962 01-10-2019 13:35:17 19.5 C 20 %
2963 01-10-2019 13:45:17 18.8 C 20 %
2964 01-10-2019 13:55:17 18.3 C 20 %
2965 01-10-2019 14:05:18 18.8 C 20 %
2966 01-10-2019 14:15:17 18.4 C 20 %
2967 01-10-2019 14:25:17 18.9 C 20 %
2968 01-10-2019 14:35:18 18.8 C 20 %
2969 01-10-2019 14:45:17 19.6 C 20 %
2970 01-10-2019 14:55:17 19.2 C 20 %
2971 01-10-2019 15:05:18 19.4 C 20 %
2972 01-10-2019 15:15:17 20.4 C 20 %
2973 01-10-2019 15:25:17 19.8 C 20 %
2974 01-10-2019 15:35:17 19.7 C 20 %
2975 01-10-2019 15:45:17 19.7 C 20 %
Sensor: Nr:Datum:Temp:Feuchte:
Aussen-T/F 2976 01-10-2019 15:55:17 19.6 C 20 %
2977 01-10-2019 16:05:17 18.4 C 20 %
2978 01-10-2019 16:15:17 17.4 C 25 %
2979 01-10-2019 16:25:17 17 C 25 %
2980 01-10-2019 16:35:18 17.2 C 26 %
2981 01-10-2019 16:45:17 17.3 C 26 %
2982 01-10-2019 16:55:17 17.4 C 26 %
2983 01-10-2019 17:05:18 17.5 C 27 %
2984 01-10-2019 17:15:17 17.2 C 27 %
2985 01-10-2019 17:25:17 16.9 C 27 %
2986 01-10-2019 17:35:17 16.8 C 28 %
2987 01-10-2019 17:45:17 16.8 C 28 %
2988 01-10-2019 17:55:18 16.7 C 26 %
2989 01-10-2019 18:05:17 16.7 C 25 %
2990 01-10-2019 18:15:18 16.5 C 26 %
2991 01-10-2019 18:25:18 16.3 C 27 %
2992 01-10-2019 18:35:17 16.1 C 28 %
2993 01-10-2019 18:45:17 16 C 29 %
2994 01-10-2019 18:55:17 15.7 C 30 %
2995 01-10-2019 19:05:17 15.7 C 31 %
2996 01-10-2019 19:15:18 15.7 C 31 %
2997 01-10-2019 19:25:18 15.7 C 31 %
2998 01-10-2019 19:35:17 15.8 C 31 %
2999 01-10-2019 19:45:17 15.6 C 31 %
3000 01-10-2019 19:55:17 15.3 C 31 %
Sensor: Nr:Datum:Temp:Feuchte:
Aussen-T/F 3001 01-10-2019 20:05:17 15.2 C 32 %
3002 01-10-2019 20:15:18 15.4 C 32 %
3003 01-10-2019 20:25:18 15.5 C 32 %
3004 01-10-2019 20:35:17 15.5 C 31 %
3005 01-10-2019 20:45:17 15.6 C 31 %
3006 01-10-2019 20:55:17 15.8 C 29 %
3007 01-10-2019 21:05:17 16 C 28 %
3008 01-10-2019 21:15:17 16.1 C 26 %
3009 01-10-2019 21:25:18 16 C 26 %
3010 01-10-2019 21:35:17 16 C 26 %
3011 01-10-2019 21:45:18 15.8 C 27 %
3012 01-10-2019 21:55:18 15.4 C 29 %
3013 01-10-2019 22:05:17 15.4 C 30 %
3014 01-10-2019 22:15:18 15.1 C 30 %
3015 01-10-2019 22:25:18 15.2 C 30 %
3016 01-10-2019 22:35:17 15.4 C 27 %
3017 01-10-2019 22:45:17 14.9 C 30 %
3018 01-10-2019 22:55:17 14.8 C 30 %
3019 01-10-2019 23:05:17 14.9 C 29 %
3020 01-10-2019 23:15:17 15.2 C 27 %
3021 01-10-2019 23:25:17 15.4 C 27 %
3022 01-10-2019 23:35:17 15.6 C 26 %
3023 01-10-2019 23:45:17 15 C 28 %
3024 01-10-2019 23:55:17 14.9 C 29 %
Sensor: Nr:Datum:Temp:Feuchte:
G-T/H 1 11-09-2019 00:04:17 16.2 C 62 %
2 11-09-2019 00:14:17 16.2 C 62 %
3 11-09-2019 00:24:17 16.2 C 62 %
4 11-09-2019 00:34:17 16.1 C 62 %
5 11-09-2019 00:44:17 16.1 C 62 %
6 11-09-2019 00:54:18 16 C 62 %
7 11-09-2019 01:04:17 16 C 62 %
8 11-09-2019 01:14:17 16 C 62 %
9 11-09-2019 01:24:18 16 C 62 %
10 11-09-2019 01:34:17 16 C 62 %
11 11-09-2019 01:44:17 15.9 C 63 %
12 11-09-2019 01:54:17 16 C 62 %
13 11-09-2019 02:04:17 15.9 C 63 %
14 11-09-2019 02:14:17 15.9 C 63 %
15 11-09-2019 02:24:17 15.8 C 63 %
16 11-09-2019 02:34:17 15.8 C 63 %
17 11-09-2019 02:44:17 15.8 C 63 %
18 11-09-2019 02:54:17 15.8 C 63 %
19 11-09-2019 03:04:17 15.8 C 63 %
20 11-09-2019 03:14:17 15.8 C 63 %
21 11-09-2019 03:24:17 15.7 C 63 %
22 11-09-2019 03:34:17 15.7 C 63 %
23 11-09-2019 03:44:17 15.6 C 63 %
24 11-09-2019 03:54:17 15.7 C 63 %
25 11-09-2019 04:04:17 15.6 C 63 %
Sensor: Nr:Datum:Temp:Feuchte:
G-T/H 26 11-09-2019 04:14:17 15.6 C 63 %
27 11-09-2019 04:24:17 15.5 C 63 %
28 11-09-2019 04:34:17 15.5 C 63 %
29 11-09-2019 04:44:17 15.4 C 63 %
30 11-09-2019 04:54:18 15.4 C 62 %
31 11-09-2019 05:04:17 15.4 C 62 %
32 11-09-2019 05:14:17 15.4 C 62 %
33 11-09-2019 05:24:17 15.3 C 62 %
34 11-09-2019 05:34:17 15.3 C 62 %
35 11-09-2019 05:44:17 15.3 C 62 %
36 11-09-2019 05:54:18 15.3 C 62 %
37 11-09-2019 06:04:17 15.2 C 62 %
38 11-09-2019 06:14:17 15.2 C 62 %
39 11-09-2019 06:24:18 15.2 C 62 %
40 11-09-2019 06:34:17 15.2 C 62 %
41 11-09-2019 06:44:17 15.1 C 62 %
42 11-09-2019 06:54:18 15.1 C 62 %
43 11-09-2019 07:04:17 15 C 62 %
44 11-09-2019 07:14:17 15 C 62 %
45 11-09-2019 07:24:18 15 C 62 %
46 11-09-2019 07:34:17 15 C 62 %
47 11-09-2019 07:44:17 12.9 C 60 %
48 11-09-2019 07:54:17 12.9 C 60 %
49 11-09-2019 08:04:17 12 C 62 %
50 11-09-2019 08:14:17 12 C 62 %
Sensor: Nr:Datum:Temp:Feuchte:
G-T/H 51 11-09-2019 08:24:18 12 C 63 %
52 11-09-2019 08:34:17 12 C 63 %
53 11-09-2019 08:44:17 12.1 C 64 %
54 11-09-2019 08:54:18 12.2 C 64 %
55 11-09-2019 09:04:17 12.2 C 64 %
56 11-09-2019 09:14:17 12.4 C 65 %
57 11-09-2019 09:24:17 12.5 C 65 %
58 11-09-2019 09:34:17 12.6 C 65 %
59 11-09-2019 09:44:17 12.6 C 65 %
60 11-09-2019 09:54:18 12.5 C 65 %
61 11-09-2019 10:04:17 12.5 C 66 %
62 11-09-2019 10:14:17 12.5 C 66 %
63 11-09-2019 10:24:17 12.8 C 67 %
64 11-09-2019 10:34:17 13.2 C 67 %
65 11-09-2019 10:44:17 13.3 C 67 %
66 11-09-2019 10:54:18 13.3 C 67 %
67 11-09-2019 11:04:17 13.5 C 67 %
68 11-09-2019 11:14:17 13.8 C 68 %
69 11-09-2019 11:24:17 14 C 67 %
70 11-09-2019 11:34:17 14.3 C 67 %
71 11-09-2019 11:44:17 14.5 C 67 %
72 11-09-2019 11:54:18 14.6 C 67 %
73 11-09-2019 12:04:17 14.9 C 66 %
74 11-09-2019 12:14:17 15.1 C 64 %
75 11-09-2019 12:24:18 15.3 C 63 %
Sensor: Nr:Datum:Temp:Feuchte:
G-T/H 76 11-09-2019 12:34:17 15.4 C 62 %
77 11-09-2019 12:44:17 15.7 C 60 %
78 11-09-2019 12:54:18 16 C 58 %
79 11-09-2019 13:04:17 16.2 C 56 %
80 11-09-2019 13:14:17 16.2 C 56 %
81 11-09-2019 13:24:18 16.2 C 56 %
82 11-09-2019 13:34:17 16.8 C 56 %
83 11-09-2019 13:44:17 16.8 C 56 %
84 11-09-2019 13:54:17 16.8 C 55 %
85 11-09-2019 14:04:18 16.9 C 56 %
86 11-09-2019 14:14:18 17.1 C 54 %
87 11-09-2019 14:24:17 17.2 C 54 %
88 11-09-2019 14:34:18 17.2 C 54 %
89 11-09-2019 14:44:18 17.3 C 53 %
90 11-09-2019 14:54:17 17.4 C 53 %
91 11-09-2019 15:04:18 17.4 C 53 %
92 11-09-2019 15:14:18 17.4 C 53 %
93 11-09-2019 15:24:17 17.4 C 54 %
94 11-09-2019 15:34:17 17.4 C 54 %
95 11-09-2019 15:44:17 17.4 C 54 %
96 11-09-2019 15:54:17 17.4 C 54 %
97 11-09-2019 16:04:17 17.5 C 54 %
98 11-09-2019 16:14:17 17.4 C 54 %
99 11-09-2019 16:24:18 17.4 C 54 %
100 11-09-2019 16:34:17 17.6 C 55 %
Sensor: Nr:Datum:Temp:Feuchte:
G-T/H 101 11-09-2019 16:44:17 17.6 C 55 %
102 11-09-2019 16:54:17 17.5 C 56 %
103 11-09-2019 17:04:17 17.4 C 56 %
104 11-09-2019 17:14:17 17.4 C 56 %
105 11-09-2019 17:24:17 17.4 C 56 %
106 11-09-2019 17:34:17 17.2 C 57 %
107 11-09-2019 17:44:18 17.2 C 57 %
108 11-09-2019 17:54:17 17.2 C 57 %
109 11-09-2019 18:04:17 17.1 C 58 %
110 11-09-2019 18:14:17 17.1 C 58 %
111 11-09-2019 18:24:17 17 C 58 %
112 11-09-2019 18:34:18 17 C 59 %
113 11-09-2019 18:44:18 16.9 C 60 %
114 11-09-2019 18:54:17 16.9 C 60 %
115 11-09-2019 19:04:18 16.9 C 60 %
116 11-09-2019 19:14:18 16.9 C 60 %
117 11-09-2019 19:24:17 16.9 C 61 %
118 11-09-2019 19:34:18 16.9 C 61 %
119 11-09-2019 19:44:18 16.9 C 61 %
120 11-09-2019 19:54:17 16.8 C 61 %
121 11-09-2019 20:04:17 16.8 C 61 %
122 11-09-2019 20:14:17 16.8 C 61 %
123 11-09-2019 20:24:17 16.8 C 62 %
124 11-09-2019 20:34:17 16.8 C 62 %
125 11-09-2019 20:44:17 16.8 C 62 %
Sensor: Nr:Datum:Temp:Feuchte:
G-T/H 126 11-09-2019 20:54:17 16.8 C 62 %
127 11-09-2019 21:04:17 16.8 C 62 %
128 11-09-2019 21:14:17 16.8 C 62 %
129 11-09-2019 21:24:17 16.8 C 62 %
130 11-09-2019 21:34:17 16.8 C 62 %
131 11-09-2019 21:44:17 16.7 C 62 %
132 11-09-2019 21:54:17 16.7 C 62 %
133 11-09-2019 22:04:18 16.8 C 63 %
134 11-09-2019 22:14:18 16.7 C 63 %
135 11-09-2019 22:24:17 16.8 C 63 %
136 11-09-2019 22:34:18 16.8 C 63 %
137 11-09-2019 22:44:18 16.8 C 63 %
138 11-09-2019 22:54:17 16.8 C 63 %
139 11-09-2019 23:04:17 16.8 C 63 %
140 11-09-2019 23:14:17 16.7 C 63 %
141 11-09-2019 23:24:17 16.7 C 63 %
142 11-09-2019 23:34:17 16.8 C 63 %
143 11-09-2019 23:44:17 16.7 C 63 %
144 11-09-2019 23:54:17 16.7 C 63 %
145 12-09-2019 00:04:17 16.7 C 63 %
146 12-09-2019 00:14:17 16.7 C 63 %
147 12-09-2019 00:24:18 16.7 C 63 %
148 12-09-2019 00:34:17 16.7 C 63 %
149 12-09-2019 00:44:17 16.7 C 63 %
150 12-09-2019 00:54:17 16.6 C 63 %
Sensor: Nr:Datum:Temp:Feuchte:
G-T/H 151 12-09-2019 01:04:17 16.7 C 63 %
152 12-09-2019 01:14:17 16.6 C 63 %
153 12-09-2019 01:24:17 16.7 C 63 %
154 12-09-2019 01:34:17 16.6 C 63 %
155 12-09-2019 01:44:17 16.6 C 63 %
156 12-09-2019 01:54:18 16.7 C 63 %
157 12-09-2019 02:04:17 16.7 C 63 %
158 12-09-2019 02:14:17 16.7 C 64 %
159 12-09-2019 02:24:18 16.7 C 64 %
160 12-09-2019 02:34:17 16.7 C 64 %
161 12-09-2019 02:44:17 16.7 C 64 %
162 12-09-2019 02:54:18 16.7 C 64 %
163 12-09-2019 03:04:17 16.7 C 64 %
164 12-09-2019 03:14:17 16.7 C 64 %
165 12-09-2019 03:24:18 16.7 C 64 %
166 12-09-2019 03:34:17 16.7 C 64 %
167 12-09-2019 03:44:17 16.6 C 64 %
168 12-09-2019 03:54:18 16.6 C 64 %
169 12-09-2019 04:04:17 16.6 C 64 %
170 12-09-2019 04:14:17 16.7 C 64 %
171 12-09-2019 04:24:18 16.6 C 64 %
172 12-09-2019 04:34:17 16.6 C 64 %
173 12-09-2019 04:44:17 16.7 C 64 %
174 12-09-2019 04:54:18 16.7 C 64 %
175 12-09-2019 05:04:17 16.7 C 64 %
Sensor: Nr:Datum:Temp:Feuchte:
G-T/H 176 12-09-2019 05:14:17 16.7 C 64 %
177 12-09-2019 05:24:17 16.6 C 64 %
178 12-09-2019 05:34:17 16.6 C 64 %
179 12-09-2019 05:44:17 16.6 C 65 %
180 12-09-2019 05:54:18 16.7 C 65 %
181 12-09-2019 06:04:17 16.7 C 65 %
182 12-09-2019 06:14:17 16.6 C 65 %
183 12-09-2019 06:24:17 16.7 C 64 %
184 12-09-2019 06:34:17 16.6 C 64 %
185 12-09-2019 06:44:17 16.6 C 64 %
186 12-09-2019 06:54:17 16.6 C 64 %
187 12-09-2019 07:04:17 16.6 C 64 %
188 12-09-2019 07:14:17 16.6 C 64 %
189 12-09-2019 07:24:17 16.6 C 64 %
190 12-09-2019 07:34:18 16.6 C 64 %
191 12-09-2019 07:44:18 16.7 C 65 %
192 12-09-2019 07:54:17 16.7 C 65 %
193 12-09-2019 08:04:18 16.7 C 66 %
194 12-09-2019 08:14:18 16.7 C 66 %
195 12-09-2019 08:24:17 16.7 C 66 %
196 12-09-2019 08:34:18 16.8 C 67 %
197 12-09-2019 08:44:18 16.8 C 67 %
198 12-09-2019 08:54:17 16.9 C 67 %
199 12-09-2019 09:04:17 16.9 C 67 %
200 12-09-2019 09:14:17 17 C 67 %
Sensor: Nr:Datum:Temp:Feuchte:
G-T/H 201 12-09-2019 09:24:17 17 C 67 %
202 12-09-2019 09:34:17 16.9 C 68 %
203 12-09-2019 09:44:17 17 C 68 %
204 12-09-2019 09:54:17 17.1 C 68 %
205 12-09-2019 10:04:18 17.1 C 68 %
206 12-09-2019 10:14:18 17.2 C 69 %
207 12-09-2019 10:24:17 17.3 C 69 %
208 12-09-2019 10:34:17 17.3 C 69 %
209 12-09-2019 10:44:17 17.4 C 70 %
210 12-09-2019 10:54:17 17.4 C 70 %
211 12-09-2019 11:04:18 17.5 C 70 %
212 12-09-2019 11:14:18 17.6 C 70 %
213 12-09-2019 11:24:17 17.7 C 71 %
214 12-09-2019 11:34:17 17.7 C 71 %
215 12-09-2019 11:44:17 17.8 C 71 %
216 12-09-2019 11:54:17 18 C 71 %
217 12-09-2019 12:04:18 18.1 C 71 %
218 12-09-2019 12:14:18 18.2 C 71 %
219 12-09-2019 12:24:17 18.3 C 71 %
220 12-09-2019 12:34:17 18.3 C 71 %
221 12-09-2019 12:44:17 18.4 C 71 %
222 12-09-2019 12:54:17 18.3 C 71 %
223 12-09-2019 13:04:17 18.3 C 71 %
224 12-09-2019 13:14:17 18.5 C 71 %
225 12-09-2019 13:24:17 18.6 C 71 %
Sensor: Nr:Datum:Temp:Feuchte:
G-T/H 226 12-09-2019 13:34:17 18.7 C 72 %
227 12-09-2019 13:44:18 19 C 70 %
228 12-09-2019 13:54:17 19 C 70 %
229 12-09-2019 14:04:17 19.1 C 70 %
230 12-09-2019 14:14:17 19.1 C 70 %
231 12-09-2019 14:24:17 19.1 C 70 %
232 12-09-2019 14:34:17 19.1 C 70 %
233 12-09-2019 14:44:17 19 C 71 %
234 12-09-2019 14:54:18 19 C 72 %
235 12-09-2019 15:04:17 19.1 C 72 %
236 12-09-2019 15:14:17 19.3 C 72 %
237 12-09-2019 15:24:17 19.6 C 70 %
238 12-09-2019 15:34:17 19.6 C 70 %
239 12-09-2019 15:44:17 19.7 C 69 %
240 12-09-2019 15:54:17 19.7 C 69 %
241 12-09-2019 16:04:17 19.6 C 69 %
242 12-09-2019 16:14:17 19.5 C 69 %
243 12-09-2019 16:24:18 19.5 C 69 %
244 12-09-2019 16:34:17 19.9 C 70 %
245 12-09-2019 16:44:17 19.8 C 69 %
246 12-09-2019 16:54:17 19.7 C 69 %
247 12-09-2019 17:04:17 19.7 C 69 %
248 12-09-2019 17:14:17 19.6 C 69 %
249 12-09-2019 17:24:17 19.5 C 69 %
250 12-09-2019 17:34:17 19.5 C 69 %
Sensor: Nr:Datum:Temp:Feuchte:
G-T/H 251 12-09-2019 17:44:17 19.4 C 69 %
252 12-09-2019 17:54:17 19.3 C 69 %
253 12-09-2019 18:04:18 19.7 C 69 %
254 12-09-2019 18:14:18 19.5 C 69 %
255 12-09-2019 18:24:18 19.4 C 69 %
256 12-09-2019 18:34:17 19.3 C 69 %
257 12-09-2019 18:44:17 19.3 C 69 %
258 12-09-2019 18:54:17 19.2 C 69 %
259 12-09-2019 19:04:17 19.2 C 69 %
260 12-09-2019 19:14:17 19.2 C 69 %
261 12-09-2019 19:24:17 19.2 C 69 %
262 12-09-2019 19:34:17 19.1 C 69 %
263 12-09-2019 19:44:17 19.1 C 69 %
264 12-09-2019 19:54:17 19 C 69 %
265 12-09-2019 20:04:17 19 C 69 %
266 12-09-2019 20:14:17 19 C 69 %
267 12-09-2019 20:24:17 18.9 C 70 %
268 12-09-2019 20:34:18 18.9 C 70 %
269 12-09-2019 20:44:18 18.9 C 70 %
270 12-09-2019 20:54:17 18.9 C 70 %
271 12-09-2019 21:04:18 18.9 C 70 %
272 12-09-2019 21:14:18 18.9 C 70 %
273 12-09-2019 21:24:17 18.9 C 70 %
274 12-09-2019 21:34:18 18.8 C 70 %
275 12-09-2019 21:44:18 18.8 C 70 %
Sensor: Nr:Datum:Temp:Feuchte:
G-T/H 276 12-09-2019 21:54:17 18.8 C 70 %
277 12-09-2019 22:04:18 18.8 C 70 %
278 12-09-2019 22:14:18 18.7 C 70 %
279 12-09-2019 22:24:17 18.7 C 70 %
280 12-09-2019 22:34:18 18.7 C 70 %
281 12-09-2019 22:44:18 18.7 C 70 %
282 12-09-2019 22:54:17 18.7 C 70 %
283 12-09-2019 23:04:17 18.7 C 70 %
284 12-09-2019 23:14:17 18.7 C 70 %
285 12-09-2019 23:24:18 18.7 C 70 %
286 12-09-2019 23:34:17 18.6 C 70 %
287 12-09-2019 23:44:17 18.6 C 70 %
288 12-09-2019 23:54:18 18.5 C 70 %
289 13-09-2019 00:04:17 18.5 C 70 %
290 13-09-2019 00:14:17 18.5 C 70 %
291 13-09-2019 00:24:18 18.5 C 70 %
292 13-09-2019 00:34:17 18.5 C 70 %
293 13-09-2019 00:44:17 18.5 C 70 %
294 13-09-2019 00:54:17 18.5 C 70 %
295 13-09-2019 01:04:17 18.5 C 70 %
296 13-09-2019 01:14:17 18.5 C 70 %
297 13-09-2019 01:24:17 18.4 C 70 %
298 13-09-2019 01:34:17 18.4 C 70 %
299 13-09-2019 01:44:17 18.4 C 70 %
300 13-09-2019 01:54:18 18.4 C 70 %
Sensor: Nr:Datum:Temp:Feuchte:
G-T/H 301 13-09-2019 02:04:17 18.4 C 70 %
302 13-09-2019 02:14:17 18.4 C 70 %
303 13-09-2019 02:24:17 18.3 C 70 %
304 13-09-2019 02:34:17 18.3 C 70 %
305 13-09-2019 02:44:18 18.3 C 70 %
306 13-09-2019 02:54:17 18.3 C 70 %
307 13-09-2019 03:04:17 18.3 C 70 %
308 13-09-2019 03:14:17 18.3 C 70 %
309 13-09-2019 03:24:17 18.3 C 70 %
310 13-09-2019 03:34:17 18.3 C 70 %
311 13-09-2019 03:44:17 18.2 C 70 %
312 13-09-2019 03:54:17 18.2 C 70 %
313 13-09-2019 04:04:17 18.2 C 70 %
314 13-09-2019 04:14:17 18.2 C 70 %
315 13-09-2019 04:24:17 18.2 C 70 %
316 13-09-2019 04:34:17 18.2 C 70 %
317 13-09-2019 04:44:17 18.1 C 70 %
318 13-09-2019 04:54:18 18.2 C 70 %
319 13-09-2019 05:04:17 18.2 C 70 %
320 13-09-2019 05:14:17 18.1 C 70 %
321 13-09-2019 05:24:17 18.1 C 70 %
322 13-09-2019 05:34:17 18.1 C 70 %
323 13-09-2019 05:44:17 18.1 C 70 %
324 13-09-2019 05:54:17 18.1 C 69 %
325 13-09-2019 06:04:17 18.1 C 69 %
Sensor: Nr:Datum:Temp:Feuchte:
G-T/H 326 13-09-2019 06:14:17 18.1 C 69 %
327 13-09-2019 06:24:17 18.1 C 69 %
328 13-09-2019 06:34:17 18.1 C 69 %
329 13-09-2019 06:44:17 18 C 69 %
330 13-09-2019 06:54:18 18 C 69 %
331 13-09-2019 07:04:17 18 C 69 %
332 13-09-2019 07:14:17 18.1 C 69 %
333 13-09-2019 07:24:17 18 C 69 %
334 13-09-2019 07:34:17 18 C 69 %
335 13-09-2019 07:44:18 17.9 C 70 %
336 13-09-2019 07:54:17 17.8 C 71 %
337 13-09-2019 08:04:17 17.8 C 71 %
338 13-09-2019 08:14:17 17.8 C 71 %
339 13-09-2019 08:24:17 17.8 C 72 %
340 13-09-2019 08:34:17 17.8 C 72 %
341 13-09-2019 08:44:17 17.7 C 72 %
342 13-09-2019 08:54:18 17.7 C 72 %
343 13-09-2019 09:04:17 17.7 C 72 %
344 13-09-2019 09:14:17 17.8 C 73 %
345 13-09-2019 09:24:17 17.8 C 73 %
346 13-09-2019 09:34:17 17.9 C 73 %
347 13-09-2019 09:44:17 17.9 C 73 %
348 13-09-2019 09:54:17 17.9 C 72 %
349 13-09-2019 10:04:18 18.1 C 71 %
350 13-09-2019 10:14:18 18 C 71 %
Sensor: Nr:Datum:Temp:Feuchte:
G-T/H 351 13-09-2019 10:24:17 18.1 C 71 %
352 13-09-2019 10:34:18 18.1 C 71 %
353 13-09-2019 10:44:18 18.2 C 71 %
354 13-09-2019 10:54:17 18.2 C 71 %
355 13-09-2019 11:04:17 18.3 C 72 %
356 13-09-2019 11:14:17 18.4 C 72 %
357 13-09-2019 11:24:17 18.4 C 72 %
358 13-09-2019 11:34:17 18.5 C 72 %
359 13-09-2019 11:44:17 18.5 C 72 %
360 13-09-2019 11:54:17 18.6 C 72 %
361 13-09-2019 12:04:17 18.6 C 71 %
362 13-09-2019 12:14:17 18.7 C 71 %
363 13-09-2019 12:24:17 18.8 C 71 %
364 13-09-2019 12:34:17 18.8 C 71 %
365 13-09-2019 12:44:17 18.9 C 71 %
366 13-09-2019 12:54:17 18.9 C 71 %
367 13-09-2019 13:04:17 18.9 C 71 %
368 13-09-2019 13:14:17 18.9 C 71 %
369 13-09-2019 13:24:17 19 C 69 %
370 13-09-2019 13:34:17 19 C 69 %
371 13-09-2019 13:44:17 19 C 69 %
372 13-09-2019 13:54:18 19.1 C 69 %
373 13-09-2019 14:04:17 19.4 C 69 %
374 13-09-2019 14:14:17 19.3 C 69 %
375 13-09-2019 14:24:17 19.5 C 69 %
Sensor: Nr:Datum:Temp:Feuchte:
G-T/H 376 13-09-2019 14:34:17 19.7 C 68 %
377 13-09-2019 14:44:17 19.8 C 68 %
378 13-09-2019 14:54:17 19.9 C 68 %
379 13-09-2019 15:04:17 19.9 C 68 %
380 13-09-2019 15:14:17 19.9 C 68 %
381 13-09-2019 15:24:17 19.8 C 68 %
382 13-09-2019 15:34:17 19.7 C 68 %
383 13-09-2019 15:44:17 19.7 C 68 %
384 13-09-2019 15:54:17 19.7 C 68 %
385 13-09-2019 16:04:17 19.7 C 68 %
386 13-09-2019 16:14:17 19.5 C 69 %
387 13-09-2019 16:24:18 19.4 C 70 %
388 13-09-2019 16:34:17 19.4 C 70 %
389 13-09-2019 16:44:17 19.4 C 71 %
390 13-09-2019 16:54:18 19.3 C 71 %
391 13-09-2019 17:04:17 19.3 C 71 %
392 13-09-2019 17:14:17 19.3 C 71 %
393 13-09-2019 17:24:17 19.3 C 72 %
394 13-09-2019 17:34:17 19.3 C 72 %
395 13-09-2019 17:44:17 19.4 C 72 %
396 13-09-2019 17:54:17 19.3 C 72 %
397 13-09-2019 18:04:17 19.3 C 73 %
398 13-09-2019 18:14:17 19.3 C 73 %
399 13-09-2019 18:24:17 19.4 C 73 %
400 13-09-2019 18:34:17 19.4 C 73 %
Sensor: Nr:Datum:Temp:Feuchte:
G-T/H 401 13-09-2019 18:44:17 19.5 C 74 %
402 13-09-2019 18:54:17 19.5 C 74 %
403 13-09-2019 19:04:17 19.5 C 74 %
404 13-09-2019 19:14:17 19.4 C 73 %
405 13-09-2019 19:24:17 19.3 C 73 %
406 13-09-2019 19:34:17 19.1 C 73 %
407 13-09-2019 19:44:17 19.1 C 74 %
408 13-09-2019 19:54:18 19.1 C 73 %
409 13-09-2019 20:04:17 19.2 C 73 %
410 13-09-2019 20:14:17 19.1 C 73 %
411 13-09-2019 20:24:17 19.1 C 73 %
412 13-09-2019 20:34:17 19.1 C 73 %
413 13-09-2019 20:44:17 19.1 C 73 %
414 13-09-2019 20:54:18 19.1 C 73 %
415 13-09-2019 21:04:17 19 C 73 %
416 13-09-2019 21:14:17 19 C 73 %
417 13-09-2019 21:24:17 19 C 73 %
418 13-09-2019 21:34:17 19 C 73 %
419 13-09-2019 21:44:17 18.9 C 74 %
420 13-09-2019 21:54:18 19 C 73 %
421 13-09-2019 22:04:17 19 C 73 %
422 13-09-2019 22:14:17 18.9 C 73 %
423 13-09-2019 22:24:18 18.9 C 73 %
424 13-09-2019 22:34:17 18.9 C 73 %
425 13-09-2019 22:44:17 18.8 C 73 %
Sensor: Nr:Datum:Temp:Feuchte:
G-T/H 426 13-09-2019 22:54:17 18.9 C 73 %
427 13-09-2019 23:04:17 18.9 C 73 %
428 13-09-2019 23:14:17 18.8 C 73 %
429 13-09-2019 23:24:18 18.9 C 73 %
430 13-09-2019 23:34:17 18.8 C 73 %
431 13-09-2019 23:44:17 18.8 C 73 %
432 13-09-2019 23:54:17 18.8 C 73 %
433 14-09-2019 00:04:17 18.7 C 73 %
434 14-09-2019 00:14:17 18.7 C 73 %
435 14-09-2019 00:24:17 18.7 C 73 %
436 14-09-2019 00:34:17 18.7 C 73 %
437 14-09-2019 00:44:17 18.7 C 73 %
438 14-09-2019 00:54:17 18.7 C 73 %
439 14-09-2019 01:04:17 18.7 C 73 %
440 14-09-2019 01:14:17 18.6 C 72 %
441 14-09-2019 01:24:17 18.7 C 72 %
442 14-09-2019 01:34:17 18.6 C 72 %
443 14-09-2019 01:44:17 18.6 C 72 %
444 14-09-2019 01:54:18 18.5 C 72 %
445 14-09-2019 02:04:17 18.5 C 72 %
446 14-09-2019 02:14:17 18.5 C 72 %
447 14-09-2019 02:24:17 18.5 C 72 %
448 14-09-2019 02:34:18 18.5 C 72 %
449 14-09-2019 02:44:18 18.5 C 71 %
450 14-09-2019 02:54:17 18.4 C 71 %
Sensor: Nr:Datum:Temp:Feuchte:
G-T/H 451 14-09-2019 03:04:17 18.4 C 71 %
452 14-09-2019 03:14:17 18.4 C 71 %
453 14-09-2019 03:24:18 18.4 C 71 %
454 14-09-2019 03:34:17 18.4 C 71 %
455 14-09-2019 03:44:17 18.4 C 70 %
456 14-09-2019 03:54:17 18.4 C 70 %
457 14-09-2019 04:04:17 18.3 C 70 %
458 14-09-2019 04:14:17 18.3 C 70 %
459 14-09-2019 04:24:17 18.3 C 70 %
460 14-09-2019 04:34:17 18.3 C 70 %
461 14-09-2019 04:44:17 18.2 C 70 %
462 14-09-2019 04:54:17 18.2 C 69 %
463 14-09-2019 05:04:17 18.2 C 69 %
464 14-09-2019 05:14:17 18.2 C 69 %
465 14-09-2019 05:24:17 18.1 C 69 %
466 14-09-2019 05:34:17 18.2 C 69 %
467 14-09-2019 05:44:17 18.1 C 69 %
468 14-09-2019 05:54:18 18.1 C 69 %
469 14-09-2019 06:04:17 18.1 C 69 %
470 14-09-2019 06:14:18 18.1 C 68 %
471 14-09-2019 06:24:17 18 C 68 %
472 14-09-2019 06:34:17 18 C 68 %
473 14-09-2019 06:44:17 18 C 68 %
474 14-09-2019 06:54:17 18 C 68 %
475 14-09-2019 07:04:18 17.9 C 69 %
Sensor: Nr:Datum:Temp:Feuchte:
G-T/H 476 14-09-2019 07:14:18 17.8 C 68 %
477 14-09-2019 07:24:17 17.8 C 68 %
478 14-09-2019 07:34:18 17.8 C 68 %
479 14-09-2019 07:44:18 17.8 C 68 %
480 14-09-2019 07:54:17 17.8 C 68 %
481 14-09-2019 08:04:18 17.7 C 68 %
482 14-09-2019 08:14:18 17.6 C 67 %
483 14-09-2019 08:24:17 17.6 C 67 %
484 14-09-2019 08:34:18 17.6 C 67 %
485 14-09-2019 08:44:18 17.6 C 67 %
486 14-09-2019 08:54:17 17.6 C 67 %
487 14-09-2019 09:04:18 17.6 C 67 %
488 14-09-2019 09:14:18 17.6 C 67 %
489 14-09-2019 09:24:17 17.5 C 68 %
490 14-09-2019 09:34:18 17.5 C 68 %
491 14-09-2019 09:44:18 17.5 C 68 %
492 14-09-2019 09:54:17 17.5 C 68 %
493 14-09-2019 10:04:18 17.5 C 68 %
494 14-09-2019 10:14:18 17.5 C 68 %
495 14-09-2019 10:24:17 17.5 C 68 %
496 14-09-2019 10:34:18 17.2 C 67 %
497 14-09-2019 10:44:18 17 C 67 %
498 14-09-2019 10:54:17 16.6 C 69 %
499 14-09-2019 11:04:18 16.6 C 69 %
500 14-09-2019 11:14:18 16.6 C 69 %
Sensor: Nr:Datum:Temp:Feuchte:
G-T/H 501 14-09-2019 11:24:17 16.6 C 70 %
502 14-09-2019 11:34:17 16.6 C 70 %
503 14-09-2019 11:44:17 16.6 C 70 %
504 14-09-2019 11:54:17 16.8 C 71 %
505 14-09-2019 12:04:17 16.8 C 71 %
506 14-09-2019 12:14:17 16.9 C 71 %
507 14-09-2019 12:24:17 16.9 C 71 %
508 14-09-2019 12:34:17 16.9 C 71 %
509 14-09-2019 12:44:17 17 C 71 %
510 14-09-2019 12:54:18 17 C 71 %
511 14-09-2019 13:04:17 17 C 71 %
512 14-09-2019 13:14:17 17 C 71 %
513 14-09-2019 13:24:17 17 C 71 %
514 14-09-2019 13:34:17 17.1 C 71 %
515 14-09-2019 13:44:17 17.5 C 68 %
516 14-09-2019 13:54:18 17.7 C 66 %
517 14-09-2019 14:04:17 17.8 C 65 %
518 14-09-2019 14:14:17 17.9 C 64 %
519 14-09-2019 14:24:17 18 C 62 %
520 14-09-2019 14:34:17 18.1 C 62 %
521 14-09-2019 14:44:17 18.3 C 61 %
522 14-09-2019 14:54:18 18.4 C 60 %
523 14-09-2019 15:04:17 18.4 C 60 %
524 14-09-2019 15:14:17 18.5 C 59 %
525 14-09-2019 15:24:17 18.6 C 58 %
Sensor: Nr:Datum:Temp:Feuchte:
G-T/H 526 14-09-2019 15:34:17 18.7 C 58 %
527 14-09-2019 15:44:17 18.7 C 57 %
528 14-09-2019 15:54:17 18.8 C 56 %
529 14-09-2019 16:04:17 18.8 C 56 %
530 14-09-2019 16:14:17 18.9 C 55 %
531 14-09-2019 16:24:17 18.9 C 54 %
532 14-09-2019 16:34:17 18.9 C 54 %
533 14-09-2019 16:44:17 18.9 C 54 %
534 14-09-2019 16:54:17 19.2 C 53 %
535 14-09-2019 17:04:17 19.3 C 53 %
536 14-09-2019 17:14:17 19.3 C 53 %
537 14-09-2019 17:24:17 19.3 C 53 %
538 14-09-2019 17:34:17 19.2 C 52 %
539 14-09-2019 17:44:18 19.1 C 52 %
540 14-09-2019 17:54:17 18.8 C 54 %
541 14-09-2019 18:04:18 18.6 C 55 %
542 14-09-2019 18:14:18 18.5 C 56 %
543 14-09-2019 18:24:17 18.4 C 57 %
544 14-09-2019 18:34:17 18.3 C 58 %
545 14-09-2019 18:44:17 18.3 C 58 %
546 14-09-2019 18:54:17 18.3 C 58 %
547 14-09-2019 19:04:18 18.2 C 59 %
548 14-09-2019 19:14:18 18.2 C 59 %
549 14-09-2019 19:24:17 18.1 C 60 %
550 14-09-2019 19:34:17 18.1 C 60 %
Sensor: Nr:Datum:Temp:Feuchte:
G-T/H 551 14-09-2019 19:44:17 18.1 C 60 %
552 14-09-2019 19:54:17 18.1 C 61 %
553 14-09-2019 20:04:18 18 C 61 %
554 14-09-2019 20:14:18 18 C 61 %
555 14-09-2019 20:24:17 18 C 62 %
556 14-09-2019 20:34:18 17.9 C 63 %
557 14-09-2019 20:44:18 17.9 C 63 %
558 14-09-2019 20:54:17 17.9 C 63 %
559 14-09-2019 21:04:18 17.9 C 63 %
560 14-09-2019 21:14:18 17.9 C 64 %
561 14-09-2019 21:24:17 17.9 C 64 %
562 14-09-2019 21:34:18 17.9 C 64 %
563 14-09-2019 21:44:18 17.8 C 64 %
564 14-09-2019 21:54:17 17.9 C 64 %
565 14-09-2019 22:04:17 17.8 C 64 %
566 14-09-2019 22:14:17 17.8 C 64 %
567 14-09-2019 22:24:18 17.8 C 64 %
568 14-09-2019 22:34:17 17.8 C 64 %
569 14-09-2019 22:44:17 17.8 C 64 %
570 14-09-2019 22:54:17 17.8 C 64 %
571 14-09-2019 23:04:17 17.7 C 64 %
572 14-09-2019 23:14:17 17.8 C 64 %
573 14-09-2019 23:24:17 17.7 C 64 %
574 14-09-2019 23:34:18 17.7 C 64 %
575 14-09-2019 23:44:18 17.7 C 64 %
Sensor: Nr:Datum:Temp:Feuchte:
G-T/H 576 14-09-2019 23:54:17 17.7 C 64 %
577 15-09-2019 00:04:17 17.7 C 64 %
578 15-09-2019 00:14:17 17.6 C 64 %
579 15-09-2019 00:24:18 17.6 C 64 %
580 15-09-2019 00:34:17 17.6 C 64 %
581 15-09-2019 00:44:17 17.6 C 64 %
582 15-09-2019 00:54:17 17.6 C 64 %
583 15-09-2019 01:04:17 17.6 C 64 %
584 15-09-2019 01:14:17 17.6 C 64 %
585 15-09-2019 01:24:17 17.6 C 64 %
586 15-09-2019 01:34:17 17.5 C 64 %
587 15-09-2019 01:44:18 17.5 C 64 %
588 15-09-2019 01:54:17 17.5 C 64 %
589 15-09-2019 02:04:17 17.5 C 64 %
590 15-09-2019 02:14:17 17.5 C 64 %
591 15-09-2019 02:24:17 17.4 C 64 %
592 15-09-2019 02:34:17 17.4 C 64 %
593 15-09-2019 02:44:17 17.4 C 64 %
594 15-09-2019 02:54:18 17.4 C 64 %
595 15-09-2019 03:04:17 17.3 C 63 %
596 15-09-2019 03:14:17 17.3 C 64 %
597 15-09-2019 03:24:17 17.3 C 64 %
598 15-09-2019 03:34:17 17.3 C 64 %
599 15-09-2019 03:44:17 17.3 C 64 %
600 15-09-2019 03:54:17 17.2 C 64 %
Sensor: Nr:Datum:Temp:Feuchte:
G-T/H 601 15-09-2019 04:04:17 17.2 C 64 %
602 15-09-2019 04:14:17 17.2 C 64 %
603 15-09-2019 04:24:17 17.2 C 64 %
604 15-09-2019 04:34:17 17.2 C 64 %
605 15-09-2019 04:44:17 17.2 C 64 %
606 15-09-2019 04:54:17 17.2 C 64 %
607 15-09-2019 05:04:17 17.1 C 64 %
608 15-09-2019 05:14:17 17.1 C 64 %
609 15-09-2019 05:24:17 17.1 C 64 %
610 15-09-2019 05:34:17 17 C 64 %
611 15-09-2019 05:44:18 17 C 64 %
612 15-09-2019 05:54:17 17 C 64 %
613 15-09-2019 06:04:17 17 C 64 %
614 15-09-2019 06:14:17 16.9 C 65 %
615 15-09-2019 06:24:17 16.8 C 64 %
616 15-09-2019 06:34:18 16.8 C 64 %
617 15-09-2019 06:44:18 16.8 C 64 %
618 15-09-2019 06:54:17 16.7 C 63 %
619 15-09-2019 07:04:17 16.7 C 63 %
620 15-09-2019 07:14:17 16.6 C 63 %
621 15-09-2019 07:24:18 16.6 C 63 %
622 15-09-2019 07:34:17 16.6 C 63 %
623 15-09-2019 07:44:17 16.6 C 63 %
624 15-09-2019 07:54:17 16.6 C 63 %
625 15-09-2019 08:04:17 16.6 C 63 %
Sensor: Nr:Datum:Temp:Feuchte:
G-T/H 626 15-09-2019 08:14:17 16.6 C 63 %
627 15-09-2019 08:24:18 16.6 C 63 %
628 15-09-2019 08:34:17 16.6 C 64 %
629 15-09-2019 08:44:17 16.6 C 64 %
630 15-09-2019 08:54:17 16.5 C 64 %
631 15-09-2019 09:04:17 16.5 C 64 %
632 15-09-2019 09:14:17 16.5 C 64 %
633 15-09-2019 09:24:17 16.5 C 64 %
634 15-09-2019 09:34:17 16.5 C 64 %
635 15-09-2019 09:44:17 16.4 C 64 %
636 15-09-2019 09:54:17 16.4 C 64 %
637 15-09-2019 10:04:18 16.4 C 64 %
638 15-09-2019 10:14:18 16.4 C 64 %
639 15-09-2019 10:24:17 16.4 C 64 %
640 15-09-2019 10:34:18 16.4 C 65 %
641 15-09-2019 10:44:18 16.4 C 65 %
642 15-09-2019 10:54:17 16.4 C 65 %
643 15-09-2019 11:04:18 16.4 C 65 %
644 15-09-2019 11:14:18 16.4 C 65 %
645 15-09-2019 11:24:17 16.4 C 65 %
646 15-09-2019 11:34:18 16.4 C 65 %
647 15-09-2019 11:44:18 16.4 C 65 %
648 15-09-2019 11:54:17 16.4 C 65 %
649 15-09-2019 12:04:18 16.4 C 65 %
650 15-09-2019 12:14:18 16.4 C 66 %
Sensor: Nr:Datum:Temp:Feuchte:
G-T/H 651 15-09-2019 12:24:17 16.4 C 66 %
652 15-09-2019 12:34:17 16.4 C 66 %
653 15-09-2019 12:44:17 16.4 C 66 %
654 15-09-2019 12:54:17 16.4 C 66 %
655 15-09-2019 13:04:17 16.4 C 66 %
656 15-09-2019 13:14:17 16.4 C 66 %
657 15-09-2019 13:24:18 16.4 C 66 %
658 15-09-2019 13:34:17 16.5 C 66 %
659 15-09-2019 13:44:17 16.5 C 66 %
660 15-09-2019 13:54:17 16.4 C 66 %
661 15-09-2019 14:04:17 16.5 C 66 %
662 15-09-2019 14:14:17 16.5 C 66 %
663 15-09-2019 14:24:17 16.5 C 67 %
664 15-09-2019 14:34:17 16.5 C 67 %
665 15-09-2019 14:44:17 16.5 C 67 %
666 15-09-2019 14:54:17 16.6 C 67 %
667 15-09-2019 15:04:17 18.1 C 64 %
668 15-09-2019 15:14:17 18.7 C 63 %
669 15-09-2019 15:24:17 18.9 C 62 %
670 15-09-2019 15:34:17 19.2 C 60 %
671 15-09-2019 15:44:17 19.4 C 59 %
672 15-09-2019 15:54:17 19.5 C 59 %
673 15-09-2019 16:04:18 19.5 C 59 %
674 15-09-2019 16:14:18 19.5 C 59 %
675 15-09-2019 16:24:17 19.7 C 57 %
Sensor: Nr:Datum:Temp:Feuchte:
G-T/H 676 15-09-2019 16:34:17 19.7 C 57 %
677 15-09-2019 16:44:17 19.8 C 57 %
678 15-09-2019 16:54:17 19.8 C 56 %
679 15-09-2019 17:04:18 19.8 C 56 %
680 15-09-2019 17:14:18 19.9 C 55 %
681 15-09-2019 17:24:17 20 C 54 %
682 15-09-2019 17:34:18 20.1 C 53 %
683 15-09-2019 17:44:18 20.1 C 53 %
684 15-09-2019 17:54:17 20.1 C 52 %
685 15-09-2019 18:04:17 20.3 C 52 %
686 15-09-2019 18:14:17 20.3 C 51 %
687 15-09-2019 18:24:17 20.4 C 50 %
688 15-09-2019 18:34:17 20.4 C 50 %
689 15-09-2019 18:44:17 19.5 C 52 %
690 15-09-2019 18:54:18 19.2 C 53 %
691 15-09-2019 19:04:17 19.1 C 54 %
692 15-09-2019 19:14:17 18.9 C 55 %
693 15-09-2019 19:24:17 18.8 C 56 %
694 15-09-2019 19:34:17 18.7 C 57 %
695 15-09-2019 19:44:17 18.6 C 57 %
696 15-09-2019 19:54:18 18.5 C 58 %
697 15-09-2019 20:04:17 18.4 C 58 %
698 15-09-2019 20:14:17 18.4 C 58 %
699 15-09-2019 20:24:17 18.4 C 59 %
700 15-09-2019 20:34:18 18.3 C 59 %
Sensor: Nr:Datum:Temp:Feuchte:
G-T/H 701 15-09-2019 20:44:18 18.2 C 59 %
702 15-09-2019 20:54:17 18.2 C 60 %
703 15-09-2019 21:04:17 18.2 C 60 %
704 15-09-2019 21:14:18 18.1 C 60 %
705 15-09-2019 21:24:17 18.1 C 60 %
706 15-09-2019 21:34:17 18.1 C 60 %
707 15-09-2019 21:44:17 18.1 C 60 %
708 15-09-2019 21:54:17 18 C 60 %
709 15-09-2019 22:04:18 18 C 61 %
710 15-09-2019 22:14:18 18 C 61 %
711 15-09-2019 22:24:17 18 C 61 %
712 15-09-2019 22:34:18 18 C 61 %
713 15-09-2019 22:44:18 18 C 61 %
714 15-09-2019 22:54:17 17.9 C 62 %
715 15-09-2019 23:04:18 17.9 C 61 %
716 15-09-2019 23:14:18 17.9 C 61 %
717 15-09-2019 23:24:17 17.9 C 61 %
718 15-09-2019 23:34:18 17.9 C 61 %
719 15-09-2019 23:44:18 17.9 C 61 %
720 15-09-2019 23:54:17 17.8 C 61 %
721 16-09-2019 00:04:18 17.8 C 61 %
722 16-09-2019 00:14:18 17.8 C 62 %
723 16-09-2019 00:24:17 17.7 C 62 %
724 16-09-2019 00:34:18 17.7 C 62 %
725 16-09-2019 00:44:18 17.7 C 62 %
Sensor: Nr:Datum:Temp:Feuchte:
G-T/H 726 16-09-2019 00:54:17 17.7 C 62 %
727 16-09-2019 01:04:18 17.7 C 62 %
728 16-09-2019 01:14:18 17.7 C 62 %
729 16-09-2019 01:24:17 17.7 C 62 %
730 16-09-2019 01:34:18 17.7 C 62 %
731 16-09-2019 01:44:18 17.6 C 62 %
732 16-09-2019 01:54:17 17.6 C 62 %
733 16-09-2019 02:04:18 17.6 C 62 %
734 16-09-2019 02:14:18 17.6 C 62 %
735 16-09-2019 02:24:17 17.6 C 62 %
736 16-09-2019 02:34:17 17.5 C 62 %
737 16-09-2019 02:44:17 17.5 C 62 %
738 16-09-2019 02:54:17 17.5 C 62 %
739 16-09-2019 03:04:17 17.5 C 62 %
740 16-09-2019 03:14:17 17.5 C 62 %
741 16-09-2019 03:24:17 17.5 C 62 %
742 16-09-2019 03:34:17 17.4 C 62 %
743 16-09-2019 03:44:17 17.4 C 62 %
744 16-09-2019 03:54:17 17.4 C 62 %
745 16-09-2019 04:04:17 17.4 C 62 %
746 16-09-2019 04:14:17 17.3 C 62 %
747 16-09-2019 04:24:18 17.3 C 62 %
748 16-09-2019 04:34:17 17.3 C 63 %
749 16-09-2019 04:44:17 17.3 C 63 %
750 16-09-2019 04:54:17 17.2 C 63 %
Sensor: Nr:Datum:Temp:Feuchte:
G-T/H 751 16-09-2019 05:04:18 17.2 C 63 %
752 16-09-2019 05:14:18 17.2 C 63 %
753 16-09-2019 05:24:17 17.2 C 63 %
754 16-09-2019 05:34:17 17.2 C 63 %
755 16-09-2019 05:44:17 17.2 C 63 %
756 16-09-2019 05:54:17 17.2 C 63 %
757 16-09-2019 06:04:17 17.2 C 63 %
758 16-09-2019 06:14:18 17.1 C 63 %
759 16-09-2019 06:24:18 17.1 C 63 %
760 16-09-2019 06:34:17 17.1 C 63 %
761 16-09-2019 06:44:17 17.1 C 63 %
762 16-09-2019 06:54:17 17.1 C 63 %
763 16-09-2019 07:04:17 17 C 63 %
764 16-09-2019 07:14:17 17 C 63 %
765 16-09-2019 07:24:17 17 C 63 %
766 16-09-2019 07:34:17 16.5 C 62 %
767 16-09-2019 07:44:17 15.6 C 62 %
768 16-09-2019 07:54:18 15.2 C 63 %
769 16-09-2019 08:04:17 15.1 C 63 %
770 16-09-2019 08:14:17 15 C 63 %
771 16-09-2019 08:24:17 15 C 63 %
772 16-09-2019 08:34:17 14.9 C 64 %
773 16-09-2019 08:44:17 15 C 63 %
774 16-09-2019 08:54:17 15 C 63 %
775 16-09-2019 09:04:17 15 C 63 %
Sensor: Nr:Datum:Temp:Feuchte:
G-T/H 776 16-09-2019 09:14:17 15.1 C 63 %
777 16-09-2019 09:24:18 15.2 C 63 %
778 16-09-2019 09:34:17 15.2 C 63 %
779 16-09-2019 09:44:17 15.4 C 63 %
780 16-09-2019 09:54:18 15.5 C 64 %
781 16-09-2019 10:04:17 15.6 C 64 %
782 16-09-2019 10:14:17 15.7 C 64 %
783 16-09-2019 10:24:17 15.8 C 64 %
784 16-09-2019 10:34:17 15.9 C 64 %
785 16-09-2019 10:44:17 16 C 63 %
786 16-09-2019 10:54:18 16.2 C 63 %
787 16-09-2019 11:04:17 16.4 C 63 %
788 16-09-2019 11:14:17 16.5 C 63 %
789 16-09-2019 11:24:18 16.7 C 64 %
790 16-09-2019 11:34:17 16.7 C 64 %
791 16-09-2019 11:44:17 16.8 C 64 %
792 16-09-2019 11:54:17 17 C 63 %
793 16-09-2019 12:04:17 17.1 C 63 %
794 16-09-2019 12:14:17 17.3 C 63 %
795 16-09-2019 12:24:17 17.5 C 63 %
796 16-09-2019 12:34:17 17.6 C 63 %
797 16-09-2019 12:44:17 17.7 C 62 %
798 16-09-2019 12:54:17 17.9 C 62 %
799 16-09-2019 13:04:17 18.1 C 61 %
800 16-09-2019 13:14:17 18.1 C 61 %
Sensor: Nr:Datum:Temp:Feuchte:
G-T/H 801 16-09-2019 13:24:17 18.3 C 60 %
802 16-09-2019 13:34:17 18.5 C 59 %
803 16-09-2019 13:44:17 18.5 C 58 %
804 16-09-2019 13:54:17 18.6 C 58 %
805 16-09-2019 14:04:17 18.7 C 57 %
806 16-09-2019 14:14:17 18.9 C 56 %
807 16-09-2019 14:24:17 18.9 C 56 %
808 16-09-2019 14:34:18 18.9 C 56 %
809 16-09-2019 14:44:18 19 C 55 %
810 16-09-2019 14:54:17 19.1 C 55 %
811 16-09-2019 15:04:17 19.1 C 55 %
812 16-09-2019 15:14:18 19.1 C 55 %
813 16-09-2019 15:24:17 19.1 C 55 %
814 16-09-2019 15:34:18 19.2 C 55 %
815 16-09-2019 15:44:18 19.2 C 55 %
816 16-09-2019 15:54:17 19.3 C 55 %
817 16-09-2019 16:04:18 19.3 C 54 %
818 16-09-2019 16:14:18 19.3 C 54 %
819 16-09-2019 16:24:17 19.4 C 54 %
820 16-09-2019 16:34:18 19.7 C 53 %
821 16-09-2019 16:44:18 19.9 C 52 %
822 16-09-2019 16:54:17 19.9 C 52 %
823 16-09-2019 17:04:17 19.9 C 53 %
824 16-09-2019 17:14:18 19.8 C 54 %
825 16-09-2019 17:24:17 19.8 C 54 %
Sensor: Nr:Datum:Temp:Feuchte:
G-T/H 826 16-09-2019 17:34:17 19.7 C 55 %
827 16-09-2019 17:44:17 19.6 C 55 %
828 16-09-2019 17:54:17 19.5 C 55 %
829 16-09-2019 18:04:18 19.5 C 55 %
830 16-09-2019 18:14:18 19.4 C 55 %
831 16-09-2019 18:24:17 19.4 C 55 %
832 16-09-2019 18:34:18 19.3 C 55 %
833 16-09-2019 18:44:18 19.3 C 55 %
834 16-09-2019 18:54:17 19.3 C 55 %
835 16-09-2019 19:04:17 19.2 C 56 %
836 16-09-2019 19:14:17 19.2 C 56 %
837 16-09-2019 19:24:17 19.1 C 56 %
838 16-09-2019 19:34:18 19.1 C 56 %
839 16-09-2019 19:44:18 19 C 56 %
840 16-09-2019 19:54:17 18.9 C 57 %
841 16-09-2019 20:04:18 18.9 C 57 %
842 16-09-2019 20:14:18 18.7 C 59 %
843 16-09-2019 20:24:17 18.7 C 59 %
844 16-09-2019 20:34:17 18.4 C 63 %
845 16-09-2019 20:44:17 18.4 C 63 %
846 16-09-2019 20:54:17 18.3 C 65 %
847 16-09-2019 21:04:17 18.5 C 65 %
848 16-09-2019 21:14:17 18.5 C 65 %
849 16-09-2019 21:24:18 18.5 C 65 %
850 16-09-2019 21:34:17 18.5 C 64 %
Sensor: Nr:Datum:Temp:Feuchte:
G-T/H 851 16-09-2019 21:44:17 18.5 C 64 %
852 16-09-2019 21:54:18 18.5 C 64 %
853 16-09-2019 22:04:17 18.5 C 64 %
854 16-09-2019 22:14:17 18.5 C 64 %
855 16-09-2019 22:24:18 18.5 C 64 %
856 16-09-2019 22:34:17 18.5 C 64 %
857 16-09-2019 22:44:17 18.4 C 64 %
858 16-09-2019 22:54:17 18.4 C 64 %
859 16-09-2019 23:04:18 18.4 C 64 %
860 16-09-2019 23:14:18 18.4 C 64 %
861 16-09-2019 23:24:17 18.4 C 64 %
862 16-09-2019 23:34:17 18.4 C 64 %
863 16-09-2019 23:44:17 18.3 C 64 %
864 16-09-2019 23:54:17 18.3 C 64 %
865 17-09-2019 00:04:18 18.3 C 64 %
866 17-09-2019 00:14:18 18.3 C 64 %
867 17-09-2019 00:24:17 18.3 C 64 %
868 17-09-2019 00:34:17 18.3 C 64 %
869 17-09-2019 00:44:17 18.3 C 64 %
870 17-09-2019 00:54:17 18.2 C 64 %
871 17-09-2019 01:04:18 18.3 C 64 %
872 17-09-2019 01:14:18 18.2 C 64 %
873 17-09-2019 01:24:17 18.2 C 64 %
874 17-09-2019 01:34:18 18.2 C 65 %
875 17-09-2019 01:44:18 18.1 C 65 %
Sensor: Nr:Datum:Temp:Feuchte:
G-T/H 876 17-09-2019 01:54:17 18.2 C 65 %
877 17-09-2019 02:04:17 18.2 C 65 %
878 17-09-2019 02:14:17 18.1 C 65 %
879 17-09-2019 02:24:17 18.1 C 65 %
880 17-09-2019 02:34:18 18.1 C 65 %
881 17-09-2019 02:44:18 18.1 C 65 %
882 17-09-2019 02:54:17 18.1 C 65 %
883 17-09-2019 03:04:18 18.1 C 65 %
884 17-09-2019 03:14:18 18.1 C 65 %
885 17-09-2019 03:24:17 18.1 C 65 %
886 17-09-2019 03:34:17 18.1 C 65 %
887 17-09-2019 03:44:17 18 C 65 %
888 17-09-2019 03:54:17 18 C 65 %
889 17-09-2019 04:04:17 18 C 65 %
890 17-09-2019 04:14:17 17.9 C 66 %
891 17-09-2019 04:24:17 17.9 C 66 %
892 17-09-2019 04:34:17 18 C 64 %
893 17-09-2019 04:44:17 17.9 C 65 %
894 17-09-2019 04:54:17 17.9 C 65 %
895 17-09-2019 05:04:18 17.9 C 65 %
896 17-09-2019 05:14:18 17.9 C 65 %
897 17-09-2019 05:24:17 17.9 C 65 %
898 17-09-2019 05:34:18 17.9 C 65 %
899 17-09-2019 05:44:18 17.9 C 65 %
900 17-09-2019 05:54:17 17.9 C 65 %
Sensor: Nr:Datum:Temp:Feuchte:
G-T/H 901 17-09-2019 06:04:17 17.9 C 65 %
902 17-09-2019 06:14:17 17.8 C 65 %
903 17-09-2019 06:24:17 17.8 C 65 %
904 17-09-2019 06:34:17 17.8 C 65 %
905 17-09-2019 06:44:17 17.8 C 65 %
906 17-09-2019 06:54:17 17.8 C 65 %
907 17-09-2019 07:04:17 17.8 C 65 %
908 17-09-2019 07:14:17 17.8 C 65 %
909 17-09-2019 07:24:18 17.8 C 65 %
910 17-09-2019 07:34:17 17.8 C 65 %
911 17-09-2019 07:44:17 17.7 C 65 %
912 17-09-2019 07:54:18 17.7 C 65 %
913 17-09-2019 08:04:17 17.7 C 65 %
914 17-09-2019 08:14:17 17.7 C 65 %
915 17-09-2019 08:24:17 17.7 C 65 %
916 17-09-2019 08:34:17 17.7 C 65 %
917 17-09-2019 08:44:17 17.7 C 65 %
918 17-09-2019 08:54:18 17.7 C 64 %
919 17-09-2019 09:04:17 17.6 C 64 %
920 17-09-2019 09:14:17 17.7 C 64 %
921 17-09-2019 09:24:18 17.6 C 64 %
922 17-09-2019 09:34:17 17.6 C 64 %
923 17-09-2019 09:44:17 17.6 C 64 %
924 17-09-2019 09:54:18 17.6 C 64 %
925 17-09-2019 10:04:17 17.6 C 64 %
Sensor: Nr:Datum:Temp:Feuchte:
G-T/H 926 17-09-2019 10:14:17 17.5 C 64 %
927 17-09-2019 10:24:18 17.5 C 64 %
928 17-09-2019 10:34:17 17.5 C 64 %
929 17-09-2019 10:44:17 17.5 C 64 %
930 17-09-2019 10:54:18 17.5 C 64 %
931 17-09-2019 11:04:17 17.5 C 64 %
932 17-09-2019 11:14:17 17.5 C 64 %
933 17-09-2019 11:24:17 17.5 C 64 %
934 17-09-2019 11:34:18 17.5 C 64 %
935 17-09-2019 11:44:18 17.5 C 64 %
936 17-09-2019 11:54:17 17.5 C 64 %
937 17-09-2019 12:04:18 17.5 C 64 %
938 17-09-2019 12:14:18 17.5 C 64 %
939 17-09-2019 12:24:17 17.5 C 64 %
940 17-09-2019 12:34:18 17.5 C 63 %
941 17-09-2019 12:44:18 17.5 C 63 %
942 17-09-2019 12:54:17 17.5 C 63 %
943 17-09-2019 13:04:17 17.5 C 63 %
944 17-09-2019 13:14:17 17.5 C 63 %
945 17-09-2019 13:24:17 17.5 C 64 %
946 17-09-2019 13:34:18 17.5 C 64 %
947 17-09-2019 13:44:18 17.5 C 64 %
948 17-09-2019 13:54:17 17.5 C 64 %
949 17-09-2019 14:04:17 17.5 C 64 %
950 17-09-2019 14:14:17 17.5 C 64 %
Sensor: Nr:Datum:Temp:Feuchte:
G-T/H 951 17-09-2019 14:24:17 17.5 C 64 %
952 17-09-2019 14:34:17 17.5 C 64 %
953 17-09-2019 14:44:17 17.5 C 64 %
954 17-09-2019 14:54:18 17.5 C 64 %
955 17-09-2019 15:04:17 17.5 C 63 %
956 17-09-2019 15:14:17 17.5 C 62 %
957 17-09-2019 15:24:17 17.5 C 62 %
958 17-09-2019 15:34:17 17.5 C 61 %
959 17-09-2019 15:44:17 17.5 C 61 %
960 17-09-2019 15:54:17 17.5 C 61 %
961 17-09-2019 16:04:18 17.5 C 61 %
962 17-09-2019 16:14:18 17.5 C 60 %
963 17-09-2019 16:24:17 17.5 C 60 %
964 17-09-2019 16:34:17 17.5 C 60 %
965 17-09-2019 16:44:17 17.5 C 60 %
966 17-09-2019 16:54:17 17.5 C 60 %
967 17-09-2019 17:04:18 17.5 C 60 %
968 17-09-2019 17:14:18 17.5 C 59 %
969 17-09-2019 17:24:17 17.5 C 59 %
970 17-09-2019 17:34:17 17.5 C 59 %
971 17-09-2019 17:44:18 17.5 C 58 %
972 17-09-2019 17:54:17 17.4 C 58 %
973 17-09-2019 18:04:17 17.5 C 58 %
974 17-09-2019 18:14:17 17.5 C 58 %
975 17-09-2019 18:24:17 17.5 C 58 %
Sensor: Nr:Datum:Temp:Feuchte:
G-T/H 976 17-09-2019 18:34:17 17.5 C 58 %
977 17-09-2019 18:44:17 17.5 C 59 %
978 17-09-2019 18:54:18 17.5 C 59 %
979 17-09-2019 19:04:17 17.5 C 59 %
980 17-09-2019 19:14:17 17.5 C 59 %
981 17-09-2019 19:24:18 17.5 C 59 %
982 17-09-2019 19:34:17 17.5 C 60 %
983 17-09-2019 19:44:17 17.5 C 60 %
984 17-09-2019 19:54:17 17.5 C 60 %
985 17-09-2019 20:04:17 17.5 C 60 %
986 17-09-2019 20:14:17 17.5 C 61 %
987 17-09-2019 20:24:17 17.5 C 61 %
988 17-09-2019 20:34:17 17.5 C 61 %
989 17-09-2019 20:44:17 17.5 C 61 %
990 17-09-2019 20:54:17 17.5 C 61 %
991 17-09-2019 21:04:18 17.5 C 62 %
992 17-09-2019 21:14:18 17.5 C 61 %
993 17-09-2019 21:24:17 17.5 C 61 %
994 17-09-2019 21:34:18 17.5 C 61 %
995 17-09-2019 21:44:18 17.5 C 60 %
996 17-09-2019 21:54:17 17.5 C 60 %
997 17-09-2019 22:04:18 17.4 C 60 %
998 17-09-2019 22:14:18 17.5 C 59 %
999 17-09-2019 22:24:17 17.4 C 59 %
1000 17-09-2019 22:34:18 17.4 C 59 %
Sensor: Nr:Datum:Temp:Feuchte:
G-T/H 1001 17-09-2019 22:44:18 17.4 C 59 %
1002 17-09-2019 22:54:17 17.3 C 59 %
1003 17-09-2019 23:04:18 17.4 C 59 %
1004 17-09-2019 23:14:18 17.4 C 59 %
1005 17-09-2019 23:24:17 17.4 C 59 %
1006 17-09-2019 23:34:18 17.4 C 59 %
1007 17-09-2019 23:44:18 17.4 C 59 %
1008 17-09-2019 23:54:17 17.3 C 59 %
1009 18-09-2019 00:04:18 17.4 C 59 %
1010 18-09-2019 00:14:18 17.3 C 59 %
1011 18-09-2019 00:24:17 17.3 C 59 %
1012 18-09-2019 00:34:18 17.2 C 59 %
1013 18-09-2019 00:44:18 17.2 C 59 %
1014 18-09-2019 00:54:17 17.3 C 59 %
1015 18-09-2019 01:04:17 17.2 C 59 %
1016 18-09-2019 01:14:17 17.2 C 59 %
1017 18-09-2019 01:24:17 17.2 C 59 %
1018 18-09-2019 01:34:17 17.2 C 59 %
1019 18-09-2019 01:44:17 17.2 C 59 %
1020 18-09-2019 01:54:17 17.2 C 59 %
1021 18-09-2019 02:04:18 17.2 C 59 %
1022 18-09-2019 02:14:18 17.2 C 59 %
1023 18-09-2019 02:24:17 17.1 C 59 %
1024 18-09-2019 02:34:18 17.1 C 59 %
1025 18-09-2019 02:44:18 17.1 C 59 %
Sensor: Nr:Datum:Temp:Feuchte:
G-T/H 1026 18-09-2019 02:54:17 17.1 C 59 %
1027 18-09-2019 03:04:18 17.1 C 59 %
1028 18-09-2019 03:14:18 17 C 59 %
1029 18-09-2019 03:24:17 17 C 59 %
1030 18-09-2019 03:34:18 17 C 59 %
1031 18-09-2019 03:44:18 17 C 59 %
1032 18-09-2019 03:54:17 16.9 C 60 %
1033 18-09-2019 04:04:18 16.9 C 60 %
1034 18-09-2019 04:14:18 16.9 C 60 %
1035 18-09-2019 04:24:17 16.9 C 60 %
1036 18-09-2019 04:34:17 16.9 C 60 %
1037 18-09-2019 04:44:17 16.8 C 60 %
1038 18-09-2019 04:54:17 16.8 C 60 %
1039 18-09-2019 05:04:18 16.8 C 60 %
1040 18-09-2019 05:14:18 16.8 C 61 %
1041 18-09-2019 05:24:17 16.7 C 61 %
1042 18-09-2019 05:34:17 16.7 C 60 %
1043 18-09-2019 05:44:17 16.6 C 60 %
1044 18-09-2019 05:54:17 16.5 C 60 %
1045 18-09-2019 06:04:18 16.4 C 59 %
1046 18-09-2019 06:14:18 16.4 C 59 %
1047 18-09-2019 06:24:17 16.4 C 59 %
1048 18-09-2019 06:34:18 16.4 C 59 %
1049 18-09-2019 06:44:18 16.4 C 59 %
1050 18-09-2019 06:54:17 16.4 C 59 %
Sensor: Nr:Datum:Temp:Feuchte:
G-T/H 1051 18-09-2019 07:04:18 16.3 C 59 %
1052 18-09-2019 07:14:18 16.3 C 59 %
1053 18-09-2019 07:24:17 16.4 C 59 %
1054 18-09-2019 07:34:18 15.2 C 54 %
1055 18-09-2019 07:44:18 13.5 C 54 %
1056 18-09-2019 07:54:17 12.7 C 56 %
1057 18-09-2019 08:04:18 12.2 C 57 %
1058 18-09-2019 08:14:18 11.6 C 59 %
1059 18-09-2019 08:24:17 11.6 C 59 %
1060 18-09-2019 08:34:17 11.3 C 60 %
1061 18-09-2019 08:44:17 11.3 C 60 %
1062 18-09-2019 08:54:17 11.2 C 61 %
1063 18-09-2019 09:04:17 11.2 C 61 %
1064 18-09-2019 09:14:17 11.2 C 62 %
1065 18-09-2019 09:24:17 11.2 C 62 %
1066 18-09-2019 09:34:17 11.2 C 63 %
1067 18-09-2019 09:44:17 11.2 C 63 %
1068 18-09-2019 09:54:17 11.4 C 63 %
1069 18-09-2019 10:04:17 11.5 C 64 %
1070 18-09-2019 10:14:17 11.5 C 64 %
1071 18-09-2019 10:24:17 11.7 C 65 %
1072 18-09-2019 10:34:17 11.8 C 65 %
1073 18-09-2019 10:44:17 11.8 C 65 %
1074 18-09-2019 10:54:17 12.3 C 65 %
1075 18-09-2019 11:04:18 12.3 C 65 %
Sensor: Nr:Datum:Temp:Feuchte:
G-T/H 1076 18-09-2019 11:14:18 12.7 C 65 %
1077 18-09-2019 11:24:17 13 C 63 %
1078 18-09-2019 11:34:17 13.3 C 63 %
1079 18-09-2019 11:44:17 13.6 C 62 %
1080 18-09-2019 11:54:17 13.8 C 62 %
1081 18-09-2019 12:04:17 14 C 60 %
1082 18-09-2019 12:14:17 14.2 C 60 %
1083 18-09-2019 12:24:18 14.2 C 60 %
1084 18-09-2019 12:34:17 14.4 C 58 %
1085 18-09-2019 12:44:17 14.5 C 58 %
1086 18-09-2019 12:54:18 14.8 C 58 %
1087 18-09-2019 13:04:17 14.8 C 58 %
1088 18-09-2019 13:14:17 14.9 C 56 %
1089 18-09-2019 13:24:17 14.9 C 56 %
1090 18-09-2019 13:34:17 15 C 54 %
1091 18-09-2019 13:44:17 15.1 C 54 %
1092 18-09-2019 13:54:17 15.1 C 54 %
1093 18-09-2019 14:04:17 15.3 C 53 %
1094 18-09-2019 14:14:17 15.3 C 53 %
1095 18-09-2019 14:24:17 15.4 C 52 %
1096 18-09-2019 14:34:17 15.5 C 52 %
1097 18-09-2019 14:44:18 15.5 C 52 %
1098 18-09-2019 14:54:17 15.6 C 51 %
1099 18-09-2019 15:04:18 15.6 C 51 %
1100 18-09-2019 15:14:18 15.6 C 51 %
Sensor: Nr:Datum:Temp:Feuchte:
G-T/H 1101 18-09-2019 15:24:17 15.7 C 50 %
1102 18-09-2019 15:34:17 15.7 C 50 %
1103 18-09-2019 15:44:18 15.8 C 50 %
1104 18-09-2019 15:54:17 15.8 C 49 %
1105 18-09-2019 16:04:18 15.8 C 49 %
1106 18-09-2019 16:14:18 15.9 C 49 %
1107 18-09-2019 16:24:17 16 C 48 %
1108 18-09-2019 16:34:18 16.2 C 48 %
1109 18-09-2019 16:44:18 16.2 C 48 %
1110 18-09-2019 16:54:17 16.2 C 49 %
1111 18-09-2019 17:04:18 16.2 C 50 %
1112 18-09-2019 17:14:18 16.2 C 50 %
1113 18-09-2019 17:24:17 16.1 C 51 %
1114 18-09-2019 17:34:17 16.1 C 51 %
1115 18-09-2019 17:44:17 16.1 C 51 %
1116 18-09-2019 17:54:17 16.1 C 52 %
1117 18-09-2019 18:04:17 16.1 C 53 %
1118 18-09-2019 18:14:17 16.1 C 53 %
1119 18-09-2019 18:24:17 16.1 C 53 %
1120 18-09-2019 18:34:17 16.1 C 53 %
1121 18-09-2019 18:44:17 16 C 54 %
1122 18-09-2019 18:54:17 16 C 54 %
1123 18-09-2019 19:04:17 16 C 54 %
1124 18-09-2019 19:14:17 16 C 55 %
1125 18-09-2019 19:24:17 16 C 55 %
Sensor: Nr:Datum:Temp:Feuchte:
G-T/H 1126 18-09-2019 19:34:17 16 C 55 %
1127 18-09-2019 19:44:17 16 C 55 %
1128 18-09-2019 19:54:17 16 C 55 %
1129 18-09-2019 20:04:17 16 C 56 %
1130 18-09-2019 20:14:17 16 C 56 %
1131 18-09-2019 20:24:17 16 C 56 %
1132 18-09-2019 20:34:17 16 C 56 %
1133 18-09-2019 20:44:17 16 C 56 %
1134 18-09-2019 20:54:17 15.9 C 57 %
1135 18-09-2019 21:04:17 15.9 C 57 %
1136 18-09-2019 21:14:17 15.9 C 57 %
1137 18-09-2019 21:24:17 15.9 C 57 %
1138 18-09-2019 21:34:17 15.9 C 57 %
1139 18-09-2019 21:44:17 15.9 C 57 %
1140 18-09-2019 21:54:18 15.9 C 57 %
1141 18-09-2019 22:04:17 15.9 C 57 %
1142 18-09-2019 22:14:17 15.8 C 57 %
1143 18-09-2019 22:24:17 15.8 C 57 %
1144 18-09-2019 22:34:17 15.8 C 57 %
1145 18-09-2019 22:44:17 15.8 C 58 %
1146 18-09-2019 22:54:17 15.8 C 58 %
1147 18-09-2019 23:04:17 15.8 C 58 %
1148 18-09-2019 23:14:17 15.8 C 58 %
1149 18-09-2019 23:24:17 15.8 C 58 %
1150 18-09-2019 23:34:17 15.8 C 58 %
Sensor: Nr:Datum:Temp:Feuchte:
G-T/H 1151 18-09-2019 23:44:18 15.8 C 58 %
1152 18-09-2019 23:54:17 15.7 C 58 %
1153 19-09-2019 00:04:18 15.7 C 58 %
1154 19-09-2019 00:14:18 15.7 C 58 %
1155 19-09-2019 00:24:17 15.7 C 58 %
1156 19-09-2019 00:34:18 15.7 C 58 %
1157 19-09-2019 00:44:18 15.7 C 59 %
1158 19-09-2019 00:54:17 15.6 C 59 %
1159 19-09-2019 01:04:18 15.6 C 59 %
1160 19-09-2019 01:14:18 15.6 C 59 %
1161 19-09-2019 01:24:17 15.6 C 59 %
1162 19-09-2019 01:34:18 15.6 C 59 %
1163 19-09-2019 01:44:18 15.6 C 59 %
1164 19-09-2019 01:54:17 15.5 C 59 %
1165 19-09-2019 02:04:18 15.5 C 59 %
1166 19-09-2019 02:14:18 15.5 C 59 %
1167 19-09-2019 02:24:17 15.5 C 59 %
1168 19-09-2019 02:34:17 15.5 C 59 %
1169 19-09-2019 02:44:17 15.4 C 59 %
1170 19-09-2019 02:54:17 15.4 C 59 %
1171 19-09-2019 03:04:18 15.4 C 59 %
1172 19-09-2019 03:14:18 15.4 C 59 %
1173 19-09-2019 03:24:18 15.4 C 59 %
1174 19-09-2019 03:34:17 15.3 C 59 %
1175 19-09-2019 03:44:17 15.3 C 59 %
Sensor: Nr:Datum:Temp:Feuchte:
G-T/H 1176 19-09-2019 03:54:17 15.3 C 59 %
1177 19-09-2019 04:04:17 15.3 C 59 %
1178 19-09-2019 04:14:17 15.3 C 60 %
1179 19-09-2019 04:24:17 15.3 C 60 %
1180 19-09-2019 04:34:17 15.3 C 60 %
1181 19-09-2019 04:44:17 15.2 C 60 %
1182 19-09-2019 04:54:17 15.2 C 60 %
1183 19-09-2019 05:04:17 15.2 C 60 %
1184 19-09-2019 05:14:17 15.2 C 60 %
1185 19-09-2019 05:24:17 15.2 C 60 %
1186 19-09-2019 05:34:17 15.1 C 60 %
1187 19-09-2019 05:44:18 15.1 C 60 %
1188 19-09-2019 05:54:17 15.1 C 60 %
1189 19-09-2019 06:04:18 15.1 C 60 %
1190 19-09-2019 06:14:18 15.1 C 60 %
1191 19-09-2019 06:24:18 15 C 60 %
1192 19-09-2019 06:34:17 15 C 60 %
1193 19-09-2019 06:44:17 15 C 60 %
1194 19-09-2019 06:54:17 15 C 60 %
1195 19-09-2019 07:04:18 14.9 C 61 %
1196 19-09-2019 07:14:18 14.4 C 58 %
1197 19-09-2019 07:24:17 12.6 C 56 %
1198 19-09-2019 07:34:18 11.4 C 58 %
1199 19-09-2019 07:44:18 11 C 58 %
1200 19-09-2019 07:54:17 10.9 C 60 %
Sensor: Nr:Datum:Temp:Feuchte:
G-T/H 1201 19-09-2019 08:04:18 10.4 C 60 %
1202 19-09-2019 08:14:18 10.3 C 61 %
1203 19-09-2019 08:24:17 10.1 C 61 %
1204 19-09-2019 08:34:18 10 C 62 %
1205 19-09-2019 08:44:18 10 C 62 %
1206 19-09-2019 08:54:17 9.9 C 64 %
1207 19-09-2019 09:04:18 9.9 C 64 %
1208 19-09-2019 09:14:18 9.9 C 64 %
1209 19-09-2019 09:24:17 10 C 64 %
1210 19-09-2019 09:34:17 10.1 C 64 %
1211 19-09-2019 09:44:17 10.1 C 65 %
1212 19-09-2019 09:54:17 10.2 C 66 %
1213 19-09-2019 10:04:17 10.3 C 67 %
1214 19-09-2019 10:14:17 10.4 C 67 %
1215 19-09-2019 10:24:17 10.5 C 67 %
1216 19-09-2019 10:34:17 10.7 C 67 %
1217 19-09-2019 10:44:17 10.8 C 67 %
1218 19-09-2019 10:54:17 11.1 C 67 %
1219 19-09-2019 11:04:18 11.4 C 67 %
1220 19-09-2019 11:14:18 11.8 C 66 %
1221 19-09-2019 11:24:17 12 C 65 %
1222 19-09-2019 11:34:18 12.3 C 65 %
1223 19-09-2019 11:44:18 12.6 C 64 %
1224 19-09-2019 11:54:17 12.7 C 63 %
1225 19-09-2019 12:04:18 12.9 C 63 %
Sensor: Nr:Datum:Temp:Feuchte:
G-T/H 1226 19-09-2019 12:14:18 13.2 C 61 %
1227 19-09-2019 12:24:17 13.3 C 60 %
1228 19-09-2019 12:34:18 13.4 C 59 %
1229 19-09-2019 12:44:18 13.6 C 58 %
1230 19-09-2019 12:54:17 13.6 C 58 %
1231 19-09-2019 13:04:17 13.6 C 58 %
1232 19-09-2019 13:14:17 13.8 C 56 %
1233 19-09-2019 13:24:17 13.9 C 56 %
1234 19-09-2019 13:34:17 14 C 54 %
1235 19-09-2019 13:44:17 14 C 54 %
1236 19-09-2019 13:54:17 14.1 C 54 %
1237 19-09-2019 14:04:18 14.2 C 53 %
1238 19-09-2019 14:14:18 14.2 C 52 %
1239 19-09-2019 14:24:17 14.3 C 52 %
1240 19-09-2019 14:34:17 14.4 C 51 %
1241 19-09-2019 14:44:17 14.4 C 51 %
1242 19-09-2019 14:54:18 14.5 C 50 %
1243 19-09-2019 15:04:17 14.6 C 50 %
1244 19-09-2019 15:14:17 14.7 C 49 %
1245 19-09-2019 15:24:17 14.7 C 49 %
1246 19-09-2019 15:34:18 14.8 C 49 %
1247 19-09-2019 15:44:18 14.7 C 48 %
1248 19-09-2019 15:54:17 14.8 C 48 %
1249 19-09-2019 16:04:17 14.8 C 48 %
1250 19-09-2019 16:14:17 14.9 C 47 %
Sensor: Nr:Datum:Temp:Feuchte:
G-T/H 1251 19-09-2019 16:24:17 15 C 46 %
1252 19-09-2019 16:34:17 15 C 46 %
1253 19-09-2019 16:44:17 15.2 C 46 %
1254 19-09-2019 16:54:17 15.3 C 46 %
1255 19-09-2019 17:04:18 15.2 C 47 %
1256 19-09-2019 17:14:18 15.2 C 48 %
1257 19-09-2019 17:24:17 15.1 C 48 %
1258 19-09-2019 17:34:17 15.1 C 49 %
1259 19-09-2019 17:44:17 15.1 C 49 %
1260 19-09-2019 17:54:17 15.1 C 50 %
1261 19-09-2019 18:04:17 15.1 C 51 %
1262 19-09-2019 18:14:17 15 C 51 %
1263 19-09-2019 18:24:18 15.1 C 52 %
1264 19-09-2019 18:34:17 15.1 C 52 %
1265 19-09-2019 18:44:17 15 C 52 %
1266 19-09-2019 18:54:18 15 C 53 %
1267 19-09-2019 19:04:17 15 C 53 %
1268 19-09-2019 19:14:17 15 C 54 %
1269 19-09-2019 19:24:17 15 C 54 %
1270 19-09-2019 19:34:17 15 C 54 %
1271 19-09-2019 19:44:17 15 C 54 %
1272 19-09-2019 19:54:17 15 C 55 %
1273 19-09-2019 20:04:17 15 C 55 %
1274 19-09-2019 20:14:17 15 C 55 %
1275 19-09-2019 20:24:17 14.9 C 56 %
Sensor: Nr:Datum:Temp:Feuchte:
G-T/H 1276 19-09-2019 20:34:17 15 C 55 %
1277 19-09-2019 20:44:18 14.9 C 56 %
1278 19-09-2019 20:54:17 14.9 C 56 %
1279 19-09-2019 21:04:17 14.9 C 56 %
1280 19-09-2019 21:14:17 14.9 C 56 %
1281 19-09-2019 21:24:17 14.9 C 57 %
1282 19-09-2019 21:34:18 14.9 C 57 %
1283 19-09-2019 21:44:18 14.9 C 57 %
1284 19-09-2019 21:54:17 14.9 C 57 %
1285 19-09-2019 22:04:18 14.9 C 57 %
1286 19-09-2019 22:14:18 14.8 C 57 %
1287 19-09-2019 22:24:17 14.9 C 57 %
1288 19-09-2019 22:34:18 14.8 C 57 %
1289 19-09-2019 22:44:18 14.8 C 57 %
1290 19-09-2019 22:54:17 14.8 C 58 %
1291 19-09-2019 23:04:18 14.8 C 58 %
1292 19-09-2019 23:14:18 14.8 C 58 %
1293 19-09-2019 23:24:17 14.8 C 58 %
1294 19-09-2019 23:34:17 14.8 C 58 %
1295 19-09-2019 23:44:17 14.8 C 58 %
1296 19-09-2019 23:54:17 14.8 C 58 %
1297 20-09-2019 00:04:17 14.7 C 58 %
1298 20-09-2019 00:14:17 14.8 C 58 %
1299 20-09-2019 00:24:17 14.7 C 58 %
1300 20-09-2019 00:34:17 14.7 C 58 %
Sensor: Nr:Datum:Temp:Feuchte:
G-T/H 1301 20-09-2019 00:44:17 14.7 C 58 %
1302 20-09-2019 00:54:18 14.7 C 58 %
1303 20-09-2019 01:04:17 14.7 C 58 %
1304 20-09-2019 01:14:17 14.7 C 58 %
1305 20-09-2019 01:24:17 14.6 C 58 %
1306 20-09-2019 01:34:17 14.7 C 59 %
1307 20-09-2019 01:44:18 14.6 C 59 %
1308 20-09-2019 01:54:17 14.6 C 59 %
1309 20-09-2019 02:04:18 14.6 C 59 %
1310 20-09-2019 02:14:18 14.6 C 59 %
1311 20-09-2019 02:24:17 14.6 C 59 %
1312 20-09-2019 02:34:18 14.5 C 59 %
1313 20-09-2019 02:44:18 14.5 C 59 %
1314 20-09-2019 02:54:17 14.5 C 59 %
1315 20-09-2019 03:04:18 14.5 C 59 %
1316 20-09-2019 03:14:18 14.5 C 59 %
1317 20-09-2019 03:24:17 14.5 C 59 %
1318 20-09-2019 03:34:17 14.4 C 59 %
1319 20-09-2019 03:44:17 14.4 C 59 %
1320 20-09-2019 03:54:17 14.4 C 59 %
1321 20-09-2019 04:04:17 14.4 C 59 %
1322 20-09-2019 04:14:17 14.4 C 59 %
1323 20-09-2019 04:24:18 14.4 C 59 %
1324 20-09-2019 04:34:17 14.4 C 59 %
1325 20-09-2019 04:44:17 14.3 C 59 %
Sensor: Nr:Datum:Temp:Feuchte:
G-T/H 1326 20-09-2019 04:54:18 14.3 C 59 %
1327 20-09-2019 05:04:17 14.3 C 59 %
1328 20-09-2019 05:14:17 14.3 C 59 %
1329 20-09-2019 05:24:17 14.2 C 59 %
1330 20-09-2019 05:34:18 14.2 C 59 %
1331 20-09-2019 05:44:18 14.2 C 59 %
1332 20-09-2019 05:54:17 14.2 C 59 %
1333 20-09-2019 06:04:18 14.2 C 59 %
1334 20-09-2019 06:14:18 14.1 C 59 %
1335 20-09-2019 06:24:17 14.1 C 59 %
1336 20-09-2019 06:34:17 14.1 C 59 %
1337 20-09-2019 06:44:18 13.7 C 58 %
1338 20-09-2019 06:54:17 11.5 C 55 %
1339 20-09-2019 07:04:18 10.2 C 57 %
1340 20-09-2019 07:14:18 10.2 C 57 %
1341 20-09-2019 07:24:17 9.6 C 58 %
1342 20-09-2019 07:34:18 9.3 C 59 %
1343 20-09-2019 07:44:18 9.1 C 59 %
1344 20-09-2019 07:54:17 9.1 C 60 %
1345 20-09-2019 08:04:18 8.9 C 61 %
1346 20-09-2019 08:14:18 8.9 C 61 %
1347 20-09-2019 08:24:18 8.9 C 62 %
1348 20-09-2019 08:34:17 8.9 C 62 %
1349 20-09-2019 08:44:17 8.9 C 63 %
1350 20-09-2019 08:54:18 9 C 62 %
Sensor: Nr:Datum:Temp:Feuchte:
G-T/H 1351 20-09-2019 09:04:17 9 C 62 %
1352 20-09-2019 09:14:17 9 C 63 %
1353 20-09-2019 09:24:17 9.1 C 63 %
1354 20-09-2019 09:34:17 9.2 C 64 %
1355 20-09-2019 09:44:17 9.3 C 64 %
1356 20-09-2019 09:54:17 9.5 C 65 %
1357 20-09-2019 10:04:18 9.6 C 65 %
1358 20-09-2019 10:14:18 9.8 C 65 %
1359 20-09-2019 10:24:17 9.9 C 66 %
1360 20-09-2019 10:34:18 10.1 C 65 %
1361 20-09-2019 10:44:18 10.3 C 65 %
1362 20-09-2019 10:54:17 10.6 C 65 %
1363 20-09-2019 11:04:17 10.9 C 66 %
1364 20-09-2019 11:14:17 11.1 C 65 %
1365 20-09-2019 11:24:17 11.4 C 65 %
1366 20-09-2019 11:34:17 11.8 C 64 %
1367 20-09-2019 11:44:17 12.1 C 63 %
1368 20-09-2019 11:54:17 12.2 C 63 %
1369 20-09-2019 12:04:17 12.4 C 63 %
1370 20-09-2019 12:14:17 12.6 C 62 %
1371 20-09-2019 12:24:17 12.7 C 61 %
1372 20-09-2019 12:34:17 12.9 C 60 %
1373 20-09-2019 12:44:17 13.1 C 58 %
1374 20-09-2019 12:54:18 13.1 C 58 %
1375 20-09-2019 13:04:17 13.4 C 57 %
Sensor: Nr:Datum:Temp:Feuchte:
G-T/H 1376 20-09-2019 13:14:17 13.5 C 56 %
1377 20-09-2019 13:24:17 13.6 C 55 %
1378 20-09-2019 13:34:17 13.7 C 54 %
1379 20-09-2019 13:44:17 13.7 C 54 %
1380 20-09-2019 13:54:18 14.1 C 52 %
1381 20-09-2019 14:04:17 14.1 C 52 %
1382 20-09-2019 14:14:17 14.1 C 52 %
1383 20-09-2019 14:24:17 14.1 C 53 %
1384 20-09-2019 14:34:18 14 C 53 %
1385 20-09-2019 14:44:18 14 C 54 %
1386 20-09-2019 14:54:17 14 C 55 %
1387 20-09-2019 15:04:17 14 C 55 %
1388 20-09-2019 15:14:18 14 C 55 %
1389 20-09-2019 15:24:17 14 C 56 %
1390 20-09-2019 15:34:18 14 C 56 %
1391 20-09-2019 15:44:18 14 C 56 %
1392 20-09-2019 15:54:17 14 C 57 %
1393 20-09-2019 16:04:18 14 C 57 %
1394 20-09-2019 16:14:18 14 C 57 %
1395 20-09-2019 16:24:17 14 C 57 %
1396 20-09-2019 16:34:17 14 C 58 %
1397 20-09-2019 16:44:17 14 C 58 %
1398 20-09-2019 16:54:17 14 C 58 %
1399 20-09-2019 17:04:17 14 C 58 %
1400 20-09-2019 17:14:17 14 C 58 %
Sensor: Nr:Datum:Temp:Feuchte:
G-T/H 1401 20-09-2019 17:24:17 14 C 58 %
1402 20-09-2019 17:34:17 14 C 59 %
1403 20-09-2019 17:44:17 14 C 59 %
1404 20-09-2019 17:55:17 14.1 C 59 %
1405 20-09-2019 18:04:17 14.1 C 59 %
1406 20-09-2019 18:14:17 14.1 C 59 %
1407 20-09-2019 18:24:17 14.1 C 59 %
1408 20-09-2019 18:34:17 14.1 C 59 %
1409 20-09-2019 18:44:17 14.1 C 59 %
1410 20-09-2019 18:54:17 14.1 C 59 %
1411 20-09-2019 19:04:17 14.2 C 59 %
1412 20-09-2019 19:14:18 14.1 C 59 %
1413 20-09-2019 19:24:17 14.1 C 59 %
1414 20-09-2019 19:34:18 14.1 C 59 %
1415 20-09-2019 19:44:18 14.1 C 59 %
1416 20-09-2019 19:54:17 14.2 C 59 %
1417 20-09-2019 20:04:17 14.1 C 59 %
1418 20-09-2019 20:14:17 14.2 C 59 %
1419 20-09-2019 20:24:17 14.1 C 60 %
1420 20-09-2019 20:34:18 14.2 C 60 %
1421 20-09-2019 20:44:18 14.2 C 60 %
1422 20-09-2019 20:54:17 14.2 C 60 %
1423 20-09-2019 21:05:17 14.2 C 60 %
1424 20-09-2019 21:14:17 14.2 C 60 %
1425 20-09-2019 21:24:17 14.2 C 60 %
Sensor: Nr:Datum:Temp:Feuchte:
G-T/H 1426 20-09-2019 21:35:17 14.2 C 60 %
1427 20-09-2019 21:44:17 14.2 C 60 %
1428 20-09-2019 21:54:17 14.2 C 60 %
1429 20-09-2019 22:04:18 14.2 C 60 %
1430 20-09-2019 22:14:18 14.2 C 61 %
1431 20-09-2019 22:24:17 14.2 C 61 %
1432 20-09-2019 22:34:18 14.2 C 61 %
1433 20-09-2019 22:44:18 14.2 C 61 %
1434 20-09-2019 22:54:17 14.2 C 61 %
1435 20-09-2019 23:04:17 14.2 C 61 %
1436 20-09-2019 23:14:18 14.2 C 61 %
1437 20-09-2019 23:25:17 14.2 C 61 %
1438 20-09-2019 23:34:18 14.2 C 61 %
1439 20-09-2019 23:44:18 14.2 C 61 %
1440 20-09-2019 23:54:17 14.2 C 61 %
1441 21-09-2019 00:05:17 14.2 C 61 %
1442 21-09-2019 00:14:18 14.2 C 61 %
1443 21-09-2019 00:24:18 14.1 C 61 %
1444 21-09-2019 00:44:17 14.1 C 61 %
1445 21-09-2019 00:44:17 14.1 C 61 %
1446 21-09-2019 00:54:17 14.1 C 61 %
1447 21-09-2019 01:05:17 14.1 C 61 %
1448 21-09-2019 01:14:17 14.1 C 61 %
1449 21-09-2019 01:24:17 14.1 C 61 %
1450 21-09-2019 01:35:17 14.1 C 61 %
Sensor: Nr:Datum:Temp:Feuchte:
G-T/H 1451 21-09-2019 01:44:17 14.1 C 61 %
1452 21-09-2019 01:54:17 14.1 C 61 %
1453 21-09-2019 02:05:17 14.1 C 61 %
1454 21-09-2019 02:14:17 14.1 C 61 %
1455 21-09-2019 02:24:17 14.1 C 61 %
1456 21-09-2019 02:35:17 14 C 61 %
1457 21-09-2019 02:45:17 14 C 61 %
1458 21-09-2019 02:54:17 14 C 61 %
1459 21-09-2019 03:04:18 14 C 61 %
1460 21-09-2019 03:14:18 14 C 61 %
1461 21-09-2019 03:24:18 14 C 61 %
1462 21-09-2019 03:35:17 14 C 61 %
1463 21-09-2019 03:44:17 14 C 61 %
1464 21-09-2019 03:54:17 13.9 C 62 %
1465 21-09-2019 04:05:17 13.9 C 62 %
1466 21-09-2019 04:14:18 13.9 C 62 %
1467 21-09-2019 04:24:18 13.8 C 62 %
1468 21-09-2019 04:35:17 13.8 C 61 %
1469 21-09-2019 04:45:17 13.7 C 61 %
1470 21-09-2019 04:55:17 13.7 C 61 %
1471 21-09-2019 05:05:17 13.7 C 61 %
1472 21-09-2019 05:15:17 13.6 C 60 %
1473 21-09-2019 05:25:17 13.6 C 60 %
1474 21-09-2019 05:35:17 13.6 C 60 %
1475 21-09-2019 05:45:17 13.5 C 60 %
Sensor: Nr:Datum:Temp:Feuchte:
G-T/H 1476 21-09-2019 05:55:17 13.5 C 60 %
1477 21-09-2019 06:05:17 13.5 C 60 %
1478 21-09-2019 06:15:17 13.5 C 60 %
1479 21-09-2019 06:25:17 13.5 C 60 %
1480 21-09-2019 06:35:17 13.6 C 60 %
1481 21-09-2019 06:45:17 13.6 C 60 %
1482 21-09-2019 06:55:17 13.5 C 60 %
1483 21-09-2019 07:05:17 13.5 C 60 %
1484 21-09-2019 07:15:17 13.5 C 61 %
1485 21-09-2019 07:25:17 13.5 C 61 %
1486 21-09-2019 07:35:17 13.5 C 61 %
1487 21-09-2019 07:45:17 13.5 C 61 %
1488 21-09-2019 07:55:17 13.5 C 61 %
1489 21-09-2019 08:05:17 13.4 C 60 %
1490 21-09-2019 08:15:17 13.4 C 60 %
1491 21-09-2019 08:25:17 13.3 C 60 %
1492 21-09-2019 08:35:17 13.2 C 60 %
1493 21-09-2019 08:45:17 13.3 C 60 %
1494 21-09-2019 08:55:17 13.2 C 60 %
1495 21-09-2019 09:05:17 13.3 C 60 %
1496 21-09-2019 09:15:17 13.3 C 60 %
1497 21-09-2019 09:25:17 13.3 C 60 %
1498 21-09-2019 09:35:17 13.3 C 60 %
1499 21-09-2019 09:45:17 13.3 C 60 %
1500 21-09-2019 09:55:17 13.3 C 61 %
Sensor: Nr:Datum:Temp:Feuchte:
G-T/H 1501 21-09-2019 10:05:17 13.3 C 61 %
1502 21-09-2019 10:15:17 13.3 C 61 %
1503 21-09-2019 10:25:17 13.3 C 61 %
1504 21-09-2019 10:35:17 13.3 C 61 %
1505 21-09-2019 10:45:17 13.3 C 62 %
1506 21-09-2019 10:55:17 13.3 C 62 %
1507 21-09-2019 11:05:17 13.3 C 62 %
1508 21-09-2019 11:15:17 13.3 C 62 %
1509 21-09-2019 11:25:17 13.3 C 62 %
1510 21-09-2019 11:35:17 13.3 C 62 %
1511 21-09-2019 11:45:17 13.3 C 62 %
1512 21-09-2019 11:55:17 13.4 C 62 %
1513 21-09-2019 12:05:17 13.5 C 62 %
1514 21-09-2019 12:15:17 13.5 C 62 %
1515 21-09-2019 12:25:17 13.5 C 62 %
1516 21-09-2019 12:35:17 13.5 C 62 %
1517 21-09-2019 12:45:17 13.5 C 63 %
1518 21-09-2019 12:55:17 13.5 C 63 %
1519 21-09-2019 13:05:16 13.5 C 63 %
1520 21-09-2019 13:15:17 14.5 C 57 %
1521 21-09-2019 13:25:17 15.1 C 52 %
1522 21-09-2019 13:35:17 15.4 C 50 %
1523 21-09-2019 13:45:17 15.8 C 47 %
1524 21-09-2019 13:55:17 15.8 C 46 %
1525 21-09-2019 14:05:17 16.2 C 43 %
Sensor: Nr:Datum:Temp:Feuchte:
G-T/H 1526 21-09-2019 14:15:17 16.3 C 42 %
1527 21-09-2019 14:25:17 16.4 C 40 %
1528 21-09-2019 14:35:17 16.6 C 39 %
1529 21-09-2019 14:45:17 16.7 C 37 %
1530 21-09-2019 14:55:17 16.9 C 36 %
1531 21-09-2019 15:05:17 17 C 36 %
1532 21-09-2019 15:15:16 17.3 C 35 %
1533 21-09-2019 15:25:16 17.4 C 35 %
1534 21-09-2019 15:35:17 17.4 C 35 %
1535 21-09-2019 15:45:16 17.4 C 35 %
1536 21-09-2019 15:55:16 17.8 C 34 %
1537 21-09-2019 16:05:17 18.2 C 34 %
1538 21-09-2019 16:15:16 18.2 C 34 %
1539 21-09-2019 16:25:16 18.5 C 34 %
1540 21-09-2019 16:35:17 18.5 C 33 %
1541 21-09-2019 16:45:16 18.6 C 33 %
1542 21-09-2019 16:55:16 18.5 C 34 %
1543 21-09-2019 17:05:17 18.4 C 34 %
1544 21-09-2019 17:15:17 18.4 C 33 %
1545 21-09-2019 17:25:17 18.5 C 33 %
1546 21-09-2019 17:35:16 18.6 C 34 %
1547 21-09-2019 17:45:17 18.7 C 34 %
1548 21-09-2019 17:55:17 18.7 C 34 %
1549 21-09-2019 18:05:16 18.7 C 34 %
1550 21-09-2019 18:15:17 18.5 C 36 %
Sensor: Nr:Datum:Temp:Feuchte:
G-T/H 1551 21-09-2019 18:25:17 18.5 C 36 %
1552 21-09-2019 18:35:16 18.3 C 37 %
1553 21-09-2019 18:45:16 18.1 C 38 %
1554 21-09-2019 18:55:16 17.9 C 40 %
1555 21-09-2019 19:05:16 17.6 C 41 %
1556 21-09-2019 19:15:17 17.4 C 42 %
1557 21-09-2019 19:25:17 17.2 C 42 %
1558 21-09-2019 19:35:16 17.2 C 42 %
1559 21-09-2019 19:45:16 16.8 C 44 %
1560 21-09-2019 19:55:16 16.7 C 45 %
1561 21-09-2019 20:05:17 16.4 C 45 %
1562 21-09-2019 20:15:16 16.4 C 45 %
1563 21-09-2019 20:25:16 16.4 C 45 %
1564 21-09-2019 20:35:16 16.4 C 45 %
1565 21-09-2019 20:45:16 16 C 46 %
1566 21-09-2019 20:55:16 16.1 C 46 %
1567 21-09-2019 21:05:17 16.1 C 46 %
1568 21-09-2019 21:15:16 16 C 47 %
1569 21-09-2019 21:25:16 16 C 47 %
1570 21-09-2019 21:35:17 16 C 48 %
1571 21-09-2019 21:45:16 15.9 C 49 %
1572 21-09-2019 21:55:16 15.9 C 49 %
1573 21-09-2019 22:05:17 15.9 C 50 %
1574 21-09-2019 22:15:16 15.9 C 50 %
1575 21-09-2019 22:25:16 15.8 C 50 %
Sensor: Nr:Datum:Temp:Feuchte:
G-T/H 1576 21-09-2019 22:35:17 15.8 C 50 %
1577 21-09-2019 22:45:16 15.8 C 50 %
1578 21-09-2019 22:55:16 15.8 C 51 %
1579 21-09-2019 23:05:16 15.8 C 51 %
1580 21-09-2019 23:15:16 15.8 C 51 %
1581 21-09-2019 23:25:16 15.7 C 51 %
1582 21-09-2019 23:35:16 15.7 C 51 %
1583 21-09-2019 23:45:16 15.7 C 51 %
1584 21-09-2019 23:55:16 15.7 C 52 %
1585 22-09-2019 00:05:16 15.7 C 52 %
1586 22-09-2019 00:15:16 15.7 C 52 %
1587 22-09-2019 00:25:17 15.6 C 52 %
1588 22-09-2019 00:35:16 15.6 C 52 %
1589 22-09-2019 00:45:16 15.6 C 53 %
1590 22-09-2019 00:55:16 15.5 C 53 %
1591 22-09-2019 01:05:16 15.5 C 53 %
1592 22-09-2019 01:15:16 15.5 C 53 %
1593 22-09-2019 01:25:16 15.5 C 53 %
1594 22-09-2019 01:35:16 15.5 C 53 %
1595 22-09-2019 01:45:16 15.4 C 53 %
1596 22-09-2019 01:55:16 15.5 C 54 %
1597 22-09-2019 02:05:17 15.4 C 54 %
1598 22-09-2019 02:15:16 15.4 C 54 %
1599 22-09-2019 02:25:16 15.4 C 54 %
1600 22-09-2019 02:35:16 15.4 C 54 %
Sensor: Nr:Datum:Temp:Feuchte:
G-T/H 1601 22-09-2019 02:45:17 15.4 C 54 %
1602 22-09-2019 02:55:17 15.3 C 54 %
1603 22-09-2019 03:05:18 15.3 C 54 %
1604 22-09-2019 03:15:17 15.3 C 54 %
1605 22-09-2019 03:25:17 15.2 C 55 %
1606 22-09-2019 03:35:17 15.2 C 55 %
1607 22-09-2019 03:45:17 15.2 C 55 %
1608 22-09-2019 03:55:17 15.2 C 55 %
1609 22-09-2019 04:05:18 15.2 C 55 %
1610 22-09-2019 04:15:17 15.2 C 55 %
1611 22-09-2019 04:25:17 15.2 C 55 %
1612 22-09-2019 04:35:18 15.1 C 55 %
1613 22-09-2019 04:45:17 15 C 55 %
1614 22-09-2019 04:55:17 15 C 55 %
1615 22-09-2019 05:05:17 15 C 56 %
1616 22-09-2019 05:15:17 15 C 56 %
1617 22-09-2019 05:25:17 15 C 56 %
1618 22-09-2019 05:35:17 15 C 56 %
1619 22-09-2019 05:45:17 15 C 56 %
1620 22-09-2019 05:55:17 14.9 C 57 %
1621 22-09-2019 06:05:17 14.9 C 57 %
1622 22-09-2019 06:15:17 14.9 C 57 %
1623 22-09-2019 06:25:17 14.9 C 57 %
1624 22-09-2019 06:35:17 14.9 C 57 %
1625 22-09-2019 06:45:18 14